GFSNW_250_spd_000.txt.gz
Wind_Speed
57 46 35 18 8 12 19 21 26 37 52 67 69 60 57 54 45 40 37 32 33 32 36 37 35 39 36 21 15 22 33 44 42 36 29 23 23 24 25 27 35 37 43 58
54 42 28 15 3 10 15 17 29 35 50 63 61 60 63 53 47 44 38 36 33 35 36 31 31 13 9 8 10 8 16 25 19 12 8 11 4 1 7 14 18 23 29 38
51 39 22 12 2 12 19 18 18 24 34 45 51 61 62 56 52 47 41 37 37 37 33 27 16 20 11 11 7 12 16 19 20 20 25 19 18 16 6 9 15 18 22 26
48 36 21 11 7 8 15 21 22 24 24 33 41 53 59 57 55 49 45 42 40 36 29 25 24 21 19 12 11 9 13 24 29 30 30 27 22 20 12 5 3 10 18 23
45 33 20 11 10 4 10 17 26 32 35 36 43 53 61 60 57 51 48 45 42 36 29 28 34 24 23 16 7 9 13 23 26 28 29 32 26 19 15 10 13 20 23 26
45 29 16 11 8 3 10 19 23 26 27 31 41 52 61 63 58 54 51 47 43 36 32 33 31 27 27 17 10 8 10 17 20 20 26 23 26 23 28 20 26 23 28 30
44 31 16 8 5 2 10 15 18 24 31 37 40 42 50 57 58 57 56 51 40 36 36 28 28 32 25 15 11 7 5 18 16 13 16 20 17 15 26 24 28 24 20 20
45 32 17 4 1 4 7 12 19 27 30 30 33 42 44 48 48 52 50 43 42 41 35 32 35 34 24 18 11 13 14 8 15 15 22 17 23 13 16 14 20 26 18 21
44 33 19 10 4 7 12 13 19 23 26 32 35 41 44 48 51 51 47 46 45 40 37 30 39 30 24 18 15 19 20 14 18 8 12 10 22 13 14 11 3 9 10 11
43 34 22 11 7 9 14 17 22 27 30 35 40 44 47 48 50 50 48 46 46 39 33 32 39 32 27 21 19 22 23 20 17 17 13 10 15 10 2 7 12 8 3 3
43 33 25 16 11 10 14 20 23 28 36 39 44 46 50 51 51 49 44 42 38 36 34 34 35 31 35 34 26 25 20 18 20 17 18 15 14 11 10 10 8 9 5 5
41 31 25 19 15 13 14 18 25 32 38 42 46 48 52 54 52 46 40 38 38 35 34 37 30 29 29 32 24 28 31 29 20 21 21 18 15 16 15 16 21 22 17 10
36 28 24 20 18 18 18 19 24 34 39 44 48 52 55 54 50 44 40 37 35 31 28 24 26 33 29 28 28 25 25 30 33 22 18 17 15 19 19 15 20 21 12 8
36 26 21 20 21 23 23 23 29 38 41 48 52 56 55 53 47 42 40 37 33 29 27 23 20 18 15 15 13 14 20 21 24 26 27 30 31 23 26 20 15 13 11 9
37 27 19 19 22 26 28 32 33 39 45 51 56 57 55 50 45 40 38 38 34 30 27 23 18 16 17 18 18 20 19 19 20 20 19 21 18 18 20 12 11 11 9 10
38 29 20 19 23 29 30 32 33 42 53 58 58 56 53 49 45 42 40 37 33 28 24 20 17 17 16 15 16 13 17 18 19 21 20 19 16 15 13 14 11 8 6 7
37 30 22 20 23 26 31 33 41 53 58 61 59 57 53 51 47 44 41 36 33 30 25 21 16 16 13 9 9 10 13 14 13 15 14 10 5 3 1 3 6 6 6 6
35 29 24 21 23 29 35 37 41 55 65 63 61 59 57 53 49 46 42 37 34 30 25 22 18 16 14 11 9 6 10 11 12 12 12 13 11 10 8 6 4 3 4 5
33 27 24 21 21 29 34 38 44 55 66 63 62 60 57 53 50 48 43 37 35 32 27 22 20 17 16 15 13 9 8 10 9 8 8 9 10 10 8 7 7 7 8 9
32 26 21 13 16 31 38 40 45 55 64 68 64 60 58 53 51 49 42 39 36 34 31 25 20 17 16 17 16 14 13 13 12 10 10 12 12 11 10 10 11 12 13 14
33 26 20 14 15 28 36 34 40 55 65 69 67 63 60 56 51 50 46 40 38 36 32 30 27 22 20 22 21 19 17 16 17 17 16 16 15 15 17 17 18 19 19 20
32 25 19 12 9 22 31 32 41 57 69 72 70 66 62 58 53 49 45 44 41 38 35 33 31 27 27 25 25 21 19 18 19 19 22 22 22 23 24 24 25 26 27 28
33 25 19 12 5 13 22 25 35 58 68 75 76 72 68 62 59 52 44 44 45 42 40 37 31 31 30 29 28 26 25 24 23 25 26 28 28 29 30 31 32 33 35 36
31 25 19 12 3 7 20 29 40 62 69 72 77 72 68 64 59 52 43 40 42 46 43 39 35 37 37 36 34 33 31 31 31 32 31 33 34 36 38 39 41 42 43 44
30 24 17 13 10 19 21 33 43 59 66 70 73 74 73 69 62 56 49 44 41 47 47 47 41 40 40 38 36 35 34 34 34 33 37 40 40 44 44 43 45 49 50 51
28 23 15 14 11 27 32 37 46 52 60 66 70 75 75 71 64 59 55 52 52 49 43 42 37 36 35 32 30 33 36 37 33 28 25 25 27 27 26 26 26 29 33 37
28 23 19 10 14 24 35 42 47 52 54 58 68 74 77 74 68 64 62 65 66 58 52 50 45 41 40 38 36 32 30 31 31 32 32 31 31 31 29 29 28 28 29 29

GFSNW_250_spd_003.txt.gz
Wind_Speed
77 68 53 42 33 19 4 7 19 26 33 40 50 57 53 49 44 41 45 47 44 40 38 36 33 25 27 32 37 36 37 33 33 36 36 35 34 28 24 25 27 32 42 58
75 65 50 37 26 15 2 15 19 24 27 29 50 59 57 53 46 37 38 39 37 36 36 33 26 24 28 30 24 20 22 22 29 30 23 10 11 11 8 6 7 15 30 55
73 62 47 34 21 15 2 12 15 18 24 34 56 65 59 53 47 41 36 35 37 38 34 28 22 25 22 21 22 23 19 21 27 20 36 39 37 32 22 20 6 5 16 34
74 63 47 34 21 13 2 15 21 24 24 36 50 63 64 57 50 46 41 38 38 36 33 25 24 23 21 21 24 22 21 19 22 27 37 44 44 43 39 36 32 17 4 14
74 62 46 33 22 9 6 10 18 21 25 28 38 54 60 58 54 49 44 41 39 38 31 28 22 24 23 24 23 20 14 11 20 22 38 41 43 48 46 39 30 19 14 9
76 62 50 35 24 10 4 5 17 24 26 29 36 48 62 61 57 53 46 44 43 36 33 30 23 24 27 24 23 16 15 4 11 20 23 28 34 37 40 39 36 30 24 26
78 63 51 35 24 13 6 1 10 21 32 36 38 50 62 63 59 55 50 47 44 38 35 30 26 28 29 23 25 18 10 13 9 11 15 20 23 28 32 38 39 39 33 32
76 64 52 36 25 16 5 3 9 18 25 34 41 52 60 65 62 58 53 49 44 41 37 30 29 32 29 31 26 17 9 4 11 8 16 27 34 20 23 26 28 29 35 33
73 63 52 36 23 15 6 3 7 13 22 29 37 44 57 64 63 59 57 52 47 44 39 33 32 32 28 30 24 15 9 2 7 4 9 16 23 24 25 25 19 18 19 21
69 62 50 36 25 16 9 7 10 12 17 24 31 39 47 57 62 60 56 52 50 46 39 34 33 31 30 30 25 19 16 10 5 2 7 6 11 16 19 20 23 26 15 9
65 58 50 37 25 17 11 8 10 13 17 23 30 37 42 47 53 56 55 54 50 45 39 38 30 28 29 31 30 18 23 19 14 12 6 5 4 8 13 14 18 19 19 14
63 57 47 35 25 17 13 11 11 11 15 22 27 35 40 43 48 53 55 51 46 42 39 38 28 30 34 30 32 29 28 23 21 17 14 15 14 14 13 13 15 16 18 13
58 54 47 35 25 17 15 16 14 15 13 21 29 37 40 44 48 49 47 47 44 41 38 33 26 28 31 31 30 37 32 24 30 24 24 22 21 18 21 19 16 19 18 8
55 53 44 37 27 19 17 22 19 20 20 23 31 35 40 46 50 50 48 45 40 33 27 27 24 27 28 27 29 33 32 28 27 25 29 31 27 27 26 27 20 9 8 3
54 50 43 35 27 19 19 25 25 24 24 28 34 38 44 48 50 50 45 40 41 34 26 22 22 19 18 20 22 21 22 26 28 30 25 25 25 25 22 20 16 12 6 2
51 47 40 32 25 17 18 26 27 26 30 32 39 43 48 53 51 48 46 43 37 30 26 23 19 13 16 18 19 16 18 21 23 23 20 19 15 14 15 13 10 6 5 4
50 47 38 31 22 15 16 25 28 32 34 37 42 48 54 56 52 50 47 41 36 35 31 22 17 15 14 14 13 14 17 17 17 16 16 15 13 11 7 7 6 7 6 4
47 44 36 28 20 14 18 25 31 36 40 41 48 55 58 58 54 50 46 40 38 35 30 26 22 18 15 14 12 11 13 15 16 14 13 14 15 19 15 11 10 10 9 7
45 42 33 24 16 10 18 26 32 35 42 47 54 60 60 59 54 50 45 40 38 36 32 27 24 20 17 16 12 10 9 12 14 14 16 18 20 19 15 13 11 10 9 8
44 39 29 22 16 13 15 21 30 33 42 52 58 63 62 59 56 51 46 41 38 35 32 29 27 22 19 18 15 12 10 11 15 17 16 15 13 13 12 12 13 12 11 12
43 41 27 20 12 8 6 15 25 31 44 53 59 65 64 60 57 52 47 42 40 36 33 30 28 28 24 19 17 15 16 16 15 15 15 15 16 17 17 17 16 15 16 17
43 40 27 15 10 3 4 9 23 34 48 55 58 65 65 63 59 55 50 43 42 38 35 32 28 26 26 24 21 19 20 19 18 17 17 19 24 23 23 21 19 18 20 22
43 40 28 17 6 5 9 6 21 34 46 53 56 64 66 64 61 56 52 45 43 39 37 35 33 31 28 27 27 26 24 22 21 21 23 25 26 25 24 23 24 25 26 29
41 38 33 18 6 8 15 5 21 31 38 44 51 61 66 65 62 58 54 47 44 41 40 37 36 33 33 30 29 28 28 28 26 26 27 27 27 28 28 29 31 32 33 37
35 33 32 22 12 11 17 24 25 31 35 39 46 56 66 65 62 58 54 52 49 51 48 42 40 37 35 33 30 31 31 32 31 30 30 31 31 31 34 36 39 41 41 38
31 29 27 24 16 12 18 24 26 30 33 35 37 46 61 67 63 62 58 55 58 51 46 48 47 45 43 40 36 36 36 36 35 36 35 35 34 34 37 32 25 26 28 29
27 27 24 22 19 14 13 20 28 31 33 34 35 40 54 66 69 66 65 66 62 50 44 44 48 49 48 46 42 40 42 42 41 41 42 43 43 39 34 32 32 31 32 32

GFSNW_250_spd_006.txt.gz
Wind_Speed
77 72 63 50 40 32 23 9 6 19 23 32 46 53 48 46 49 54 47 40 35 32 28 27 26 24 25 23 24 25 25 34 35 30 29 30 30 33 31 47 49 44 38 46
79 70 63 50 40 30 20 8 6 20 27 34 46 54 49 47 46 52 50 43 37 33 29 27 25 23 22 22 23 21 24 25 24 22 26 34 31 36 24 15 24 27 29 31
79 74 64 51 40 29 19 8 4 21 33 42 52 57 51 47 45 45 50 45 39 36 33 28 25 24 23 22 20 20 22 18 23 15 21 30 34 37 38 28 19 15 18 22
79 72 64 51 39 29 19 10 6 23 32 44 60 59 56 51 44 41 45 49 44 40 36 31 26 26 24 20 18 19 18 10 17 16 15 24 33 42 44 39 35 29 15 10
77 70 63 51 37 28 15 8 5 20 37 45 57 61 59 51 45 40 40 41 41 40 35 31 27 26 21 17 15 17 14 12 12 13 16 19 27 37 41 46 44 32 24 12
77 68 63 52 38 28 17 9 3 15 27 44 57 65 64 57 49 42 40 40 42 39 36 32 28 26 19 19 15 15 18 16 12 17 10 15 20 31 38 42 47 46 38 28
76 69 64 54 40 26 18 12 4 9 22 36 53 61 60 57 52 48 44 42 41 39 35 31 31 26 20 18 17 20 21 11 13 5 17 13 17 32 41 43 40 45 45 39
75 68 62 57 46 31 20 10 3 4 18 34 43 56 59 59 55 53 48 45 42 39 35 33 32 26 18 18 21 25 21 17 15 10 11 16 24 30 35 36 40 40 41 42
74 67 59 57 47 36 22 15 5 4 13 29 48 58 67 63 59 55 51 48 45 42 37 35 33 25 20 21 24 24 17 17 13 6 5 14 22 25 28 33 33 35 34 33
71 67 59 54 49 37 25 18 10 6 13 20 37 51 64 67 64 60 56 51 48 43 39 38 35 25 22 25 24 20 23 19 18 11 10 11 13 17 22 23 26 31 35 21
68 63 58 52 47 39 27 17 12 9 12 17 27 44 56 66 66 63 58 52 50 44 41 40 36 29 24 28 28 24 26 22 20 14 13 10 13 12 15 22 25 26 27 28
63 61 53 51 47 38 27 18 14 12 11 18 23 33 50 62 64 63 60 56 52 48 45 43 36 30 29 33 35 28 28 24 26 23 22 19 18 16 21 24 24 26 22 17
59 56 50 46 45 35 26 16 14 17 15 18 26 31 42 53 61 61 60 56 54 52 47 45 36 30 34 36 35 33 32 29 27 28 27 27 25 23 26 27 18 23 15 10
58 52 43 43 41 33 23 15 15 18 20 21 26 30 37 48 57 61 59 58 56 52 49 41 34 33 31 33 32 32 32 33 34 32 31 28 26 23 27 31 19 17 9 6
56 50 40 39 36 29 21 15 14 18 21 23 26 27 34 44 53 61 61 60 57 50 44 35 34 33 27 26 28 31 31 30 31 32 31 30 24 24 20 13 12 15 9 6
56 49 39 38 32 25 19 14 12 19 23 25 27 28 34 44 50 56 59 56 49 44 36 32 29 28 31 28 24 21 24 25 32 33 29 24 20 17 14 12 10 8 5 5
53 46 39 38 30 23 17 17 18 21 23 28 29 32 34 42 47 48 47 44 41 37 33 29 26 26 19 18 23 19 25 27 28 26 23 21 17 15 13 11 10 8 6 5
51 42 35 35 29 23 17 18 19 24 27 29 33 37 39 41 44 45 44 43 41 37 32 30 24 20 18 19 23 22 17 16 16 20 21 20 19 18 17 18 14 11 10 8
49 41 34 32 27 23 18 17 19 25 29 32 38 40 43 42 44 47 47 46 40 37 35 32 27 21 16 19 15 17 16 15 16 18 17 17 19 21 20 17 14 11 10 8
46 39 33 30 24 18 13 14 19 22 29 35 40 43 47 47 49 52 50 45 42 39 35 31 28 24 21 20 18 15 12 10 12 15 16 15 15 17 16 16 14 12 9 8
42 38 33 31 23 16 9 9 15 19 27 32 40 46 49 50 55 56 52 46 43 42 38 35 31 29 25 23 21 16 13 12 15 16 16 16 16 17 18 16 15 13 12 12
38 37 31 30 24 15 9 10 16 21 28 30 37 45 50 54 60 58 55 50 47 43 41 37 33 31 28 26 23 22 17 16 18 20 21 20 21 20 20 19 17 16 17 18
35 34 27 30 22 14 12 17 13 17 21 23 32 44 51 56 62 61 58 52 48 45 42 39 34 32 30 28 29 26 24 21 20 21 23 22 22 23 25 25 24 24 23 21
31 32 30 26 26 15 17 15 21 22 19 18 28 43 52 55 61 61 59 55 51 48 46 42 40 36 33 31 31 28 28 26 22 22 24 26 27 27 28 30 29 27 27 27
24 28 29 25 23 19 13 18 16 15 22 20 26 39 50 56 61 62 60 58 53 53 52 49 46 42 39 36 33 32 30 29 27 27 27 29 30 31 30 30 29 31 32 33
23 20 23 23 23 21 16 13 16 17 19 23 26 34 44 56 62 65 65 62 62 58 53 49 47 44 42 42 40 38 36 34 32 32 32 32 32 32 32 32 34 37 34 34
25 21 23 21 20 22 19 16 14 13 15 16 24 29 34 49 60 69 70 69 63 57 54 54 54 51 49 46 45 42 39 37 35 35 35 36 37 38 39 38 37 36 37 36

GFSNW_250_spd_009.txt.gz
Wind_Speed
82 79 74 61 46 36 29 25 11 6 14 21 34 47 49 44 40 40 41 40 34 28 28 28 31 32 29 25 19 17 16 16 19 25 28 27 25 23 32 39 51 49 49 56
78 77 73 61 47 35 26 25 13 7 15 24 41 48 48 43 40 42 43 40 33 28 30 32 32 31 26 22 21 17 17 19 22 19 14 13 19 29 35 38 43 43 43 38
74 74 71 61 47 36 28 26 12 7 15 24 42 45 46 43 43 47 45 39 31 30 32 31 30 28 24 22 18 17 16 19 15 12 8 11 20 28 33 39 43 44 43 36
71 68 67 60 47 37 29 23 8 3 20 26 40 47 45 41 44 48 45 40 33 32 34 33 29 26 22 19 17 16 15 11 11 11 8 14 17 24 32 37 45 46 44 38
70 66 65 58 46 37 29 20 9 7 14 30 38 41 42 40 43 47 45 41 36 34 32 28 25 22 19 19 17 15 14 10 7 11 14 11 13 22 29 37 44 46 48 34
74 64 61 57 47 36 29 18 9 8 19 30 40 46 47 45 44 49 48 45 38 35 33 31 25 22 21 20 16 14 13 10 8 7 6 6 12 22 29 41 46 44 45 45
74 66 60 58 51 39 31 19 8 3 18 32 45 47 46 45 42 44 48 48 43 39 36 32 28 25 23 20 13 15 13 14 6 2 2 7 12 15 22 32 40 43 41 45
69 69 62 58 52 41 31 24 10 3 15 31 46 51 51 48 44 43 43 46 47 43 38 34 32 27 24 19 17 18 19 17 14 9 3 3 8 14 22 31 38 38 35 43
66 65 63 61 53 44 34 23 15 3 11 28 41 55 55 51 48 45 43 44 45 43 40 39 33 28 26 23 22 22 21 19 14 10 10 9 12 16 22 31 40 40 28 36
62 64 61 62 56 45 36 28 18 11 11 23 40 51 60 55 54 50 46 44 44 43 41 39 35 30 28 27 24 22 21 23 17 16 14 12 11 16 22 26 36 36 43 30
56 59 60 58 58 49 40 32 21 14 11 18 32 53 59 59 55 53 49 46 45 44 43 38 34 32 31 27 25 27 27 21 20 18 17 16 15 19 24 26 27 32 37 33
54 53 55 56 53 51 41 32 26 17 16 18 25 40 58 61 62 56 53 50 49 46 43 40 37 33 34 28 25 29 27 27 25 23 24 20 23 24 27 30 30 32 31 25
52 50 50 50 49 44 43 34 26 21 19 21 26 32 48 61 64 62 58 56 52 48 45 42 38 35 36 31 27 28 30 30 26 25 25 26 29 26 27 27 27 28 18 12
52 48 47 45 43 42 40 36 27 23 22 23 26 31 38 52 65 66 63 59 55 52 49 45 40 37 36 32 29 29 33 32 31 30 28 28 28 26 25 22 20 19 17 11
51 48 45 42 39 39 37 34 25 22 23 24 25 31 36 41 55 69 66 61 59 56 52 47 43 38 36 32 30 33 35 34 31 31 31 30 27 25 21 20 14 13 12 5
51 47 45 43 42 37 37 28 23 22 25 22 25 32 34 37 46 59 68 65 61 60 55 49 43 39 38 36 37 36 28 28 30 30 29 28 26 24 19 16 13 14 12 6
50 47 45 42 42 39 33 24 20 21 23 24 28 32 35 36 41 50 62 64 64 61 54 50 42 39 39 37 37 25 25 29 32 29 28 30 29 22 18 16 15 15 11 7
49 46 44 42 40 38 29 21 16 19 23 26 28 33 36 38 40 47 55 62 63 58 53 48 41 37 37 30 29 30 27 27 26 28 28 28 24 21 20 19 19 18 11 8
48 46 44 42 37 32 23 16 13 16 22 27 28 32 38 39 41 46 50 55 57 55 50 45 38 35 26 27 29 24 22 21 24 26 26 24 22 20 21 23 21 15 11 11
46 46 42 41 33 25 16 11 10 15 23 28 29 33 37 39 41 44 47 50 51 51 47 41 37 29 30 28 21 19 22 23 22 22 23 22 20 18 17 18 14 13 12 12
43 43 40 36 30 20 13 8 7 13 20 24 27 31 36 39 41 44 45 47 48 46 44 40 34 34 31 25 23 22 21 20 18 17 16 16 14 12 11 12 13 13 12 11
41 42 39 31 28 19 12 7 5 12 16 21 23 28 36 40 41 43 43 45 48 47 43 38 39 36 34 29 26 27 25 20 16 16 16 14 13 13 14 14 15 15 15 16
39 38 38 28 21 20 13 13 6 11 18 19 23 30 37 43 44 46 48 52 51 48 44 43 42 40 38 35 32 30 28 24 20 20 19 19 19 18 18 19 20 20 21 20
38 33 35 29 19 15 12 12 13 14 15 19 22 30 37 43 46 48 51 54 53 52 51 47 45 43 41 39 35 32 32 31 27 25 23 23 25 25 24 25 26 26 27 27
37 32 28 29 22 14 11 10 6 2 7 21 21 25 33 40 48 52 54 58 59 57 51 48 46 45 44 41 39 36 36 34 33 30 27 27 26 27 28 28 29 31 32 33
34 34 27 25 24 19 14 10 10 4 8 7 22 26 27 35 47 53 57 62 64 61 56 53 51 50 49 46 43 41 40 38 36 35 32 31 30 30 29 29 30 31 32 33
30 30 30 24 24 22 18 13 10 8 7 11 16 25 29 33 41 52 57 64 66 64 61 58 56 54 53 53 51 48 45 43 41 39 37 36 35 35 35 35 35 36 36 38

GFSNW_250_spd_012.txt.gz
Wind_Speed
91 86 86 80 67 57 45 29 27 15 10 8 16 24 35 43 45 39 32 27 30 31 26 23 23 26 30 33 33 33 33 32 25 17 14 15 19 24 28 29 35 39 41 40
88 83 77 77 65 56 45 28 30 18 11 12 25 32 40 43 39 34 31 32 32 29 27 26 27 28 29 29 29 30 26 21 17 12 12 15 19 18 18 25 31 37 43 46
86 80 72 72 62 54 43 30 26 18 10 14 29 38 41 41 35 29 33 34 31 27 24 26 27 27 30 33 32 26 21 16 12 9 11 15 11 13 19 21 30 36 44 42
85 80 71 63 58 53 43 35 26 18 10 10 25 35 38 34 30 32 37 34 28 25 24 23 27 33 34 31 27 22 16 13 9 10 7 10 5 13 14 23 37 37 41 47
84 81 72 58 54 50 45 34 26 17 9 7 12 21 23 26 29 38 37 31 27 26 27 28 30 31 29 26 22 18 15 9 9 6 4 4 5 13 14 30 35 39 41 48
79 79 73 62 51 48 46 36 26 15 7 12 20 23 26 28 32 38 37 32 30 32 32 31 29 27 25 22 19 17 11 9 7 6 3 6 6 11 18 25 37 35 41 45
74 74 72 64 51 44 43 38 26 13 3 18 23 28 30 30 34 39 39 36 33 32 31 30 29 26 22 20 17 13 12 17 9 9 7 3 5 13 19 24 33 34 44 43
69 68 68 63 56 43 37 36 27 17 7 18 28 30 33 32 34 42 42 38 35 32 31 30 28 23 21 21 18 13 13 12 9 9 7 9 9 14 20 26 33 40 42 44
66 65 62 60 56 49 37 32 28 18 12 18 30 37 37 37 37 42 45 43 39 36 34 32 29 24 24 23 20 15 16 13 13 5 6 11 10 15 16 27 34 38 42 40
62 63 59 54 54 52 45 32 29 22 15 16 28 35 43 48 45 43 45 45 44 41 38 35 31 27 28 25 22 17 16 18 17 15 10 12 16 16 19 25 31 38 38 39
61 60 56 52 49 50 48 42 33 29 20 17 24 39 48 50 48 46 44 45 46 46 44 39 34 31 31 27 23 20 17 16 19 17 15 13 15 18 21 25 29 29 35 31
60 58 53 49 46 46 44 43 39 35 29 20 23 31 47 54 54 51 48 46 46 46 47 43 37 35 31 27 24 19 18 19 19 19 20 18 19 20 24 26 26 26 22 22
59 57 52 46 43 41 40 39 40 37 37 29 24 29 38 52 55 53 51 49 48 46 45 42 39 38 33 30 27 23 20 22 20 21 21 23 23 22 24 26 24 24 22 21
58 57 52 46 42 40 37 39 38 38 40 35 27 30 35 41 56 58 55 53 49 48 46 42 41 38 34 29 28 28 26 25 22 23 25 26 25 23 24 25 24 22 22 22
59 57 53 47 43 40 39 38 35 37 38 34 28 29 32 37 48 64 61 58 53 50 46 45 44 39 36 31 32 34 27 24 25 25 27 26 24 24 25 24 22 21 21 20
58 59 53 47 43 41 41 35 30 33 31 29 27 28 31 35 41 55 67 62 58 54 50 48 45 41 38 37 36 32 30 26 29 32 32 27 22 24 23 23 21 18 20 19
57 59 53 47 43 42 41 30 28 25 23 22 23 28 29 31 37 45 58 66 64 60 56 52 47 44 42 40 32 27 30 31 37 41 32 26 26 28 25 22 17 17 22 19
56 58 53 47 43 40 33 31 26 22 20 17 22 26 28 29 33 39 46 59 67 63 60 55 52 47 44 37 34 34 39 40 37 31 29 27 26 27 23 21 18 19 22 19
55 56 51 47 43 36 31 30 22 17 14 16 21 24 27 28 30 35 40 47 59 66 63 59 55 51 47 41 39 38 34 34 32 34 30 26 25 23 23 23 22 21 20 17
53 52 49 43 40 34 29 26 18 15 12 13 19 24 26 26 30 34 37 42 48 56 63 62 57 54 49 44 40 36 33 32 34 31 25 22 21 22 21 19 17 18 17 15
48 48 47 39 35 30 26 22 16 12 5 7 16 23 24 26 31 35 37 40 43 47 53 58 58 54 48 42 37 34 34 30 29 24 19 21 22 18 16 17 14 13 14 13
45 45 44 36 30 29 24 17 15 9 3 8 14 21 23 27 32 34 37 39 41 44 47 50 48 47 44 39 36 36 33 28 23 20 21 20 16 14 15 15 12 11 12 13
42 42 40 32 26 25 25 17 11 11 9 12 17 21 23 26 30 33 36 38 40 42 45 42 44 43 41 38 37 38 31 28 25 23 21 20 18 16 13 13 14 15 15 17
39 38 36 30 23 20 23 19 15 14 13 13 18 21 25 28 31 33 35 39 40 41 41 41 42 43 43 40 40 38 32 29 29 28 26 24 22 21 19 18 18 18 19 21
37 35 31 30 24 20 18 19 13 10 10 12 21 21 23 26 31 34 37 39 43 43 42 41 45 46 43 42 43 41 38 34 33 32 32 30 29 27 26 25 24 24 25 26
36 33 29 28 25 21 21 18 16 8 10 12 12 21 23 24 28 35 37 41 44 46 46 47 49 49 44 46 47 45 43 40 39 36 37 36 34 33 31 30 29 29 28 29
34 32 28 26 26 23 22 22 20 14 10 9 18 20 27 28 28 31 39 44 46 48 51 54 54 52 49 49 50 49 48 46 44 42 41 40 38 37 36 35 34 34 34 34

GFSNW_250_spd_015.txt.gz
Wind_Speed
98 97 92 89 87 79 69 48 38 32 24 13 5 13 31 39 41 38 31 27 19 18 16 21 22 26 29 30 31 29 31 29 24 25 27 28 30 28 22 19 18 27 32 37
95 94 88 82 83 76 67 48 37 32 26 15 9 14 31 36 37 32 28 21 17 16 24 25 25 27 29 30 30 30 27 25 26 26 27 25 21 14 13 17 20 25 30 40
93 90 87 75 75 73 64 49 39 31 28 17 6 15 30 36 31 26 23 19 19 27 29 29 28 27 26 27 26 28 28 25 28 26 24 17 12 11 14 15 14 25 30 34
89 87 85 75 68 70 62 52 38 31 28 22 9 12 19 25 24 22 20 21 29 30 29 27 27 27 26 26 27 28 28 34 27 22 18 15 14 16 9 9 15 20 32 37
84 83 81 76 67 61 58 50 37 29 23 18 18 19 17 16 16 15 23 28 27 28 27 26 24 23 24 29 33 33 32 25 22 18 16 16 18 15 8 15 17 25 35 46
79 77 76 72 65 57 49 45 38 25 17 10 7 11 15 15 17 25 29 29 26 24 22 20 23 26 30 35 33 28 24 21 19 20 20 19 17 11 12 16 20 27 39 42
73 72 70 70 62 54 45 38 31 23 12 3 4 7 12 13 21 28 28 27 25 24 23 24 27 31 32 30 26 24 22 19 17 19 18 16 10 9 11 17 21 27 36 39
70 66 66 65 63 55 45 34 30 23 14 5 12 15 17 16 22 28 29 26 26 26 28 32 32 31 27 25 24 22 21 23 19 18 17 12 10 9 12 20 23 30 32 36
65 64 64 63 60 56 52 39 23 21 14 11 14 21 25 24 23 30 31 30 28 29 31 32 31 28 26 24 25 21 23 23 19 15 14 9 9 8 15 18 23 28 34 33
61 61 61 60 59 56 52 50 38 19 17 11 16 22 32 32 32 34 37 36 34 33 33 32 30 27 23 23 25 20 21 19 13 14 10 10 10 11 15 18 23 26 27 31
58 57 58 57 58 54 50 49 48 41 20 16 13 20 28 41 38 36 39 42 40 38 37 35 32 29 26 24 27 23 19 15 12 12 11 13 13 14 13 16 20 24 26 29
56 54 56 55 54 53 50 46 46 45 43 27 19 17 24 33 49 47 43 45 44 42 40 38 37 33 30 26 28 26 21 18 14 12 13 16 16 15 16 17 21 25 26 26
55 55 56 56 53 47 46 47 43 44 45 38 32 20 22 30 39 51 51 46 48 48 46 43 40 37 33 30 30 29 25 20 14 10 14 17 18 19 20 20 23 24 25 24
53 55 57 57 53 46 45 44 44 43 45 42 40 27 24 27 34 44 54 51 49 49 50 48 45 42 38 33 34 34 27 22 15 12 14 16 20 20 20 21 22 24 23 22
52 55 57 58 53 48 47 44 44 41 42 43 41 34 26 27 32 37 52 55 53 51 48 48 47 45 42 38 39 33 26 22 22 18 18 18 19 21 19 19 21 24 25 21
53 55 58 57 53 50 48 44 42 39 38 39 37 33 26 28 31 35 43 53 56 55 51 48 46 44 43 43 39 28 26 23 24 27 23 23 23 22 22 21 22 24 22 19
52 55 57 55 52 50 47 41 40 39 35 29 25 23 24 27 30 34 39 51 56 58 55 52 48 45 44 43 38 34 32 29 29 28 25 23 23 22 23 25 24 23 16 18
52 55 57 54 52 49 43 38 38 34 25 20 18 18 22 22 26 31 35 44 56 62 61 56 51 46 44 45 42 37 35 34 30 27 28 29 32 31 29 28 26 20 17 18
51 53 56 53 50 45 40 37 33 25 20 17 13 14 16 19 24 28 31 38 49 61 63 59 53 48 47 46 43 39 38 34 30 30 32 33 33 32 31 28 24 20 18 20
51 50 54 52 48 41 36 35 29 23 19 10 9 12 14 18 22 24 28 34 42 52 61 61 56 53 51 49 45 42 40 36 34 32 31 33 32 30 26 24 22 19 18 17
49 47 51 50 44 38 34 31 25 20 14 9 7 9 13 16 19 21 24 29 36 43 51 57 61 59 55 51 48 46 42 39 37 34 32 32 30 27 24 22 20 19 17 15
46 44 47 46 41 34 31 29 20 16 13 9 6 7 12 15 19 21 22 26 30 34 40 47 57 59 60 57 53 50 45 41 38 32 31 30 30 24 20 18 19 19 15 14
45 40 42 42 38 30 28 27 18 17 14 12 7 8 11 16 18 19 22 24 27 28 34 39 47 53 58 58 56 52 48 45 39 31 31 32 26 21 20 18 16 17 16 17
44 37 40 37 36 27 25 23 17 14 16 12 8 10 12 17 18 20 22 24 25 26 29 34 37 41 47 51 53 52 47 44 37 32 34 31 25 22 20 19 17 18 18 19
39 36 38 35 32 27 22 19 17 12 12 14 12 13 17 16 20 20 23 25 26 28 29 32 35 37 40 43 45 45 44 42 37 35 36 33 28 27 25 23 24 23 23 24
36 35 36 34 30 25 22 19 16 12 12 12 12 12 17 20 21 22 24 28 28 29 32 34 37 39 41 42 43 44 44 43 40 39 37 34 33 31 31 30 30 29 29 29
36 35 35 32 29 26 23 21 18 14 13 14 14 13 18 20 25 27 29 33 29 31 33 37 40 42 43 44 45 46 45 45 43 44 41 38 37 35 35 35 36 35 34 34

GFSNW_250_spd_018.txt.gz
Wind_Speed
109 104 95 92 91 88 79 68 59 43 35 37 25 10 22 29 30 31 28 24 18 15 17 18 22 27 29 32 37 42 42 44 45 48 48 48 46 46 40 37 34 33 36 41
103 99 90 86 84 82 75 67 57 43 34 33 20 16 21 23 26 25 22 19 13 11 14 15 19 22 24 27 29 33 38 42 44 42 41 38 32 34 32 32 31 31 31 33
95 94 87 81 78 76 72 66 57 47 33 29 19 16 20 19 21 19 18 14 11 12 18 23 22 24 26 27 28 28 29 30 32 34 33 31 32 30 29 26 24 24 27 30
88 87 84 78 75 72 68 63 54 43 32 25 18 13 15 17 16 15 15 11 11 15 21 26 27 29 30 30 31 32 30 29 29 29 30 29 29 28 21 22 21 24 23 24
84 80 76 74 70 64 61 56 48 41 27 20 15 11 11 14 14 12 11 12 14 21 26 28 29 29 30 32 31 30 29 28 29 30 29 29 27 24 23 22 23 21 26 29
79 75 71 69 64 59 53 52 45 37 26 13 8 6 6 7 7 10 13 15 21 24 25 27 27 27 25 26 26 27 28 32 34 32 29 25 25 25 28 27 18 19 20 30
74 70 68 66 63 57 49 42 41 34 29 15 10 4 8 8 10 14 17 21 22 22 22 22 22 23 24 26 27 30 35 36 32 28 26 26 25 27 25 19 15 18 20 29
71 66 64 63 63 57 48 41 34 32 26 23 13 12 14 13 11 16 20 22 21 20 20 21 22 23 24 26 32 35 33 28 26 24 25 25 24 20 21 17 15 17 22 26
67 62 61 60 59 56 53 42 35 26 28 23 22 19 20 21 18 20 22 25 23 22 23 25 27 28 31 36 33 31 27 25 24 26 27 27 24 20 19 17 15 18 24 26
65 60 59 57 56 56 54 49 42 32 21 25 25 22 22 26 26 25 25 27 28 27 28 28 29 35 35 32 30 28 25 27 26 22 21 22 21 19 16 15 15 18 23 27
63 60 58 55 56 53 52 51 46 44 36 20 24 27 25 25 31 31 31 33 32 31 32 33 34 36 34 33 30 27 25 28 24 19 22 19 19 17 15 17 14 16 22 26
61 58 56 54 56 52 53 49 48 46 45 37 26 24 29 27 28 35 37 35 38 37 37 38 38 38 35 33 32 31 27 26 26 18 20 17 17 14 14 15 15 17 20 24
60 55 53 53 55 51 49 49 45 45 48 47 36 30 21 33 30 30 40 42 41 43 43 43 43 41 39 35 32 33 32 27 22 21 18 15 12 12 12 15 17 19 20 22
58 56 51 52 55 51 49 49 47 45 44 45 43 36 28 28 33 33 34 44 48 48 50 48 47 45 43 40 38 32 30 30 24 20 20 13 13 12 13 13 17 18 22 22
57 55 52 52 56 51 49 47 48 44 43 40 41 37 35 27 27 34 37 41 50 52 53 53 51 49 46 44 39 31 32 33 31 27 23 18 17 13 13 14 18 21 23 24
55 56 53 53 57 52 51 49 47 42 40 37 35 34 31 31 30 35 41 41 48 54 56 56 55 52 49 44 38 36 33 36 36 32 30 24 20 17 17 17 20 23 25 26
54 56 54 53 57 52 52 49 47 39 37 32 28 27 26 28 29 36 41 43 45 51 57 56 54 55 51 46 43 40 38 37 37 31 26 24 23 21 19 23 24 23 25 26
55 56 54 52 56 51 52 51 44 36 30 28 24 20 19 23 28 33 39 41 44 49 58 56 50 51 50 50 44 42 40 38 36 31 27 24 22 22 26 27 28 26 24 23
56 56 54 52 55 50 50 50 44 35 27 26 22 15 14 19 23 28 32 35 40 45 55 55 53 52 51 45 43 41 40 39 38 34 32 29 26 24 27 30 30 27 24 22
53 53 53 51 52 48 48 46 39 34 29 25 19 12 14 17 21 24 29 33 37 40 45 53 55 55 51 47 44 43 41 41 41 36 33 30 28 28 31 32 31 28 24 23
53 52 54 48 49 45 44 39 34 29 27 23 15 10 12 14 18 22 26 29 31 34 39 47 56 57 54 51 48 45 43 43 42 39 36 34 32 32 33 31 26 24 24 24
54 49 48 47 48 44 41 34 29 26 23 17 13 11 10 15 16 17 20 22 24 27 32 40 54 60 58 54 52 49 47 44 43 41 40 38 35 34 33 27 25 24 22 21
50 48 47 46 44 42 39 31 27 25 21 17 12 11 10 11 12 13 14 15 18 22 27 35 46 57 62 60 57 54 52 48 45 45 43 39 36 36 33 26 26 23 22 21
50 47 45 42 40 38 34 30 25 23 21 17 12 11 10 11 12 13 13 13 14 17 23 29 37 46 57 63 64 60 56 52 49 48 47 44 39 38 33 27 24 23 22 20
48 45 44 41 39 35 30 28 25 22 20 16 14 12 10 12 13 15 15 13 14 15 20 26 31 38 47 55 60 62 63 61 58 55 53 49 44 40 34 31 27 25 25 25
46 43 42 38 38 34 28 27 24 23 22 18 14 14 12 12 15 17 17 18 17 17 19 23 28 34 39 43 49 53 58 60 60 59 56 53 48 41 37 36 32 29 28 29
44 42 39 37 36 32 28 27 25 22 22 19 18 16 15 14 15 19 21 19 16 20 22 21 25 31 36 39 41 44 48 51 53 52 51 49 46 42 39 40 38 37 35 34

GFSNW_250_spd_021.txt.gz
Wind_Speed
106 105 102 93 88 82 77 72 65 56 43 32 23 19 20 22 22 23 20 17 13 10 10 10 15 24 29 31 34 40 42 45 48 53 56 56 57 57 59 58 58 59 62 67
102 100 94 88 84 79 72 66 60 53 40 31 24 20 17 18 18 18 18 15 14 14 18 17 17 19 24 28 31 35 36 35 34 36 42 48 53 51 48 46 49 49 50 51
97 93 86 83 77 75 68 62 57 48 42 29 22 15 15 13 15 13 13 12 8 10 13 16 19 22 24 26 28 32 37 39 41 42 42 43 40 40 40 40 40 35 37 42
92 85 80 77 72 67 65 58 53 47 37 30 20 14 9 9 8 8 6 5 5 5 9 17 22 23 26 29 31 32 34 38 39 38 37 36 35 35 34 32 31 33 39 43
87 79 75 72 68 61 59 54 51 45 36 28 21 11 7 4 3 3 5 6 6 8 11 17 22 22 23 25 27 28 30 31 32 33 31 29 30 30 31 31 32 38 38 37
81 75 71 68 65 58 53 52 47 43 37 26 17 12 7 3 4 6 9 11 11 10 14 19 21 22 23 24 25 28 29 29 28 27 27 30 30 30 31 35 38 36 29 25
75 70 67 66 64 56 49 44 44 40 33 28 20 15 12 12 10 12 13 14 13 12 15 18 18 19 20 21 21 25 28 28 28 28 30 28 29 32 35 36 32 23 22 23
71 66 64 62 61 56 47 41 36 38 35 27 23 21 18 17 19 17 16 15 15 15 16 17 18 20 21 22 23 25 27 28 29 28 26 29 34 34 33 30 23 24 21 23
67 63 61 59 57 55 49 43 35 31 31 32 25 22 23 23 25 22 22 18 19 18 19 21 21 24 25 26 29 31 31 30 27 28 32 33 32 29 26 27 24 22 22 24
65 61 58 58 55 54 50 46 39 32 27 27 29 24 22 24 24 27 27 24 23 24 23 24 25 26 27 28 31 32 31 29 28 30 30 29 28 22 24 23 22 21 22 22
62 59 55 56 53 54 50 47 42 38 34 26 29 28 27 23 24 25 30 30 29 28 28 26 26 28 30 33 34 33 33 31 29 27 27 27 23 22 24 22 23 22 21 21
62 59 55 55 53 53 52 46 43 41 42 38 32 33 28 25 26 26 28 34 33 32 32 31 30 33 35 35 35 33 32 27 26 26 24 23 21 25 25 24 23 19 18 19
61 60 54 53 52 53 53 48 43 41 43 44 42 35 31 29 29 25 28 32 36 37 36 36 36 37 38 38 35 32 31 27 26 27 24 21 21 20 22 23 23 20 18 18
63 60 55 52 52 53 53 49 43 42 41 41 49 43 35 31 29 32 31 30 35 39 40 41 41 42 43 41 38 32 31 32 28 30 29 23 20 23 23 21 19 17 18 18
61 58 54 50 51 52 53 49 44 43 42 40 46 44 39 33 30 31 37 32 35 37 43 45 45 45 45 44 40 36 36 35 34 31 29 30 28 27 23 21 20 19 20 22
59 56 54 50 51 51 53 48 45 44 40 37 39 40 37 33 34 32 37 38 36 38 40 49 49 49 48 47 43 41 39 36 36 34 32 32 23 22 20 20 19 19 19 20
57 54 53 51 50 50 52 47 46 45 40 37 37 33 30 31 33 36 38 39 41 39 40 46 52 52 52 50 46 46 44 40 36 33 35 35 28 30 29 26 26 26 24 22
55 53 52 50 49 49 50 47 47 43 38 35 33 29 24 24 27 33 35 37 44 41 41 42 50 55 56 54 49 50 48 43 39 36 33 36 34 33 31 29 27 27 24 24
54 51 50 48 48 50 48 45 49 44 37 34 28 21 19 18 21 28 31 37 41 43 43 42 46 57 61 57 55 52 51 47 43 40 36 35 38 35 31 27 26 26 25 27
52 49 48 46 49 47 46 45 45 45 40 35 25 19 17 13 15 20 24 29 35 39 41 43 46 57 63 57 55 56 54 50 47 44 39 37 38 38 35 31 30 30 30 31
48 48 45 47 45 47 46 43 42 39 36 31 24 19 16 13 12 16 20 24 26 30 35 38 44 53 60 56 55 56 55 52 49 46 42 38 40 39 35 33 33 32 31 31
48 48 44 46 46 46 44 39 38 37 33 27 22 18 16 13 11 14 17 20 22 25 28 33 40 46 58 58 55 54 52 50 46 43 41 41 42 41 38 37 36 34 32 29
48 47 47 44 44 44 41 37 34 33 28 24 21 18 16 13 11 13 15 17 21 24 28 31 34 40 52 58 57 56 52 49 46 43 44 43 43 43 43 40 39 36 32 29
48 47 47 44 43 41 39 34 31 30 27 21 19 18 15 13 12 14 18 20 22 25 28 30 33 37 45 57 60 60 57 52 48 47 47 45 45 45 43 43 42 37 33 31
47 46 46 46 40 37 38 34 29 29 26 21 19 17 16 13 13 14 18 23 23 24 26 27 29 33 39 48 59 61 59 57 55 53 52 50 50 48 47 46 43 39 36 32
44 45 47 45 39 36 36 33 29 28 27 21 21 19 17 16 14 13 15 19 21 20 21 23 25 29 33 40 49 59 63 64 60 58 57 55 54 53 50 48 46 45 42 37
44 45 44 44 38 36 36 34 30 29 28 22 21 22 17 18 18 15 11 11 13 18 21 22 22 24 28 34 41 49 56 62 65 65 65 63 60 59 59 56 53 51 49 45

GFSNW_250_spd_024.txt.gz
Wind_Speed
101 101 94 89 85 77 72 67 63 58 49 41 36 28 19 16 17 16 15 14 11 10 10 9 12 19 24 28 33 38 43 46 48 53 67 77 82 78 76 72 64 66 66 68
98 95 87 83 81 74 68 63 58 51 46 37 33 26 19 14 15 14 13 10 7 7 10 13 16 18 20 23 27 32 36 40 42 43 46 53 62 73 79 73 69 71 69 72
95 88 83 78 75 70 65 60 54 48 43 36 29 25 17 13 10 10 9 7 4 2 0 4 14 19 22 23 25 27 32 35 39 42 41 42 44 48 54 58 56 52 52 49
89 82 77 73 70 65 63 57 51 45 39 34 26 21 16 10 5 3 1 2 1 2 6 9 12 14 20 25 27 28 31 33 34 33 34 37 39 39 41 41 39 36 39 41
82 76 71 68 65 60 59 56 49 44 40 33 27 18 12 10 7 7 7 6 7 8 8 8 10 16 17 19 21 25 30 32 35 36 35 34 34 35 36 35 33 34 35 38
76 73 67 63 60 56 53 52 49 43 38 33 27 22 17 11 11 11 11 12 12 13 11 8 10 11 14 18 22 26 28 31 35 36 34 34 33 35 35 33 31 29 35 35
72 69 65 60 57 53 50 46 46 44 37 33 28 24 20 17 15 16 16 15 15 13 10 9 11 13 13 15 16 19 23 27 30 31 33 34 33 33 31 29 29 31 31 28
70 66 63 58 54 54 48 46 41 39 39 36 29 24 22 20 17 19 21 20 16 13 11 12 13 13 13 13 15 17 20 22 23 24 27 28 28 27 27 27 28 28 26 27
69 66 62 58 53 52 49 47 42 36 32 32 35 30 24 22 21 18 22 25 21 17 13 14 15 16 15 15 17 19 21 24 24 24 25 26 25 27 26 26 28 28 26 24
70 65 61 56 53 50 48 47 43 37 32 30 29 31 31 27 23 21 21 23 25 22 20 19 20 19 20 22 22 24 26 28 28 27 27 25 26 26 25 28 30 28 27 25
69 63 59 54 52 49 47 46 44 40 33 27 30 30 29 29 28 24 23 23 28 26 24 24 24 24 24 26 27 28 29 31 30 27 27 26 27 27 30 29 27 26 24 24
66 62 58 52 50 48 46 44 44 40 38 30 29 31 27 29 28 30 27 27 29 29 29 28 28 28 26 26 28 30 33 32 28 30 27 29 28 28 25 24 25 23 23 25
64 60 56 52 47 46 44 44 43 39 37 36 36 31 30 29 28 28 33 34 30 33 31 32 30 32 27 26 27 28 28 31 31 30 28 29 28 26 25 27 28 27 26 28
61 58 55 51 47 45 44 44 42 38 33 35 43 38 37 33 31 28 36 36 35 32 34 34 34 34 31 30 30 32 32 33 31 29 29 30 29 29 26 23 25 27 26 27
59 58 54 51 47 46 45 45 41 37 35 35 38 39 42 41 36 31 38 37 38 34 35 37 36 37 37 34 36 38 38 35 33 28 29 30 29 28 26 26 28 29 28 28
59 56 53 49 44 46 45 43 41 39 36 33 34 36 41 42 35 33 31 37 38 35 35 38 37 40 40 40 41 44 43 38 36 34 32 35 30 30 28 28 28 28 26 22
57 52 50 47 45 44 44 42 42 42 34 32 34 34 37 35 30 30 30 31 37 36 36 38 39 38 43 45 46 50 48 43 39 38 36 36 32 30 31 29 28 27 27 26
53 49 47 44 44 40 43 41 44 39 38 33 32 30 32 31 29 27 28 32 36 36 34 38 40 40 46 50 50 53 54 50 45 41 38 38 37 34 35 34 32 31 30 29
50 47 45 44 42 39 40 41 42 38 38 34 33 30 28 25 22 20 23 26 28 32 37 37 39 43 45 55 52 54 56 54 50 45 41 38 35 34 36 37 35 33 32 28
49 46 45 42 40 37 42 42 40 40 35 32 30 28 26 22 18 15 16 19 21 28 36 39 39 45 48 49 55 56 57 57 54 50 47 43 39 37 34 32 35 36 33 32
47 42 41 43 40 40 41 42 37 37 35 31 28 25 22 19 15 13 14 16 22 29 31 34 38 44 46 43 50 57 57 58 57 54 51 48 44 42 40 38 39 40 39 36
46 40 41 40 40 41 40 39 35 34 32 31 27 23 19 18 15 13 13 15 17 22 27 34 38 40 42 46 46 52 59 60 60 57 54 51 49 47 45 43 41 42 39 36
43 41 41 40 41 41 38 36 34 31 31 28 25 21 18 15 14 13 13 16 19 22 27 30 32 35 40 44 47 48 57 62 62 59 57 55 53 51 49 48 44 41 40 38
43 43 42 41 42 40 36 34 34 31 28 26 23 19 16 15 14 13 13 17 19 22 22 23 26 28 32 36 41 46 53 60 59 59 58 54 54 55 55 51 45 42 42 40
42 44 44 45 43 39 36 34 33 31 26 25 23 19 16 15 14 15 15 19 21 23 24 24 25 27 29 33 37 40 48 57 59 58 56 55 55 54 53 48 43 44 42 41
45 45 45 44 41 37 35 35 33 31 27 25 23 20 18 15 17 15 16 17 20 23 23 24 25 26 28 31 36 40 45 54 59 59 58 57 55 54 52 50 49 48 47 44
45 44 43 43 39 37 36 35 32 30 28 25 24 22 20 19 19 18 16 13 14 22 25 27 28 27 28 29 32 37 42 47 57 62 62 62 60 59 58 55 55 53 52 51

GFSNW_250_spd_027.txt.gz
Wind_Speed
90 84 79 77 75 70 66 61 56 54 52 46 40 35 30 24 19 16 14 13 10 8 9 11 15 19 24 28 35 43 47 47 47 51 52 56 60 58 58 58 60 61 60 59
86 81 78 75 72 69 64 58 53 50 47 43 37 32 27 23 19 17 15 13 10 7 3 3 10 14 18 24 29 35 39 43 47 49 51 52 55 57 61 61 61 57 57 55
84 80 77 74 70 67 62 56 50 46 42 40 34 27 22 18 16 15 15 13 10 6 5 3 1 10 16 20 24 29 34 38 41 44 46 46 48 50 57 63 62 62 61 55
82 79 76 72 70 65 60 56 49 43 40 35 31 28 21 16 13 11 11 10 10 8 8 3 2 4 10 16 21 25 29 32 35 36 39 40 40 41 45 50 56 62 65 59
80 77 73 71 69 64 59 53 49 44 38 34 31 27 19 15 13 10 9 10 10 9 10 7 7 9 11 15 17 19 22 26 32 37 37 38 38 37 36 40 41 47 52 52
78 76 73 70 66 60 56 53 47 43 39 35 29 27 24 19 15 13 13 13 13 12 11 7 5 9 13 15 18 20 21 23 27 29 33 35 37 37 38 38 38 38 38 38
78 75 71 67 64 58 54 49 46 42 39 33 30 26 23 22 17 15 14 14 13 14 15 7 4 5 8 15 21 21 22 25 27 29 31 32 32 31 31 31 32 34 34 37
76 72 68 64 61 56 52 46 43 40 36 34 31 28 23 21 18 17 14 15 12 10 11 11 6 7 7 9 11 15 20 25 26 28 31 31 34 34 34 33 34 34 36 36
75 68 65 62 57 54 50 44 41 38 34 31 28 27 26 20 19 18 17 15 15 12 10 10 10 10 10 12 13 13 13 13 17 23 27 32 34 34 33 32 33 34 33 27
75 67 62 59 54 51 48 44 40 36 34 30 27 24 25 25 21 17 18 20 20 18 15 12 11 14 15 16 15 15 17 18 18 17 21 25 29 30 29 30 30 27 26 27
70 66 60 56 52 49 46 44 40 36 32 32 26 23 20 21 25 24 20 19 21 23 22 19 17 18 20 20 19 20 21 22 24 26 25 25 26 25 27 27 26 25 26 26
67 63 60 56 51 48 46 43 39 37 34 30 27 24 23 22 21 24 25 27 22 20 26 26 23 23 24 25 24 24 25 27 29 31 29 29 27 28 28 28 26 26 27 25
61 61 60 56 50 48 46 42 38 37 36 31 24 23 26 26 24 23 28 32 32 28 26 29 29 28 29 29 27 26 28 31 34 33 31 32 32 33 31 29 28 24 25 25
59 59 58 57 51 47 45 40 37 38 36 34 30 28 26 27 28 27 31 34 33 36 32 29 32 32 33 33 30 28 27 30 32 35 37 35 34 33 30 27 25 26 27 27
59 57 55 55 50 47 42 40 39 36 33 32 32 31 30 30 32 33 33 36 36 37 36 32 34 35 34 36 35 32 28 29 29 30 36 36 33 32 32 30 29 29 29 28
59 56 52 51 47 45 39 37 37 37 35 31 32 30 30 31 34 36 39 38 34 37 36 36 36 39 36 38 42 36 32 31 32 35 37 33 32 32 33 30 29 27 27 27
54 48 47 47 44 41 39 37 36 36 36 35 31 32 33 32 34 36 35 32 35 34 34 38 38 37 39 41 46 43 36 36 39 40 39 35 33 33 33 28 29 29 28 29
47 45 43 44 43 39 40 37 36 35 39 36 31 30 30 31 30 32 30 27 28 31 29 38 38 37 41 44 46 47 44 42 43 44 41 38 35 32 34 33 31 31 32 31
48 44 42 43 41 39 40 38 35 36 38 36 30 29 27 26 26 26 24 23 25 28 34 33 35 40 43 48 42 49 51 48 46 48 45 40 38 37 35 37 36 35 34 32
47 44 42 41 39 37 38 37 36 38 36 31 28 28 26 24 23 22 18 17 17 20 28 36 40 41 44 46 43 47 54 52 49 50 50 44 40 39 39 38 39 38 37 36
45 44 40 41 39 36 38 37 38 35 33 29 27 25 23 21 22 18 14 14 15 19 24 32 38 42 38 37 43 46 50 56 53 52 54 51 46 43 42 41 39 36 34 32
43 44 42 40 38 37 36 36 38 32 30 28 25 26 21 19 18 15 13 12 15 20 24 32 39 40 41 43 44 47 48 54 58 54 54 55 53 49 46 45 44 41 39 37
42 45 42 40 39 39 34 35 37 31 29 27 23 20 23 20 17 15 13 12 13 19 25 29 28 32 39 39 41 44 48 48 55 59 56 55 55 53 53 51 50 49 45 42
43 43 44 43 42 40 38 34 34 32 28 25 23 20 19 20 20 17 15 12 12 15 19 23 26 29 32 36 40 43 47 50 46 53 59 59 56 55 56 55 55 53 48 47
43 42 44 45 43 40 40 35 34 32 29 26 23 21 20 20 19 17 17 14 13 13 15 17 19 22 25 29 32 36 42 46 49 48 52 62 60 60 60 58 56 52 53 53
44 44 43 45 46 42 40 37 34 30 29 27 24 22 22 21 22 20 17 16 13 16 18 18 19 20 22 25 27 29 32 36 43 48 52 54 62 64 64 63 61 58 56 55
43 43 43 46 45 43 40 37 33 30 30 29 26 24 23 25 24 23 20 16 16 18 19 21 21 21 21 22 25 29 31 33 36 39 46 51 57 64 64 64 63 61 60 58

GFSNW_250_spd_030.txt.gz
Wind_Speed
97 92 84 79 75 73 68 64 59 53 49 46 41 36 33 27 23 20 16 13 9 4 4 11 16 23 26 29 30 33 35 34 36 36 39 46 49 59 64 65 71 72 75 76
96 90 82 78 74 70 67 60 55 48 45 42 38 33 28 24 19 17 16 13 9 6 4 3 8 15 21 26 29 33 34 36 33 38 39 41 47 50 54 60 65 67 66 67
96 86 79 75 74 69 64 59 54 45 40 36 34 31 27 22 19 15 14 13 11 9 7 2 3 6 13 20 24 30 34 35 34 33 38 42 45 50 53 54 56 58 59 60
93 84 77 72 72 69 64 58 52 45 36 33 31 28 24 20 15 13 11 10 9 9 9 5 2 4 7 12 18 23 27 31 32 33 35 39 43 47 52 54 52 55 52 51
87 80 74 72 68 68 62 57 52 45 36 30 27 26 24 20 16 12 9 8 7 7 8 8 5 6 7 10 14 19 23 27 32 34 35 36 39 42 47 51 54 52 54 53
83 79 73 69 65 64 59 56 50 45 39 31 26 23 21 17 15 12 10 9 7 5 6 3 6 9 10 10 11 14 19 25 29 31 33 34 34 37 37 37 36 40 43 48
78 73 69 66 64 61 57 53 48 44 39 36 30 23 21 18 14 12 10 9 9 7 2 3 2 8 11 13 13 14 15 17 21 29 33 35 36 35 34 34 33 33 34 34
73 69 66 65 62 58 54 50 47 43 42 32 30 27 23 20 18 15 12 10 10 9 8 4 2 5 8 11 15 18 18 17 19 22 28 33 36 37 38 38 39 42 42 42
70 64 63 63 58 55 53 48 46 41 42 37 28 26 23 23 21 19 16 12 10 10 11 11 8 7 10 12 14 16 19 22 22 20 22 25 31 33 33 33 34 35 35 34
65 63 60 61 58 55 53 48 44 40 39 40 32 26 23 22 25 21 18 17 14 12 11 14 14 13 13 14 14 15 16 18 20 24 28 29 30 31 33 35 38 37 37 37
65 64 59 58 56 54 52 48 45 40 40 39 35 29 24 19 24 24 22 21 18 18 16 15 17 20 19 19 18 18 18 19 20 23 23 27 33 36 38 38 38 38 37 38
65 64 60 59 57 55 51 48 45 41 39 39 36 31 27 22 24 25 26 26 22 20 20 21 18 24 26 25 25 24 23 23 23 22 25 27 27 30 37 40 39 38 37 35
67 63 60 59 55 53 50 47 43 39 39 39 35 31 28 27 27 25 29 29 28 26 25 24 25 25 29 34 33 30 29 28 28 27 26 28 29 30 30 32 34 35 36 35
69 63 60 58 54 50 49 45 41 38 39 38 32 31 31 32 29 28 31 31 30 30 30 29 28 30 31 32 38 37 36 33 31 32 30 30 31 30 31 33 35 35 36 35
70 64 60 58 51 45 41 43 39 36 39 36 33 33 30 31 32 32 33 34 34 34 33 31 34 33 34 35 35 44 43 40 37 33 34 36 34 36 38 34 37 40 38 35
69 65 59 55 48 42 39 42 38 36 37 39 32 31 31 33 31 31 34 37 36 36 38 36 36 38 37 35 40 42 46 45 41 35 33 36 40 41 41 36 38 39 37 35
69 65 60 54 49 42 38 39 38 36 37 33 31 34 33 32 33 35 35 35 38 36 33 39 36 44 39 38 45 40 43 48 45 38 32 34 39 42 41 39 38 37 35 33
69 62 59 56 49 42 38 39 38 35 32 32 33 36 34 30 34 34 35 36 35 34 33 39 38 42 42 45 47 41 42 47 48 42 33 33 36 39 40 40 38 37 36 35
68 61 55 53 48 43 39 38 37 36 31 34 33 35 33 28 32 32 32 33 30 27 29 35 38 43 45 48 43 41 45 45 49 45 39 39 40 41 41 40 39 38 37 37
66 61 56 52 46 43 39 38 35 35 32 34 34 32 31 29 30 27 27 26 24 23 27 33 37 40 46 42 39 41 45 45 49 49 45 44 45 45 43 41 40 41 39 37
63 56 53 50 46 41 40 37 35 33 33 35 32 30 29 26 26 25 22 21 19 20 22 25 32 38 39 38 39 41 44 46 46 53 51 48 49 49 47 44 42 41 41 41
59 53 50 46 43 41 39 36 35 31 33 34 32 29 26 24 23 22 20 19 16 18 21 25 27 31 35 36 35 38 41 45 46 49 54 52 51 52 51 48 46 44 43 42
53 48 46 42 42 41 40 37 35 32 33 32 29 28 27 23 21 20 20 18 16 17 20 22 26 30 34 39 41 41 42 44 46 47 50 55 54 54 54 52 51 48 46 44
51 46 43 42 42 41 41 37 34 33 34 32 28 27 26 25 22 18 18 18 16 15 16 20 25 31 35 38 40 42 42 43 43 46 48 50 57 56 56 57 57 55 52 48
47 44 41 42 41 42 41 39 34 32 34 32 28 28 25 25 25 21 19 18 15 16 18 17 18 21 25 30 35 38 38 37 40 44 47 50 51 58 59 58 59 59 57 55
46 44 43 43 42 43 42 40 36 33 33 33 30 28 26 26 26 24 22 20 19 18 17 18 18 20 22 24 26 29 32 35 39 43 45 48 51 51 59 60 61 61 61 61
48 46 44 43 43 43 43 41 38 36 35 34 31 31 29 29 27 28 24 23 21 19 19 19 18 18 18 18 20 21 24 27 31 36 42 46 49 52 52 57 64 65 64 63

GFSNW_250_spd_033.txt.gz
Wind_Speed
102 102 97 88 82 77 72 67 63 58 52 45 42 43 36 31 25 19 15 11 8 4 3 9 14 18 21 24 26 28 28 28 31 32 33 41 49 54 62 69 75 80 82 84
104 98 92 81 79 74 69 66 62 57 51 43 37 37 34 29 25 20 15 12 8 4 1 7 12 15 19 22 26 28 28 29 30 32 34 36 39 47 55 62 67 70 70 73
103 96 91 81 74 72 66 65 60 54 49 42 36 33 32 26 21 16 11 7 6 5 2 2 6 10 14 17 21 23 25 27 29 32 37 36 37 36 40 46 58 63 60 59
100 94 85 79 70 69 65 62 59 49 46 42 35 30 29 27 22 18 14 10 5 4 5 4 5 8 11 14 18 21 23 25 26 28 36 40 43 45 43 47 48 49 53 55
99 93 84 77 68 67 64 59 56 50 43 41 35 30 27 27 22 18 16 14 12 10 8 7 7 9 9 12 13 15 18 21 24 27 30 37 39 41 45 44 42 43 44 53
94 90 82 75 67 64 61 58 54 51 44 40 36 31 27 26 23 18 16 15 14 13 12 9 9 10 12 12 14 14 16 19 22 26 29 30 34 39 40 44 49 51 51 49
90 86 78 69 62 60 59 55 53 51 47 41 38 33 27 25 24 20 18 16 16 14 15 13 10 10 11 13 13 14 13 15 20 22 26 28 30 31 33 37 40 47 50 54
95 85 74 70 61 58 57 53 50 49 48 42 38 36 31 24 22 22 20 18 18 17 15 14 13 12 12 13 15 15 14 15 16 20 24 26 27 26 26 30 33 37 42 46
88 82 72 65 62 58 57 53 50 47 45 42 39 37 32 28 25 22 21 20 19 18 17 17 17 15 16 14 15 16 17 16 18 18 20 25 29 31 33 32 31 32 32 33
84 76 71 63 60 56 53 53 50 47 45 42 39 39 33 28 28 26 24 21 19 20 19 19 20 20 18 18 17 16 17 20 21 20 21 23 26 34 37 37 40 41 40 39
85 76 72 64 58 54 55 52 48 47 47 42 38 39 36 27 26 27 28 27 22 20 20 20 20 24 24 22 20 20 20 19 20 22 26 26 28 29 34 42 42 43 44 43
84 74 70 69 60 56 55 50 48 46 47 43 38 39 38 32 28 28 29 30 26 25 23 21 20 23 26 27 27 25 24 24 24 24 24 28 33 35 36 37 39 40 39 38
80 77 71 68 62 58 56 51 48 46 46 42 36 37 37 35 31 30 31 31 28 28 30 28 27 26 28 30 34 32 31 30 29 27 27 27 30 34 39 41 41 41 43 45
81 79 76 70 62 58 57 51 48 45 43 39 35 36 38 34 33 32 32 33 34 32 32 33 33 34 33 32 35 37 37 36 35 32 30 29 31 31 32 37 43 46 46 45
78 80 76 69 63 60 56 53 47 44 42 38 34 36 34 34 33 34 35 37 37 38 37 35 37 39 39 37 34 37 42 42 41 38 35 34 32 33 35 34 35 39 44 46
78 81 77 73 66 63 57 53 47 43 40 38 33 34 35 34 34 35 37 39 40 41 41 40 40 43 42 39 38 43 42 44 46 44 39 38 37 36 36 34 34 34 35 39
82 80 78 73 68 63 57 51 47 44 39 35 32 33 32 32 34 36 39 40 41 43 43 43 43 45 42 39 41 50 40 42 47 49 44 42 41 40 40 39 40 40 38 39
88 86 81 74 68 63 55 49 43 42 41 37 32 32 34 33 34 37 37 38 41 41 39 39 43 46 39 33 50 51 43 42 45 48 50 47 45 44 44 45 46 44 44 40
91 86 80 74 67 62 55 49 42 41 40 35 33 33 35 34 35 33 37 34 36 36 35 34 36 41 36 40 54 49 44 44 44 45 47 51 48 46 46 45 48 48 47 44
94 88 80 71 65 58 52 47 40 40 39 35 33 34 36 35 33 33 34 33 32 31 31 31 34 37 39 40 47 48 46 46 44 44 46 48 50 47 46 46 46 48 47 46
92 89 79 68 62 55 48 45 40 39 37 35 32 34 34 34 32 32 32 32 30 28 26 25 27 30 36 40 43 43 44 42 42 45 47 45 49 48 48 46 43 45 46 46
93 86 74 64 58 52 46 43 40 40 38 34 32 34 34 33 30 31 30 29 27 24 22 21 21 22 27 32 39 42 42 42 42 44 47 44 46 49 49 49 47 45 46 47
92 84 72 62 56 50 44 40 40 40 37 35 32 33 33 32 30 27 28 26 24 21 19 20 22 23 27 30 33 37 39 40 39 41 44 45 44 47 50 52 52 51 51 49
84 79 68 59 54 48 42 40 40 41 37 34 33 34 33 32 31 26 25 26 22 20 19 19 21 23 25 30 33 35 37 38 39 39 41 46 46 46 49 51 54 56 56 54
76 75 66 58 50 47 42 40 42 41 38 35 34 36 34 33 33 29 25 26 25 21 20 19 19 22 25 28 30 33 37 39 40 40 42 43 46 46 45 48 54 56 59 59
73 73 65 57 49 45 43 42 42 42 39 37 36 39 36 34 33 30 28 28 27 23 22 21 19 21 23 26 29 31 33 35 37 38 40 41 45 45 46 48 50 57 58 59
70 67 64 57 52 45 43 43 43 43 40 39 38 39 39 35 34 32 33 34 30 26 22 21 21 21 23 23 24 25 27 28 29 31 34 37 40 44 46 47 50 53 57 61

GFSNW_250_spd_036.txt.gz
Wind_Speed
99 106 107 113 106 94 83 76 67 65 63 56 50 45 41 37 32 29 25 18 12 7 3 1 5 9 11 14 16 18 19 22 24 26 31 37 45 51 57 62 71 79 83 87
99 105 109 115 110 94 82 75 67 63 59 53 48 43 38 35 31 26 21 17 14 11 6 2 5 9 11 14 17 19 19 20 22 25 27 31 38 44 52 57 64 73 78 79
97 107 112 115 107 92 80 75 69 62 58 53 47 41 37 33 30 25 21 17 13 9 7 7 6 7 12 15 18 20 21 21 23 25 30 32 34 37 42 49 56 64 69 71
102 108 110 113 105 89 80 70 69 62 56 51 46 40 36 31 30 27 23 20 15 11 11 10 9 9 10 13 16 19 20 21 21 26 30 33 34 36 38 42 50 51 59 61
105 105 106 108 99 85 76 69 65 63 56 49 45 40 34 29 27 27 23 19 18 16 12 12 13 12 12 12 14 16 18 21 22 25 30 34 38 42 42 41 40 46 49 52
102 101 104 102 94 85 77 69 65 62 57 50 44 40 35 30 25 26 25 21 18 17 17 15 12 13 14 14 14 15 16 17 20 24 28 32 38 43 42 42 40 39 40 49
101 97 99 99 92 84 76 69 63 59 56 51 43 39 34 32 26 24 25 23 21 19 18 18 17 13 14 16 16 15 15 16 18 19 24 29 36 36 41 43 46 46 48 47
100 97 95 93 90 80 75 66 62 58 54 50 45 40 34 30 28 24 24 23 21 19 19 19 20 17 14 15 16 17 16 15 16 19 22 27 27 33 37 41 40 47 47 50
98 100 98 90 81 80 75 66 58 56 52 48 45 43 38 32 29 24 23 24 22 20 19 19 21 21 17 14 16 16 18 18 17 17 19 22 27 30 33 35 40 41 43 47
96 97 97 92 79 76 74 66 59 54 51 45 42 42 39 33 29 27 24 24 23 21 20 20 21 22 21 19 16 17 18 21 21 19 19 22 25 27 28 30 35 37 40 42
93 97 93 87 80 71 71 66 57 53 50 43 40 40 37 33 29 27 26 28 22 21 21 22 22 23 23 22 20 19 19 19 21 24 24 22 25 27 30 34 32 33 33 34
98 94 91 86 77 76 70 63 56 54 48 43 38 36 35 30 29 29 26 27 26 26 23 23 24 24 26 24 24 22 23 22 22 23 26 28 27 26 30 33 37 37 38 38
102 98 91 87 74 71 72 64 56 52 47 43 38 35 31 30 29 29 27 27 29 28 30 28 26 28 28 28 28 27 28 28 28 26 27 27 29 33 32 32 34 40 44 43
101 99 95 86 73 72 71 63 55 52 46 41 35 34 32 29 28 28 27 25 29 31 31 33 32 33 33 31 30 31 32 33 33 32 31 30 30 30 32 37 38 37 39 41
102 99 97 81 75 74 75 66 57 54 49 43 36 33 31 28 29 28 27 27 30 34 36 35 36 38 40 39 35 35 36 38 36 36 36 35 34 34 33 32 34 40 42 41
107 105 98 86 74 74 72 65 60 54 49 44 38 34 31 29 29 29 27 30 32 35 36 38 38 45 43 43 43 43 40 39 39 39 40 40 41 39 37 35 36 35 34 37
117 109 100 88 82 77 72 68 61 54 49 44 39 35 33 30 31 29 30 32 35 36 38 41 43 46 38 39 42 51 45 42 39 41 43 43 45 44 41 40 38 38 37 35
122 112 102 90 84 78 74 70 62 54 48 44 40 36 33 32 31 32 33 33 37 37 36 37 39 44 32 26 45 48 50 46 43 42 43 44 47 49 46 44 42 41 40 38
128 118 102 94 89 83 79 72 62 53 46 42 40 36 32 32 32 35 35 37 39 35 35 35 35 38 33 36 44 42 49 47 41 45 44 44 46 49 49 47 47 43 42 43
129 120 104 97 90 83 78 73 61 53 46 42 40 39 34 32 33 35 37 37 36 35 35 31 30 31 31 32 38 42 42 44 45 46 46 46 46 47 50 51 50 48 44 43
128 123 112 97 90 88 80 70 61 52 46 43 41 39 35 34 35 38 36 34 33 33 32 28 28 27 28 30 33 37 41 46 48 46 47 48 49 45 48 52 53 51 48 44
126 123 114 101 98 92 79 70 61 51 44 43 42 38 36 35 35 38 36 32 32 30 31 28 25 24 25 26 28 33 42 46 46 45 45 46 46 46 47 49 51 51 49 47
126 120 113 104 107 95 72 66 57 50 42 41 41 38 37 34 36 37 36 31 30 29 29 27 24 22 22 23 26 29 34 39 41 41 40 41 42 41 43 45 46 49 50 49
125 118 114 114 106 93 68 59 56 48 42 41 41 39 38 35 36 37 36 32 30 29 27 27 24 21 21 21 24 28 32 35 39 41 41 40 39 38 39 42 44 45 50 50
123 115 112 111 96 85 71 58 48 46 43 42 40 40 39 36 35 37 36 35 32 32 30 26 25 23 22 21 22 25 29 33 34 35 35 36 37 37 39 41 43 45 47 51
121 116 107 95 84 73 68 61 48 44 44 43 42 40 40 37 36 38 37 38 36 33 30 28 26 25 23 22 22 23 25 27 29 32 33 35 37 38 39 42 43 44 46 49
121 114 98 89 76 67 63 57 52 44 41 42 42 41 41 39 37 39 39 40 40 32 29 30 29 28 25 24 24 23 25 27 28 30 31 32 35 37 40 41 42 44 45 46

GFSNW_250_spd_039.txt.gz
Wind_Speed
87 90 95 100 101 106 104 100 85 77 75 70 60 51 45 43 37 32 29 28 25 20 12 7 4 2 5 9 12 14 16 18 20 26 33 37 41 46 50 55 61 68 71 77
88 91 97 99 101 104 105 101 88 78 73 70 61 51 43 38 35 30 26 23 19 17 13 8 4 3 6 8 10 13 17 19 22 26 29 33 39 45 48 51 59 63 66 68
89 91 97 101 104 104 106 103 91 79 71 66 62 52 43 35 32 28 24 21 19 17 14 10 7 5 8 11 13 14 16 20 25 26 29 31 34 37 41 45 50 56 60 64
89 90 95 100 103 107 105 104 94 79 70 64 60 52 45 35 30 27 23 19 18 16 15 12 9 9 8 10 13 16 17 19 20 25 29 32 33 35 38 43 47 50 53 56
89 92 95 100 99 105 103 102 96 81 71 63 55 50 44 34 28 26 23 18 15 15 14 13 12 10 9 11 12 15 19 22 23 26 28 30 34 36 37 41 43 49 50 51
91 94 97 98 97 101 100 99 93 82 70 62 54 47 42 36 27 25 23 20 16 14 15 13 12 13 12 11 13 14 15 18 23 27 28 31 35 39 41 42 42 43 44 49
93 94 98 100 98 104 100 99 95 83 72 60 57 45 41 35 29 25 23 21 17 15 14 15 13 11 11 13 13 16 16 18 21 24 27 32 38 39 43 43 41 42 44 45
94 95 98 100 98 98 99 97 94 83 71 60 54 47 38 35 28 24 25 21 18 16 16 16 15 13 10 11 12 15 18 19 19 21 25 29 36 37 41 42 40 41 41 41
95 96 97 100 94 97 97 96 94 85 68 60 54 46 38 33 27 22 24 22 19 19 17 17 17 16 13 12 13 13 15 20 21 20 23 26 28 35 38 37 38 40 42 44
100 98 96 99 93 96 94 89 94 88 71 58 54 44 38 32 27 23 22 21 20 20 19 17 18 18 16 14 13 15 15 17 21 22 22 23 23 28 35 37 38 40 43 44
102 102 100 102 97 96 91 84 92 83 70 58 52 45 37 30 27 24 20 22 21 21 21 20 19 20 19 17 17 17 17 16 18 24 24 23 22 26 30 32 37 40 42 44
105 103 102 102 96 99 97 86 90 84 67 56 49 43 37 29 25 25 21 21 22 23 23 22 22 23 22 21 20 20 20 20 19 20 24 25 24 26 26 29 31 35 38 42
107 105 106 101 98 94 101 93 88 83 69 55 48 42 36 29 25 23 23 23 24 23 25 25 24 24 24 25 24 24 25 24 24 24 23 23 28 28 27 28 32 34 35 39
109 107 107 103 97 93 98 100 91 84 72 59 49 41 34 28 25 23 22 23 25 24 24 28 29 29 27 28 27 27 29 29 30 29 28 27 27 27 30 32 32 34 37 40
112 112 108 103 99 99 98 100 90 83 72 56 49 41 35 29 25 23 23 24 26 28 30 32 33 34 31 32 30 32 36 35 34 33 32 33 33 32 31 30 31 33 35 36
119 117 108 103 102 100 100 104 87 78 75 58 50 42 35 30 26 24 23 26 28 29 32 34 37 37 34 35 34 37 40 39 37 36 35 38 37 38 37 34 34 33 33 33
126 125 115 105 107 107 106 104 91 86 82 59 51 44 37 32 29 26 27 28 29 31 33 34 35 36 35 37 41 50 45 43 45 43 41 41 40 42 41 41 40 38 36 35
128 125 124 112 113 109 106 111 96 82 84 63 53 44 38 34 31 28 27 29 31 30 32 34 35 32 28 33 40 50 47 44 41 41 45 43 41 42 43 45 44 42 41 39
128 127 129 120 116 113 114 114 98 86 86 65 55 47 39 35 32 31 30 31 31 32 33 33 34 33 29 34 39 44 39 39 44 42 41 44 45 43 44 45 45 45 44 43
128 130 132 130 128 117 113 113 98 88 84 66 52 47 42 37 33 32 32 33 34 35 34 35 35 33 29 30 34 33 37 38 39 40 38 41 46 45 45 45 46 45 45 46
129 132 135 134 135 129 123 120 102 84 77 62 51 45 39 38 34 31 33 34 36 36 35 37 35 35 31 28 28 30 34 35 34 41 40 42 41 45 47 48 47 46 45 45
133 134 135 136 139 136 129 123 104 86 70 58 51 44 40 38 37 33 33 33 36 38 36 35 33 31 30 24 27 27 31 34 37 41 42 44 42 45 51 53 50 47 45 43
134 136 139 139 140 137 129 120 108 91 61 52 49 42 41 39 38 36 35 35 35 36 36 35 34 30 28 26 26 27 27 32 37 41 44 45 46 47 50 50 49 47 46 46
141 139 143 141 140 131 124 113 104 88 65 51 41 42 41 41 39 38 37 38 37 37 36 32 33 31 28 25 25 24 26 27 32 35 39 44 47 48 47 47 47 47 46 46
141 144 142 146 138 130 123 111 96 79 68 57 41 40 41 39 39 37 38 40 41 40 35 31 29 32 30 27 25 24 24 26 27 32 36 39 41 40 41 42 42 40 41 41
146 143 143 140 132 126 118 107 88 73 70 58 48 38 39 39 37 38 38 40 44 39 35 34 30 31 31 29 26 25 25 24 25 25 29 34 35 36 39 40 39 40 41 44
143 143 144 136 130 121 113 94 79 72 69 58 50 43 36 38 39 37 40 39 41 41 38 37 35 31 32 31 31 28 26 26 27 28 29 31 33 36 38 39 41 43 43 44

GFSNW_250_spd_042.txt.gz
Wind_Speed
75 77 82 86 91 93 100 107 104 105 99 81 74 67 62 51 40 35 31 26 20 18 14 9 4 8 10 14 19 22 21 22 23 28 35 40 45 48 53 58 63 70 75 78
76 77 80 85 89 92 98 105 104 105 101 89 72 65 59 52 40 31 28 25 20 14 13 9 5 2 8 12 16 18 20 22 23 26 29 33 39 44 48 54 61 65 69 74
76 78 79 84 90 92 96 102 106 106 105 91 69 64 57 50 41 29 25 23 19 14 11 8 5 2 3 9 13 15 19 23 27 29 31 33 36 37 42 48 51 57 61 68
76 78 80 84 87 91 95 101 104 104 104 91 71 61 57 48 43 31 22 21 19 13 8 7 5 2 3 6 11 16 19 22 24 26 28 31 34 38 41 45 50 49 55 58
76 78 79 83 88 92 97 98 101 103 100 95 69 61 54 47 41 32 22 19 19 16 12 8 7 6 6 6 10 14 18 23 27 29 31 32 35 37 41 44 46 48 50 55
76 80 80 82 86 90 95 97 102 100 96 94 76 61 52 45 38 33 23 19 19 18 15 12 11 9 9 8 9 12 15 19 24 29 32 35 36 41 40 41 41 43 43 51
79 80 80 82 87 92 95 96 100 101 97 93 80 59 53 45 36 31 24 18 19 19 17 16 14 13 12 10 10 10 13 17 20 23 27 34 39 38 41 43 42 42 44 44
81 82 82 85 89 91 93 97 99 101 103 92 82 61 51 44 38 31 25 19 19 21 19 17 16 16 16 15 13 11 12 14 16 20 24 29 32 37 41 42 42 43 42 40
81 83 85 88 89 92 94 98 99 97 97 93 82 63 53 44 39 31 26 19 19 21 21 19 18 17 17 17 16 15 14 14 15 18 21 22 26 32 37 42 42 43 40 40
85 87 89 90 92 93 95 94 101 98 97 98 86 63 53 44 37 31 25 21 20 21 22 21 20 20 19 19 19 18 16 16 17 20 19 18 21 25 29 33 40 40 39 39
88 89 92 94 96 97 95 94 98 93 94 99 83 59 52 44 35 29 25 24 21 21 22 23 23 23 22 21 21 20 19 18 19 20 19 21 20 20 21 26 32 35 36 39
89 92 94 96 98 97 94 97 97 95 103 96 80 56 49 40 34 29 24 26 22 23 23 23 25 24 23 23 22 22 21 21 21 21 20 21 21 19 20 22 29 33 34 38
90 95 97 100 101 99 97 100 96 101 93 104 85 58 50 40 34 28 24 24 24 23 25 26 26 25 26 25 25 25 25 25 25 25 22 21 22 24 24 23 24 29 33 36
95 98 101 101 103 102 101 107 100 95 96 106 88 62 53 41 34 30 25 23 24 24 26 28 28 25 26 27 26 29 30 30 29 29 26 25 26 24 25 25 25 25 28 30
100 103 103 104 103 105 107 110 103 92 106 100 94 72 57 45 35 30 27 25 25 26 28 30 30 29 31 33 31 36 35 34 31 33 29 31 30 29 27 26 26 28 29 31
105 106 107 107 109 107 106 109 100 94 108 102 99 74 62 49 39 33 28 25 25 28 30 32 32 33 35 36 37 39 39 38 38 38 35 35 37 36 33 32 30 30 30 30
110 111 111 113 112 110 112 104 101 102 107 109 103 94 68 53 43 36 32 28 26 28 31 34 34 36 38 40 40 43 42 39 38 41 39 38 41 39 37 36 37 36 35 33
112 115 115 116 117 115 110 101 100 105 113 117 106 105 77 57 45 39 35 33 30 29 31 32 34 36 37 39 39 44 39 36 40 43 45 46 45 39 40 39 39 39 39 38
114 118 118 121 120 124 117 105 94 101 110 112 103 104 88 61 51 42 37 35 33 31 32 32 34 36 37 37 35 35 29 38 47 42 42 46 46 44 44 43 41 40 40 41
115 118 119 124 124 125 118 115 114 108 111 109 102 98 90 62 56 47 40 38 36 34 34 35 35 35 32 33 31 31 30 40 44 37 40 41 44 45 45 45 45 44 42 41
114 119 123 123 120 122 122 120 121 121 122 105 80 92 83 66 55 48 43 40 38 36 37 38 36 32 31 30 32 26 28 31 34 36 39 39 38 39 45 47 47 47 46 44
116 120 121 117 120 124 123 127 124 121 121 117 101 83 68 60 57 48 44 43 42 39 38 40 36 34 32 29 32 28 26 26 28 33 36 37 36 42 45 46 48 48 47 46
120 119 121 122 121 126 128 133 129 124 117 115 110 98 67 50 50 47 43 43 43 43 40 39 37 35 32 30 30 28 25 26 25 28 34 38 43 46 47 48 49 49 48 48
120 121 121 124 125 129 130 130 132 128 123 114 106 98 73 48 42 44 43 43 44 43 42 38 38 34 34 33 30 26 26 25 25 27 32 36 42 47 48 46 49 51 51 51
125 124 125 126 129 130 132 133 134 128 126 119 109 95 71 54 45 39 42 43 45 45 42 38 36 32 36 35 33 29 26 26 26 26 30 32 38 43 48 49 48 48 50 50
126 129 129 130 131 134 133 136 131 131 121 118 111 89 67 54 53 45 38 41 44 44 43 36 35 34 36 36 35 33 30 27 27 27 28 31 33 38 42 47 49 49 49 49
129 133 136 138 133 135 134 132 133 126 127 116 104 85 70 52 47 49 42 39 44 47 45 38 35 38 37 38 37 37 34 31 27 27 28 30 32 34 37 41 43 44 45 44

GFSNW_250_spd_045.txt.gz
Wind_Speed
65 66 67 70 72 77 82 86 91 99 97 101 101 91 75 61 52 44 33 25 21 16 12 9 6 2 7 12 18 21 21 22 26 31 40 47 52 55 60 61 62 70 74 77
64 66 66 69 72 75 80 85 93 102 107 93 100 84 68 62 51 42 34 24 19 14 9 5 2 2 6 11 16 20 21 22 25 27 30 32 38 48 55 56 60 61 69 71
64 65 65 69 71 72 77 83 91 101 106 99 99 85 60 58 49 40 34 25 18 15 10 5 2 5 7 10 14 18 21 23 25 27 31 35 37 40 45 49 52 63 62 72
64 65 66 69 70 73 77 82 91 96 105 101 92 88 64 54 49 39 34 27 19 15 14 9 6 5 8 12 16 18 19 21 24 26 28 29 31 31 34 40 52 54 63 63
64 65 65 69 69 74 78 80 88 94 101 109 87 89 66 49 45 41 33 27 19 16 14 12 11 10 10 11 13 16 21 24 26 27 28 28 29 31 34 37 41 47 51 56
63 65 66 68 71 75 77 82 88 95 98 107 91 86 72 46 42 37 33 27 22 17 16 14 13 14 14 13 13 15 18 20 25 29 31 32 33 38 37 38 39 43 44 54
63 65 68 70 74 76 79 85 90 92 96 106 101 88 74 51 43 38 32 29 23 19 18 18 17 17 18 17 16 17 18 21 20 22 28 34 37 35 36 39 41 42 44 49
62 66 70 72 76 78 80 84 91 92 95 102 106 85 75 46 39 37 33 27 26 23 20 20 20 19 20 20 19 19 19 20 23 22 21 26 31 35 37 40 42 39 44 45
61 66 71 75 78 81 81 86 90 92 96 99 104 89 77 52 41 35 32 28 26 26 23 20 20 21 22 23 21 21 22 21 21 22 23 22 20 23 28 36 41 39 41 43
62 67 73 76 78 81 84 88 88 90 90 101 100 89 76 49 41 36 32 29 26 25 24 23 22 22 24 24 24 25 24 24 23 21 23 24 22 22 23 27 33 35 38 40
64 69 74 76 80 83 86 88 87 90 90 99 98 91 76 54 44 36 31 29 27 25 24 23 24 24 24 24 25 25 27 25 24 24 22 21 22 21 20 23 27 29 32 37
68 71 75 79 83 87 88 91 93 94 97 92 94 87 75 61 48 36 31 28 26 26 25 25 25 25 26 25 26 27 28 29 27 27 25 23 22 23 23 20 22 23 26 30
72 73 78 80 85 90 90 93 94 95 93 93 93 83 82 64 52 43 32 28 25 26 26 28 27 26 27 28 28 31 31 30 30 28 25 24 23 22 22 22 20 19 22 27
77 77 81 83 87 91 92 97 97 95 95 95 88 81 86 74 56 45 37 30 28 26 27 29 29 29 29 29 31 31 28 29 29 31 26 25 27 25 25 23 22 22 20 23
81 81 83 86 91 93 94 97 98 98 101 101 99 88 90 89 66 54 43 35 30 28 27 29 31 31 32 32 34 31 33 32 30 34 30 31 31 30 30 28 26 26 26 25
87 89 89 90 93 94 96 98 96 99 92 96 99 103 98 91 82 63 50 41 35 31 28 28 30 31 34 36 37 35 38 37 34 35 33 33 36 35 35 32 30 30 28 27
90 94 95 94 97 98 96 96 99 101 98 98 95 102 104 91 100 75 52 45 40 35 30 29 30 33 35 38 39 39 41 39 33 35 38 37 40 39 41 38 36 35 34 32
94 96 99 101 99 101 100 100 98 98 98 95 94 96 101 105 103 108 59 48 41 37 34 31 32 34 36 38 39 41 41 39 32 31 36 41 44 45 44 41 40 40 38 38
97 99 101 102 105 109 106 106 103 100 91 91 94 101 104 101 105 114 74 54 45 40 36 33 33 34 36 39 40 39 40 37 33 31 39 44 49 50 47 44 45 44 43 41
99 102 103 106 109 112 113 112 115 111 103 99 83 71 95 94 95 106 92 66 54 43 38 35 33 32 35 38 40 39 39 34 33 39 48 52 45 34 40 45 46 47 45 44
98 102 105 108 112 114 118 119 117 114 113 114 90 71 70 65 84 96 96 77 59 50 43 39 35 34 34 36 37 37 37 35 36 40 46 51 46 41 42 43 45 47 48 47
101 105 106 109 109 115 119 120 122 116 117 108 107 106 97 87 66 89 98 78 59 51 48 44 38 37 35 35 36 35 36 35 33 33 39 38 41 40 40 41 44 47 47 49
106 107 107 109 112 115 119 124 120 117 118 119 122 117 104 113 105 92 69 72 57 51 51 47 41 39 36 34 35 35 37 34 34 31 34 37 38 38 40 41 39 42 46 48
105 107 109 111 113 118 120 122 122 120 119 122 127 128 119 117 112 103 86 71 54 45 49 50 44 40 38 34 33 33 35 34 34 32 32 33 34 35 39 41 42 45 48 49
107 103 108 115 117 120 122 123 121 123 122 125 129 128 127 125 113 106 81 88 69 53 45 46 47 43 38 37 37 35 35 37 34 33 32 33 33 33 36 41 44 48 49 50
109 109 112 116 119 121 123 123 125 125 125 128 128 132 129 123 111 105 105 78 67 55 52 53 46 46 43 39 40 40 38 38 36 33 33 34 33 32 33 37 41 46 50 53
113 113 116 116 119 123 122 126 127 127 129 129 132 127 130 114 126 97 87 69 61 52 44 48 58 48 46 43 43 42 41 41 39 36 34 34 34 33 32 34 36 38 43 46

GFSNW_250_spd_048.txt.gz
Wind_Speed
60 63 65 65 66 66 70 72 79 86 92 100 98 82 79 80 62 58 43 34 29 23 21 17 9 6 5 8 15 20 22 25 26 29 33 37 40 45 48 51 56 61 66 68
59 61 63 65 64 65 69 71 76 84 91 101 103 90 85 80 62 55 49 33 26 22 18 16 11 6 1 3 8 15 18 21 24 28 32 34 38 44 52 56 63 61 63 59
58 60 62 64 63 65 68 71 75 81 92 102 108 103 85 84 66 52 49 35 25 19 14 13 13 8 4 4 7 11 15 22 24 29 32 37 40 48 53 59 55 55 55 65
55 59 61 62 62 64 66 72 76 79 92 98 105 109 88 85 71 47 50 37 25 18 13 9 9 9 8 9 10 12 13 14 16 21 27 31 39 45 46 47 52 55 66 62
53 57 60 61 61 64 65 71 74 81 89 98 105 113 98 85 77 45 48 39 27 19 16 11 9 11 12 12 13 15 17 19 21 22 25 27 28 31 34 41 47 51 59 59
52 57 58 58 60 63 66 71 74 81 84 94 100 112 103 83 80 51 50 40 31 21 16 15 14 13 14 15 15 17 20 22 25 27 28 28 30 31 32 35 39 42 44 58
51 56 57 56 58 61 66 71 74 79 85 92 98 107 114 85 80 64 50 41 33 24 18 17 17 15 17 18 18 19 19 21 24 26 27 30 34 31 31 32 35 33 38 45
51 53 53 55 57 60 66 71 75 80 84 89 96 105 106 93 84 63 56 40 33 28 20 17 18 18 18 19 20 21 21 22 23 26 26 30 33 33 33 34 36 34 39 40
49 50 49 54 58 58 64 70 74 78 82 86 94 93 101 84 82 61 56 43 33 27 23 17 18 20 20 21 21 22 24 24 24 24 25 32 31 28 31 35 38 38 39 38
47 47 49 53 57 60 63 69 73 78 80 85 93 89 92 88 75 62 61 43 33 27 24 19 18 21 23 23 23 25 25 25 23 25 27 26 28 30 30 29 31 33 36 37
44 47 52 55 60 62 65 70 72 77 79 83 89 94 87 95 79 59 53 49 35 29 24 22 18 20 24 25 24 24 26 26 25 27 27 24 27 28 30 30 30 28 30 32
45 48 54 58 64 66 66 73 73 78 80 83 87 90 85 86 71 57 48 47 39 32 27 24 22 21 22 25 27 26 26 26 27 27 26 24 26 26 25 28 29 30 29 28
45 52 56 64 67 71 73 74 74 79 83 85 87 89 80 81 72 68 57 47 37 33 32 27 23 24 24 26 26 26 24 24 25 27 26 28 30 26 27 28 28 30 28 27
52 52 58 64 71 76 76 78 78 84 83 88 92 87 81 87 77 69 74 51 44 36 30 28 24 25 27 28 26 25 26 29 28 29 26 30 31 32 33 32 29 28 30 29
55 53 50 63 76 80 80 80 83 87 90 95 95 90 91 90 85 80 78 58 46 39 36 31 26 25 28 28 28 26 28 27 27 29 28 31 33 32 32 33 32 32 30 28
54 54 61 70 77 77 81 84 86 89 91 94 97 96 99 88 83 94 84 73 71 43 38 34 31 27 29 31 28 26 32 32 32 31 31 32 35 34 33 36 35 33 33 32
47 57 66 73 78 80 85 84 89 92 94 96 95 99 98 95 92 101 102 84 78 48 43 36 33 31 31 33 32 31 33 36 33 33 34 36 34 38 38 37 39 36 36 35
58 67 75 78 83 87 88 89 92 95 97 96 98 99 102 99 93 98 99 90 78 75 51 40 35 32 30 32 33 33 34 37 37 37 36 38 40 40 43 40 43 42 41 40
67 62 69 77 85 91 91 94 95 97 98 98 101 98 102 96 103 96 98 89 84 80 87 50 39 32 31 31 33 34 35 37 37 38 35 37 41 43 43 45 47 47 48 47
62 65 78 83 88 94 95 97 101 103 104 106 105 102 90 83 84 91 79 91 95 75 84 59 48 36 34 34 33 35 37 38 39 39 36 37 40 41 52 53 54 51 51 53
66 74 82 85 92 96 97 101 103 105 107 109 110 112 101 97 94 78 67 84 79 68 81 67 51 45 38 35 35 36 36 37 39 40 38 35 39 46 54 49 44 43 41 46
76 77 87 91 94 94 99 103 105 106 108 112 113 115 115 110 108 97 71 82 82 69 74 78 50 45 44 43 39 37 37 38 38 40 39 36 37 44 49 46 43 44 43 43
79 84 89 93 95 95 100 101 104 108 109 112 114 118 117 116 111 111 96 97 82 75 65 80 56 48 42 43 45 42 39 39 39 37 38 36 37 38 42 42 42 42 41 46
76 84 91 97 99 100 98 102 109 109 112 114 118 118 122 113 117 112 114 111 97 94 75 101 60 49 44 44 45 46 44 42 42 41 39 37 36 38 36 42 40 42 43 41
90 96 97 95 93 98 100 106 109 110 112 117 121 121 128 121 115 115 114 119 116 95 83 90 64 54 52 53 52 47 46 47 45 44 43 40 37 39 36 36 38 39 41 40
96 97 93 96 100 103 105 110 113 114 119 120 121 121 124 118 117 119 108 111 108 115 95 76 61 50 51 53 61 63 52 46 47 46 44 42 41 39 39 36 36 38 40 41
97 94 94 99 103 104 110 112 114 118 120 118 122 121 117 117 128 119 116 105 105 114 88 71 63 56 51 54 58 61 59 50 44 45 44 41 42 40 39 38 37 38 38 40

GFSNW_250_spd_051.txt.gz
Wind_Speed
47 51 51 54 58 62 63 65 66 69 75 85 97 105 78 74 73 66 62 57 52 37 22 16 14 11 8 12 20 24 26 25 27 29 33 35 36 40 43 46 49 52 55 59
46 49 48 53 55 59 62 63 63 67 72 82 94 102 101 75 74 64 63 57 49 39 27 14 12 8 3 6 14 22 23 26 27 29 31 34 38 43 47 50 52 53 55 54
45 46 45 51 54 57 59 59 63 65 72 78 90 100 107 81 78 68 66 57 47 39 30 21 11 7 4 4 10 16 24 28 31 33 35 37 40 45 47 50 50 56 54 59
43 46 46 50 51 55 56 56 59 62 70 78 89 96 102 95 83 72 67 66 49 38 29 23 16 11 5 3 5 10 17 23 28 31 36 38 40 43 46 48 53 58 57 60
41 44 43 48 50 54 52 53 57 60 66 74 85 93 93 100 89 83 68 66 57 41 29 22 16 14 11 8 8 10 11 13 18 23 28 31 36 42 45 46 49 49 54 53
41 43 44 45 49 51 50 50 56 55 63 69 80 86 95 100 101 80 73 67 57 43 34 24 18 16 14 13 12 12 13 14 17 20 22 25 30 30 32 36 42 44 48 57
40 41 42 44 48 49 48 49 52 56 61 68 73 82 91 94 99 89 74 69 60 48 32 25 21 18 16 16 16 16 17 17 19 18 21 25 26 26 29 31 32 32 38 44
38 38 40 44 49 48 49 50 48 55 63 69 72 79 86 88 96 86 80 65 61 52 33 24 21 18 17 19 19 19 20 21 22 22 22 27 28 28 29 31 29 31 34 34
38 37 40 44 47 48 50 49 47 58 64 68 72 79 82 86 87 97 84 72 60 54 38 28 22 19 18 19 20 20 22 23 23 23 25 27 25 27 28 28 30 33 35 34
35 36 40 43 45 49 51 48 50 60 66 70 76 78 80 83 86 85 90 72 62 55 45 32 23 21 21 20 20 22 23 24 24 25 28 23 24 24 25 28 31 31 33 35
34 35 38 41 45 49 52 49 53 61 66 68 74 78 81 77 76 85 85 79 60 57 48 37 28 22 21 20 20 20 22 24 25 26 28 26 26 27 26 28 27 29 30 31
31 35 36 43 49 45 45 49 55 59 68 70 73 78 80 83 83 81 80 86 66 55 53 44 35 28 22 22 21 20 20 21 23 25 26 27 27 30 30 29 29 29 29 31
34 31 38 43 45 49 46 52 58 62 66 72 78 79 80 82 84 81 80 72 65 57 57 45 40 34 27 23 22 18 19 22 24 26 26 28 29 30 29 30 30 29 30 31
31 33 40 42 45 49 50 56 61 62 70 73 79 79 82 84 86 85 84 74 72 60 61 45 44 37 29 23 24 19 22 23 24 23 24 28 30 28 29 31 31 29 30 30
35 39 41 39 43 39 48 56 61 63 68 76 80 82 82 84 87 90 91 91 78 62 67 60 53 42 35 23 21 23 25 28 27 25 26 29 27 30 30 33 32 32 33 32
38 40 40 40 45 44 49 55 58 65 72 77 81 85 86 88 92 94 99 89 73 69 62 59 55 38 37 29 21 24 26 29 31 32 31 32 34 34 34 36 34 33 35 35
40 39 41 45 39 50 54 56 58 66 72 78 83 84 88 90 91 97 101 91 82 79 85 71 69 45 37 32 29 26 26 29 33 35 37 38 36 38 38 38 39 38 37 36
43 43 46 47 46 54 56 60 63 70 74 79 82 85 89 89 93 99 100 98 81 88 84 93 72 59 48 34 33 30 29 31 32 34 38 42 43 43 43 42 41 43 45 44
43 47 49 50 53 53 57 63 65 69 74 81 84 87 91 89 91 97 98 83 75 82 81 93 80 73 52 39 36 32 30 33 35 36 39 42 45 45 46 46 44 47 47 48
43 49 53 53 54 56 60 65 67 75 77 82 88 89 92 90 95 97 102 90 75 77 73 76 82 98 60 48 40 33 31 32 35 37 40 42 44 46 49 48 47 49 51 54
46 47 57 58 64 61 64 70 75 77 83 87 91 95 96 99 103 103 108 102 85 92 60 66 62 73 67 54 41 36 32 32 34 35 39 42 43 44 46 49 50 51 50 52
42 52 60 58 62 66 71 77 78 83 86 91 95 97 102 106 110 109 111 114 110 104 95 68 53 47 73 54 42 37 38 35 36 36 37 40 43 45 45 47 49 50 52 51
49 55 57 61 64 68 75 76 81 84 87 94 96 101 104 107 112 112 112 114 115 107 107 97 77 69 80 55 50 43 39 41 41 38 40 42 42 43 46 46 47 48 51 47
56 57 62 63 65 71 75 82 86 89 94 95 98 102 106 108 111 114 115 118 117 109 114 110 104 78 80 59 50 42 46 46 41 42 39 39 40 41 44 45 46 48 48 49
65 65 64 66 71 73 77 82 88 93 94 97 102 106 107 111 114 115 119 119 112 109 102 107 107 88 86 61 54 48 46 47 47 48 45 39 37 37 39 43 44 46 46 48
66 66 69 71 74 76 82 89 93 96 99 102 105 108 112 113 115 121 122 117 112 96 107 114 118 96 78 64 58 54 51 52 53 49 47 43 39 35 36 39 41 43 43 46
68 70 71 72 79 82 88 92 94 98 101 104 107 109 111 117 118 125 117 114 110 113 121 120 123 90 75 64 58 54 51 52 54 51 44 38 38 36 33 35 38 41 42 45

GFSNW_250_spd_054.txt.gz
Wind_Speed
46 46 47 47 47 50 54 55 54 55 60 67 72 77 82 73 74 71 69 62 60 46 31 18 10 6 8 15 27 31 31 32 32 35 37 39 42 46 49 51 53 57 58 61
45 45 43 42 44 47 51 50 50 50 57 63 68 73 81 85 77 74 71 65 60 52 35 23 13 6 3 12 20 30 34 34 33 33 35 38 42 48 50 52 55 55 58 59
43 44 41 40 42 45 49 48 47 47 58 59 64 72 80 85 78 77 72 68 62 58 43 29 15 8 1 6 11 22 31 36 39 38 40 42 44 45 49 50 50 53 53 60
42 39 39 37 40 43 46 45 45 43 55 57 63 71 78 82 87 78 76 71 65 57 49 34 23 8 3 4 9 16 21 32 37 38 41 42 45 47 49 50 55 52 60 61
39 38 38 35 38 41 44 43 43 40 52 53 62 65 78 80 87 84 78 75 71 58 52 39 28 19 10 5 8 12 16 23 30 35 40 43 46 47 48 50 54 56 61 61
36 38 35 34 35 39 40 43 40 38 48 52 62 63 73 74 81 87 83 75 71 64 55 44 33 22 16 11 10 11 14 18 21 26 32 36 40 42 43 45 46 48 52 58
34 36 32 34 35 37 38 40 41 43 41 47 55 64 71 75 84 90 86 77 71 65 59 47 39 29 20 17 14 13 15 16 18 21 25 27 28 30 32 34 36 40 44 47
36 33 31 34 33 34 36 37 38 47 37 44 56 64 64 73 78 89 85 83 74 68 57 56 42 31 25 19 17 18 19 20 20 20 20 22 23 24 26 28 29 31 33 35
35 30 30 33 32 35 34 34 37 42 39 44 52 60 68 72 75 84 86 81 81 75 62 53 44 37 28 21 18 20 21 23 22 23 23 23 22 23 24 25 25 31 34 34
33 30 29 31 31 35 33 32 37 38 38 44 51 57 63 69 74 80 82 85 80 74 70 61 49 44 31 22 20 20 23 26 27 28 28 24 27 29 30 28 28 31 31 31
34 30 30 28 30 32 32 35 37 39 41 46 52 58 61 67 71 75 79 81 77 76 63 51 52 43 37 26 21 20 20 24 28 32 31 30 31 32 32 32 32 31 30 31
31 28 29 28 29 32 31 36 36 41 42 48 49 56 63 67 70 75 80 81 76 75 67 63 55 44 40 29 22 20 21 24 27 31 34 33 33 34 34 34 34 35 32 31
31 29 29 27 28 31 34 39 39 41 42 49 52 56 63 67 72 74 81 87 79 87 75 65 61 57 49 30 28 24 25 26 30 30 31 34 34 34 34 38 37 36 36 34
31 32 28 28 29 32 33 39 41 42 44 50 53 56 61 66 73 77 81 86 88 90 87 69 67 62 55 36 32 28 29 31 30 30 30 34 33 34 36 37 38 38 37 37
33 30 30 26 30 32 35 40 41 44 46 51 53 58 63 67 71 76 80 87 92 93 91 77 66 59 50 39 35 30 28 32 33 32 33 36 32 36 37 38 37 38 39 37
33 30 29 28 32 35 35 42 43 45 46 50 53 58 63 69 73 79 83 87 90 95 96 83 74 62 58 57 45 31 29 31 35 36 36 37 36 36 37 38 38 38 39 40
31 29 30 32 36 37 40 42 45 46 49 51 54 59 66 71 74 79 82 87 89 97 98 96 76 66 65 57 54 38 32 31 34 39 41 38 37 40 41 44 44 44 44 43
29 31 32 35 37 42 43 47 47 49 53 53 56 62 67 72 75 79 83 86 89 91 99 101 82 71 69 67 66 59 41 28 34 37 41 44 41 41 45 45 47 49 50 50
31 30 30 33 38 41 40 47 51 50 53 54 58 64 69 73 76 82 87 88 91 95 98 93 81 80 83 76 74 76 58 41 32 31 39 43 45 45 45 48 50 52 51 52
28 28 29 38 41 43 43 46 53 52 52 53 60 66 69 73 76 82 85 89 93 97 100 93 83 76 79 77 81 79 76 52 39 34 33 37 43 48 49 49 50 52 52 55
31 30 36 38 44 47 46 47 52 53 53 56 62 69 71 76 80 84 89 94 97 101 106 106 97 80 85 81 75 60 70 65 57 42 37 38 39 42 46 51 53 51 50 53
33 34 38 43 47 50 48 49 50 53 56 59 67 70 76 80 86 88 91 98 103 107 111 113 106 88 100 90 89 71 52 55 53 53 48 42 42 44 44 46 48 51 53 52
34 38 41 44 45 48 49 50 54 57 60 64 69 74 79 82 87 90 96 101 104 108 114 115 103 103 100 104 100 95 65 52 44 46 48 52 49 48 48 48 46 48 48 48
42 41 40 43 43 50 55 57 59 63 65 68 73 76 82 84 88 94 98 101 105 109 112 118 103 108 106 100 104 99 80 70 57 50 47 47 54 54 51 47 44 43 45 46
41 42 45 50 51 54 56 58 64 68 67 73 77 81 84 87 92 97 100 103 109 113 113 115 106 104 110 104 104 89 83 74 63 58 55 53 52 52 55 47 45 41 43 43
46 50 52 56 57 61 63 66 69 70 75 78 80 84 88 92 95 100 105 109 113 117 119 117 109 120 113 108 104 91 82 72 63 61 59 56 55 51 46 45 41 44 44 44
51 58 58 61 62 64 68 71 73 76 76 80 83 87 93 95 100 105 107 114 112 119 119 123 120 116 112 109 98 89 83 71 63 59 57 54 50 46 42 41 40 43 42 43

GFSNW_250_spd_057.txt.gz
Wind_Speed
47 54 50 43 42 43 48 47 49 52 50 49 60 65 72 73 69 72 67 61 56 44 35 25 16 9 7 14 25 26 28 31 34 36 41 46 50 51 55 61 66 67 68 69
45 47 41 37 39 40 43 42 44 48 46 46 52 60 64 71 68 68 66 62 55 50 41 29 19 10 4 7 19 29 31 35 37 38 37 39 44 49 53 56 57 60 66 69
46 41 35 33 35 36 38 38 43 44 44 42 47 52 64 71 72 66 65 63 58 53 44 36 23 14 8 4 11 19 30 36 39 40 43 44 46 49 51 53 56 62 65 69
45 36 32 31 33 33 32 34 40 41 41 42 43 49 56 68 74 70 68 64 61 56 48 40 31 17 10 8 9 19 22 37 42 42 44 47 48 50 53 55 62 60 65 67
38 35 33 29 30 31 30 33 36 38 37 40 43 43 55 64 71 72 76 69 61 60 51 45 37 26 12 8 10 14 18 27 36 44 45 51 51 51 52 54 58 59 61 63
35 34 31 29 25 28 28 31 34 36 35 37 40 45 51 58 69 72 76 76 74 65 55 54 42 32 23 13 9 12 17 21 28 33 38 45 47 52 54 56 57 59 60 62
34 31 31 28 26 27 26 27 30 33 34 37 35 42 49 53 64 70 73 79 77 67 61 53 50 40 32 22 11 9 15 20 24 30 32 34 39 42 43 49 51 52 55 57
36 35 32 27 26 26 26 24 28 31 33 35 37 40 44 55 60 66 73 77 83 83 71 59 50 42 42 28 20 15 14 18 21 24 27 29 31 34 37 42 44 47 49 53
34 34 31 27 26 26 24 22 27 26 31 34 36 41 43 50 59 64 70 80 86 90 85 69 56 49 43 32 26 20 19 19 21 24 24 24 29 32 34 35 35 41 43 44
33 35 31 27 26 24 22 22 25 26 30 31 34 40 44 50 57 59 63 74 82 89 92 80 68 55 49 37 31 28 24 23 23 25 26 25 33 34 34 31 33 38 39 40
37 35 31 26 25 25 22 23 21 24 26 33 34 40 45 51 54 60 63 67 74 80 87 86 77 69 56 42 32 32 29 27 27 28 29 29 33 34 34 35 37 38 39 38
38 35 30 26 25 25 22 23 20 22 26 33 35 39 43 48 55 59 63 67 71 75 81 86 83 62 56 55 42 32 32 33 31 31 32 33 35 36 36 38 40 41 41 40
38 36 32 27 24 24 24 23 24 24 30 32 37 41 42 47 53 59 63 66 71 74 76 78 86 71 60 57 55 43 37 33 34 35 33 34 36 37 38 42 43 42 44 44
39 38 32 28 27 26 22 25 25 25 30 34 38 43 44 47 53 59 63 66 71 74 78 82 82 84 67 61 58 54 47 40 34 33 35 36 37 38 41 43 44 45 44 44
38 38 30 29 27 25 22 26 27 26 30 32 38 43 46 46 52 57 63 67 72 75 79 81 84 86 81 64 50 47 51 44 38 37 35 35 36 38 43 47 45 45 46 45
42 36 31 29 27 26 27 29 29 29 33 36 38 42 46 48 52 58 65 69 75 78 81 83 86 90 88 76 64 60 53 48 43 40 36 39 42 40 41 48 50 48 47 47
38 35 32 31 30 29 28 31 30 31 36 36 38 41 46 47 52 58 64 70 75 78 83 86 90 93 90 83 76 70 66 53 44 40 42 37 40 44 45 44 49 53 52 50
38 34 35 35 32 30 30 30 32 34 37 39 41 41 47 50 54 59 64 68 74 77 82 86 92 95 96 98 97 86 79 69 59 47 50 44 37 42 46 48 49 51 54 57
38 37 36 35 31 31 33 31 32 36 38 40 42 41 49 53 56 60 64 68 74 77 83 87 91 93 92 99 107 91 89 83 70 73 62 55 44 40 43 47 51 50 54 56
36 38 38 33 30 32 34 34 35 39 39 40 40 45 48 54 59 63 68 70 76 80 83 87 91 94 97 100 104 97 94 88 86 77 77 76 57 41 39 43 48 52 55 55
37 38 33 27 30 33 34 36 37 42 45 42 43 48 52 56 61 67 70 74 78 83 87 90 94 96 99 104 104 112 101 99 91 83 76 66 60 57 45 38 41 48 52 55
40 36 30 29 33 35 37 37 39 42 46 46 47 50 54 57 62 70 73 79 82 87 90 94 97 102 107 109 110 120 110 104 99 91 79 65 49 41 49 55 51 45 45 51
36 31 29 31 36 36 37 39 42 44 47 47 49 53 55 59 66 71 77 80 84 88 95 97 101 105 111 113 118 121 115 107 103 95 85 69 52 44 43 46 54 57 54 49
33 31 32 35 37 41 45 46 46 47 51 51 52 56 60 65 70 75 78 80 87 91 98 100 104 109 112 119 117 124 119 110 105 99 87 72 58 52 50 47 46 49 55 55
33 33 32 38 43 46 48 46 49 50 52 52 55 60 66 71 76 79 82 87 91 95 100 102 108 110 118 120 121 127 118 115 106 99 87 72 60 56 54 52 48 44 45 49
34 34 37 44 47 49 50 50 52 53 53 55 57 64 70 73 80 83 87 91 93 99 102 106 111 118 119 125 125 128 120 112 107 97 83 68 60 57 55 52 47 45 43 44
36 42 49 52 55 54 54 55 55 54 55 57 61 67 71 76 82 85 89 91 95 100 106 111 116 119 124 126 129 124 120 111 106 93 78 66 59 55 51 47 46 44 43 43

GFSNW_250_spd_060.txt.gz
Wind_Speed
70 66 60 49 45 43 44 39 39 41 46 48 47 45 56 63 64 66 64 61 55 48 42 33 22 16 12 6 7 16 22 30 34 37 40 46 51 56 58 59 63 66 69 70
62 51 48 37 40 37 34 33 34 38 42 44 40 40 48 55 61 62 63 60 54 49 43 35 26 18 12 8 5 14 23 29 34 39 41 44 48 52 55 58 61 63 66 69
52 40 39 37 36 31 29 29 29 35 38 40 39 38 43 50 55 58 61 61 56 49 45 39 31 21 13 8 6 8 12 27 33 36 39 43 45 49 51 52 54 61 63 66
43 40 31 31 31 27 26 26 27 32 33 35 34 34 41 48 53 58 57 60 57 53 43 40 37 32 19 10 6 7 17 18 31 37 39 41 43 45 48 51 58 58 63 63
39 31 29 29 29 26 26 24 26 28 31 32 32 35 35 42 52 55 60 59 61 56 48 38 39 36 30 19 11 7 13 14 23 30 40 42 47 49 51 54 56 56 59 62
42 34 32 28 28 27 23 23 23 25 27 28 31 33 35 39 48 55 62 63 63 64 54 48 39 37 34 28 17 13 11 14 17 23 28 35 42 48 53 54 56 57 60 62
41 34 28 27 29 25 23 22 21 23 24 27 29 30 34 33 46 56 58 63 69 67 68 60 50 39 35 32 26 20 15 16 20 23 25 31 36 38 42 47 52 55 57 58
41 37 30 31 29 25 21 20 19 20 23 24 24 27 30 40 43 47 55 63 65 73 76 72 64 52 43 35 30 23 18 18 20 23 25 27 28 38 40 40 44 48 50 52
37 34 32 32 29 25 21 19 17 18 21 22 24 26 32 38 40 47 52 58 64 69 72 77 73 68 57 51 42 33 29 24 20 22 26 26 33 41 38 39 39 49 49 51
38 38 35 34 32 25 21 18 16 17 19 20 23 26 33 35 39 43 48 53 59 63 67 74 77 73 67 57 48 42 34 33 29 25 24 26 35 41 39 38 39 43 44 44
40 37 36 34 31 26 21 18 17 18 17 17 22 25 33 37 38 43 46 48 54 59 65 68 67 64 74 74 59 53 43 47 37 28 24 25 31 36 40 40 42 44 46 46
40 39 37 35 29 27 21 17 18 20 17 19 21 25 30 36 38 42 46 48 53 56 59 62 63 64 70 70 71 70 61 53 47 38 33 28 28 31 35 43 44 45 46 47
41 41 38 34 31 25 20 19 22 19 16 17 22 25 29 35 39 40 46 50 54 57 60 63 65 67 66 70 69 69 68 56 50 45 42 38 30 28 32 36 41 44 46 47
43 42 39 36 30 24 22 21 22 19 17 17 22 27 30 31 37 42 45 51 55 60 64 66 68 71 67 72 78 78 75 79 62 59 47 47 39 35 32 34 38 42 46 48
45 46 41 36 30 27 24 23 22 19 18 19 23 27 29 33 38 43 47 50 55 60 64 68 72 73 74 74 75 79 75 82 82 70 58 49 47 39 35 34 36 39 43 46
44 45 41 35 31 29 29 25 22 20 22 24 25 28 30 38 38 42 48 51 58 63 67 71 75 76 78 78 83 82 89 83 80 84 69 62 60 58 42 35 34 37 41 45
45 44 40 36 34 33 28 26 23 22 22 25 26 27 32 36 38 43 49 53 59 65 70 72 75 81 83 86 90 92 95 88 96 92 89 77 71 69 58 42 35 36 39 43
44 43 39 33 32 32 28 25 23 23 21 27 27 25 30 36 41 45 50 54 60 65 70 73 77 82 85 90 93 96 99 100 100 107 104 85 80 78 68 53 42 36 38 41
44 39 36 37 35 32 26 26 25 24 24 29 30 26 32 38 41 46 49 53 60 66 70 77 76 80 84 88 94 97 100 103 105 111 112 107 100 94 83 66 52 41 39 42
40 36 38 39 36 29 28 28 27 23 28 31 32 31 34 40 45 47 52 56 62 67 70 76 78 83 84 92 95 97 104 103 106 109 116 112 100 101 89 69 54 49 45 40
39 38 38 39 35 36 32 32 27 28 28 27 29 32 36 41 47 50 53 58 63 67 70 77 80 85 88 93 94 101 104 106 110 115 116 118 107 99 86 69 55 44 47 55
41 40 39 41 36 36 35 32 29 28 28 29 30 33 37 45 47 51 54 59 64 66 72 78 80 87 90 94 103 105 109 111 114 120 121 118 105 98 85 68 56 51 50 49
39 39 40 39 40 41 38 35 29 29 32 33 35 39 42 46 49 51 55 59 65 71 74 82 81 85 92 98 102 109 110 116 121 125 124 116 108 100 80 67 59 53 52 54
38 38 38 37 41 43 42 34 30 31 34 35 39 43 45 48 52 53 57 61 67 73 78 79 85 94 95 103 110 109 115 118 124 126 124 113 107 92 77 66 61 56 52 51
38 37 36 38 42 45 40 35 33 36 37 41 42 44 48 52 53 58 61 66 72 77 79 83 90 95 100 106 107 113 116 120 121 136 120 111 103 85 74 66 60 56 50 46
37 36 39 42 47 48 41 37 37 39 41 43 45 50 53 52 56 61 66 70 75 78 84 90 95 99 104 106 109 116 119 121 130 134 111 109 94 80 69 65 58 49 43 42
37 37 39 43 45 45 44 42 43 41 44 48 51 56 55 58 60 65 72 76 80 85 88 92 97 103 106 109 114 122 123 129 126 123 108 101 86 75 68 62 52 46 42 40

GFSNW_250_spd_063.txt.gz
Wind_Speed
44 39 40 45 42 40 34 29 39 37 41 35 36 40 38 48 53 58 61 58 53 52 43 38 32 23 17 12 9 9 14 21 29 34 36 41 46 50 53 57 59 61 62 65
43 44 41 39 34 34 28 27 31 30 35 29 31 34 35 44 51 54 57 55 54 52 51 43 36 28 20 15 11 6 7 19 26 32 36 40 44 47 51 53 57 59 62 64
47 45 42 33 37 30 27 25 27 27 26 25 30 29 32 42 46 49 51 54 56 52 51 45 39 31 25 17 10 9 6 13 20 26 32 36 40 44 47 49 53 57 61 63
51 48 40 38 29 28 24 25 22 22 20 21 27 26 28 35 40 44 48 52 52 56 51 48 42 38 30 24 17 10 8 8 12 21 26 33 36 40 42 47 51 52 57 59
58 45 45 34 34 31 23 22 21 17 16 18 23 23 23 31 36 39 45 50 54 55 53 47 45 41 38 31 25 20 12 9 13 13 16 31 35 38 42 47 49 52 55 59
56 50 41 39 36 29 25 23 19 15 12 15 19 21 22 27 30 36 43 51 54 57 55 54 53 45 39 38 33 27 20 15 14 14 15 22 26 38 43 47 50 52 56 59
55 50 42 44 36 30 27 22 17 14 11 12 15 19 22 22 27 35 42 48 53 54 59 59 55 53 54 46 38 34 28 22 17 13 16 19 24 30 36 45 49 53 55 58
61 50 48 42 35 32 27 23 18 13 7 10 13 17 22 21 26 30 37 44 50 51 54 56 55 60 50 44 46 43 41 37 30 21 17 19 26 29 31 35 40 44 47 53
56 59 49 43 37 36 28 25 19 13 5 7 10 14 19 20 25 31 39 41 47 54 55 53 53 60 58 60 58 50 47 42 38 34 29 23 28 30 29 33 40 41 43 46
54 52 44 44 38 36 30 25 19 12 5 8 6 12 17 23 27 32 37 44 46 50 52 54 57 60 58 61 54 58 63 57 45 40 36 30 24 25 30 34 40 45 45 46
58 49 44 42 40 38 31 25 19 12 7 9 8 11 16 18 27 30 33 39 44 48 49 52 48 54 63 60 59 53 58 63 65 57 51 45 36 32 28 32 37 41 44 48
60 52 48 44 41 35 30 25 19 14 9 10 7 9 14 19 24 28 34 37 42 48 51 51 50 57 57 62 62 62 60 64 65 70 66 48 43 42 33 30 31 39 42 44
57 53 46 44 42 36 33 26 21 15 12 11 10 9 13 18 23 27 33 37 41 45 50 51 48 56 55 57 63 69 63 65 74 73 77 75 56 49 41 31 29 32 39 46
56 49 46 43 40 36 31 27 21 16 14 12 12 9 11 18 22 27 34 38 41 45 50 53 53 58 59 57 62 66 71 66 65 78 82 82 82 68 60 51 37 29 33 38
54 52 47 43 38 35 32 28 21 19 15 12 10 13 13 17 23 27 32 38 42 46 50 53 57 58 60 65 67 72 74 73 78 79 82 80 89 76 72 72 54 38 31 34
56 47 42 40 38 35 32 26 22 19 16 14 12 14 11 16 24 29 32 40 44 46 50 54 58 65 66 70 73 76 79 82 85 84 88 93 91 82 77 72 66 53 38 32
47 44 41 41 39 37 31 27 23 21 19 17 14 13 12 18 22 27 33 39 46 47 51 55 60 66 70 74 76 81 84 86 85 89 88 97 95 97 93 78 65 57 50 39
48 45 42 39 38 34 30 28 25 24 22 19 16 17 17 19 24 28 34 41 47 48 51 55 60 65 71 73 77 81 86 87 86 91 96 97 96 105 98 86 76 64 52 41
50 46 41 39 38 36 33 29 29 26 22 19 18 19 21 24 27 29 33 41 48 49 52 56 59 66 71 72 79 82 87 87 93 99 101 103 110 113 118 101 90 76 61 48
47 46 44 41 37 34 33 33 30 26 20 19 18 15 18 24 27 31 36 44 49 52 55 58 63 67 70 74 80 85 91 93 94 97 102 108 110 118 117 95 85 74 62 54
48 50 46 40 40 38 35 32 29 26 20 18 19 19 20 26 29 33 40 45 50 54 57 60 65 70 73 76 81 86 93 97 98 102 107 111 113 117 113 96 86 74 60 52
51 46 42 42 41 37 34 31 27 22 18 17 21 21 24 31 33 36 41 44 50 55 58 63 67 72 76 80 85 93 95 99 103 104 108 111 112 117 103 92 84 73 63 55
47 41 38 37 35 34 34 32 31 26 24 25 26 26 29 34 35 39 44 47 53 59 63 66 69 73 78 84 88 92 97 101 104 108 112 115 121 112 96 87 78 68 61 56
43 41 40 37 34 36 36 34 34 29 29 28 28 30 34 38 39 42 46 51 57 63 66 69 71 77 82 87 89 97 102 101 108 109 115 122 127 110 98 87 76 64 57 54
36 34 34 37 39 38 39 40 37 32 30 30 33 36 38 42 45 47 51 57 60 66 70 72 75 80 84 89 94 98 105 107 106 114 120 125 126 103 96 83 73 61 52 47
40 39 41 43 42 42 43 40 38 35 34 34 38 39 39 45 48 51 56 59 63 69 72 75 78 83 87 91 97 101 107 107 112 118 125 128 120 102 89 78 70 61 51 47
40 42 43 44 45 45 40 38 37 36 37 39 43 42 45 49 51 54 59 64 68 73 76 78 81 86 91 95 99 105 111 113 117 121 128 127 116 99 81 70 66 59 50 47

GFSNW_250_spd_066.txt.gz
Wind_Speed
67 64 47 45 44 41 33 32 28 23 24 23 23 25 32 40 46 45 50 49 43 40 41 38 29 23 18 16 13 4 3 10 18 26 36 41 47 51 55 59 60 61 62 65
69 60 54 51 41 38 35 29 24 18 21 17 18 19 26 35 38 46 48 47 43 45 45 40 32 27 23 19 16 12 4 5 11 16 24 34 42 45 49 52 56 56 59 62
67 58 53 49 47 38 35 29 21 22 15 12 11 17 22 30 35 42 46 45 45 47 46 40 36 30 27 24 20 13 7 4 6 10 16 25 32 39 43 46 50 53 56 59
62 58 54 51 47 41 32 29 25 20 10 8 8 13 18 27 32 37 40 44 48 51 48 43 39 39 33 31 27 21 14 7 3 5 6 14 24 31 39 44 47 50 53 54
69 62 56 48 48 39 36 29 27 19 9 5 6 11 16 19 25 30 35 41 47 51 52 49 47 49 45 41 34 26 21 16 10 4 6 8 12 26 31 36 41 47 49 51
64 58 55 58 48 46 34 32 27 17 12 5 3 8 11 13 20 27 34 38 43 46 48 52 55 53 50 47 42 35 29 22 16 11 8 10 13 16 21 30 38 43 47 50
65 62 60 57 54 44 41 34 25 19 12 7 1 5 12 11 16 23 29 37 41 47 48 48 48 54 56 55 49 43 39 37 29 22 17 14 12 16 19 23 29 35 41 45
71 68 63 58 51 46 42 34 26 21 15 9 5 3 11 11 16 21 26 33 37 41 47 46 45 47 48 55 60 60 54 54 44 35 29 22 19 18 21 24 27 33 38 42
70 71 67 58 51 49 42 36 29 23 16 11 6 3 7 11 16 21 26 31 35 36 46 43 42 43 41 44 45 50 57 54 62 54 45 43 33 24 18 18 27 35 38 42
69 62 58 52 53 47 40 36 30 23 16 12 6 1 3 5 12 19 25 29 35 33 39 41 40 48 52 47 40 43 41 48 56 55 52 50 54 47 30 29 26 27 32 42
66 63 53 51 50 44 40 37 31 23 18 12 7 2 4 6 10 18 23 29 31 35 36 40 42 47 44 50 50 50 47 48 56 56 56 63 60 54 54 33 25 29 33 38
67 58 55 54 49 45 42 37 30 23 17 12 9 4 4 6 10 16 23 27 33 36 38 40 45 49 44 46 55 56 51 53 57 57 55 63 63 69 54 54 34 27 31 38
64 60 58 55 46 46 42 38 31 23 17 13 9 6 3 7 10 16 23 28 33 37 40 41 45 47 49 46 52 53 59 58 58 58 59 70 64 69 70 63 53 41 29 28
64 60 55 53 45 46 43 38 30 22 19 14 10 8 4 6 8 14 18 24 31 36 40 43 46 47 51 51 53 55 53 59 61 61 66 70 75 80 76 64 66 57 52 39
66 61 54 51 44 48 44 35 26 22 20 15 11 11 7 7 9 14 17 23 29 34 38 43 47 50 53 56 58 57 63 62 70 62 72 74 77 83 78 77 68 69 54 49
64 59 53 50 48 47 36 37 29 26 22 16 13 12 7 8 12 15 20 23 26 32 39 43 46 51 56 60 62 63 68 68 69 71 79 79 84 92 90 95 101 93 80 59
60 59 54 48 48 46 46 37 30 24 22 17 14 14 11 9 12 18 21 24 28 34 38 43 47 52 57 62 64 67 70 72 78 84 86 88 88 96 94 97 103 95 88 74
56 53 49 47 47 44 43 34 31 25 22 19 16 17 16 14 17 20 22 26 29 34 39 42 47 53 59 64 67 71 72 77 81 82 88 89 94 100 96 99 101 105 93 81
55 51 47 46 47 44 39 36 32 25 23 20 18 17 17 15 17 22 25 28 30 35 40 44 50 54 61 67 71 71 75 80 82 85 88 93 101 106 101 106 102 106 100 84
54 51 47 45 43 42 40 36 33 28 24 21 19 19 17 17 21 23 27 31 33 37 41 47 52 56 62 67 72 76 78 80 84 89 89 98 101 108 108 109 105 105 103 82
50 51 50 47 45 43 39 34 31 27 25 24 20 20 19 20 23 27 31 34 38 40 45 50 56 60 64 69 73 78 82 84 87 92 95 100 105 110 113 114 105 105 98 81
55 51 46 46 46 43 39 36 31 32 29 24 22 25 20 20 27 31 35 39 41 44 48 53 58 61 65 71 75 80 84 87 89 92 99 102 107 108 112 110 104 107 94 79
55 51 43 41 40 40 38 34 34 34 29 24 27 26 22 23 30 35 39 43 45 48 52 56 60 63 69 75 78 81 86 89 93 95 101 105 110 109 112 109 104 102 86 77
54 49 45 39 40 41 41 39 36 31 28 26 27 27 25 28 33 39 42 46 48 52 56 59 63 67 72 76 80 83 88 92 96 101 107 108 111 118 113 108 108 94 77 71
55 46 42 44 43 40 40 37 32 31 29 30 31 29 31 33 36 41 44 49 51 55 57 61 66 71 74 77 82 87 91 95 101 105 108 111 117 118 118 109 107 89 76 69
57 51 50 45 41 39 38 34 33 32 33 33 35 36 38 38 40 45 48 49 52 55 58 63 68 73 76 80 86 91 94 98 104 108 111 117 116 121 121 106 102 84 74 69
53 54 51 45 43 38 37 37 35 34 34 36 39 41 40 40 45 48 49 51 54 59 61 66 70 74 78 84 90 95 98 102 107 113 114 119 119 119 111 104 92 78 71 67

GFSNW_250_spd_069.txt.gz
Wind_Speed
29 59 67 62 54 53 44 39 31 26 19 13 7 17 25 30 30 28 36 35 32 34 33 31 26 22 19 18 14 14 9 8 16 24 31 37 43 48 50 54 59 61 67 68
33 50 61 60 64 53 47 38 32 25 19 13 6 13 18 25 27 27 34 34 34 36 32 31 29 27 24 22 18 18 14 12 5 11 20 30 36 40 42 49 56 60 62 61
35 50 65 65 61 59 52 44 36 26 21 13 5 8 12 22 27 32 33 38 37 38 38 42 38 33 29 30 24 21 15 16 11 6 3 16 26 33 38 43 46 49 52 55
51 54 64 63 59 53 50 43 36 29 23 15 5 5 10 18 25 31 36 39 41 43 44 45 42 40 38 38 35 29 24 17 10 7 6 3 6 19 28 36 40 43 45 48
61 64 64 68 64 60 51 44 37 33 25 15 8 7 6 13 21 26 32 38 45 47 48 44 44 44 46 53 47 41 33 26 18 13 9 3 4 8 12 21 29 34 37 43
62 58 59 66 62 57 53 45 41 34 27 17 12 10 5 10 16 23 29 35 38 42 43 45 47 48 50 51 49 46 41 37 30 23 15 10 8 8 12 16 21 25 30 36
61 61 68 64 63 57 51 45 40 34 26 19 15 13 8 10 15 19 25 31 35 39 40 42 43 42 47 49 48 47 46 40 40 36 36 31 19 16 15 16 20 24 29 34
62 64 67 64 60 55 52 48 43 33 26 20 17 14 13 11 15 21 22 29 32 35 41 41 41 41 46 48 48 47 50 42 43 46 45 45 38 31 28 23 25 24 27 32
65 62 62 63 60 54 51 49 43 32 24 23 20 16 15 12 11 19 22 22 28 32 35 32 40 43 37 44 47 48 51 55 51 49 43 30 39 45 49 41 28 30 31 30
62 63 62 58 54 53 50 46 41 31 23 22 20 13 10 8 8 17 24 28 29 32 36 37 34 42 37 42 45 43 39 42 48 51 52 55 42 40 35 32 32 33 32 34
52 59 63 57 52 52 49 45 38 29 22 21 19 13 11 12 9 16 21 27 31 34 38 41 44 45 43 42 46 45 45 47 47 55 51 58 59 54 48 43 45 48 41 32
59 63 61 58 52 50 49 44 36 30 24 21 19 11 7 8 7 10 17 21 26 29 35 40 43 47 48 46 43 49 47 53 48 52 55 61 58 61 64 55 48 47 48 43
63 57 56 54 52 51 48 40 35 27 23 21 18 9 5 3 4 8 13 17 21 26 29 33 38 41 45 49 52 52 51 56 53 53 54 64 64 68 71 69 61 60 55 59
62 56 53 55 52 51 45 40 35 27 22 18 16 9 5 1 2 8 12 17 21 26 29 32 36 40 42 46 49 55 57 58 58 59 65 67 67 74 74 84 74 74 70 73
62 56 55 55 48 51 45 38 32 23 23 19 14 10 6 3 4 7 11 16 21 24 27 32 35 39 43 46 49 53 56 60 65 65 66 67 73 78 82 84 86 88 84 80
59 58 55 57 50 49 45 38 33 25 22 18 14 11 8 6 6 9 13 16 19 24 27 31 36 39 43 48 50 53 57 60 64 67 70 74 78 80 87 90 94 93 98 85
58 57 56 52 53 54 47 41 34 27 23 20 14 11 10 8 9 12 16 17 19 25 29 33 37 40 44 48 52 55 59 64 67 71 73 77 82 84 89 94 101 97 97 91
57 57 54 51 53 51 47 39 32 24 21 21 15 11 9 11 13 16 18 21 23 26 30 35 38 43 47 50 53 57 62 66 69 70 76 83 85 90 93 95 99 104 104 95
58 53 52 51 46 53 52 37 33 27 24 23 19 15 11 13 15 16 18 24 24 28 31 35 40 44 49 53 56 59 65 67 72 76 80 85 88 91 94 101 106 103 102 99
59 55 51 48 49 50 47 42 36 29 28 24 22 17 14 15 18 18 20 25 29 31 34 40 44 48 53 56 60 62 67 71 76 79 84 86 93 96 97 103 105 113 108 100
58 56 55 49 46 48 44 45 40 32 28 27 24 19 16 18 21 22 22 26 31 34 37 42 47 52 54 59 63 66 70 73 77 81 84 91 96 100 103 106 109 114 106 100
60 56 55 50 47 47 45 44 39 35 34 31 27 20 18 22 25 27 26 29 33 37 41 45 50 54 57 62 65 70 73 76 80 85 89 93 98 100 103 111 117 111 106 103
58 56 50 47 44 41 42 40 38 36 38 34 27 22 25 25 28 32 32 33 36 40 44 48 53 57 59 64 67 72 76 78 83 86 91 94 101 103 107 115 113 104 103 101
55 53 52 47 46 44 44 44 42 41 38 34 30 27 27 28 29 30 32 36 40 44 47 51 55 59 62 67 68 74 78 82 85 88 94 99 103 107 113 117 110 105 103 100
58 55 51 49 47 47 46 43 42 41 40 34 31 31 30 29 32 34 37 40 44 46 48 51 56 61 65 68 72 75 80 84 89 94 99 102 105 107 121 116 110 107 103 95
58 54 53 50 51 48 46 45 42 41 35 32 30 29 31 31 35 39 41 43 46 48 50 53 58 63 67 70 75 80 85 89 93 97 101 104 107 114 114 115 111 109 99 86
59 58 57 52 47 45 43 43 40 35 36 36 33 32 33 35 38 40 43 47 49 51 53 57 61 66 70 74 78 84 88 93 96 101 106 105 108 117 112 111 111 103 93 81

GFSNW_250_spd_072.txt.gz
Wind_Speed
17 25 38 47 66 56 50 46 42 38 29 20 15 10 6 9 17 23 23 23 23 26 26 26 27 25 21 18 20 17 11 5 4 11 15 21 25 30 34 36 40 45 47 51
18 33 44 57 46 59 60 52 46 38 29 18 10 3 10 13 21 25 23 23 26 26 30 32 33 32 27 23 23 23 20 16 9 5 11 17 22 27 30 33 35 39 42 44
27 39 48 55 56 55 58 55 47 40 29 18 9 8 17 17 20 23 25 27 27 31 35 38 38 39 36 35 32 26 21 17 15 13 7 3 10 17 24 27 30 36 40 43
28 43 50 50 61 61 58 54 48 41 31 22 15 15 17 20 24 25 29 32 32 35 39 39 42 47 50 47 46 41 37 28 18 12 8 6 8 5 12 16 23 30 36 41
29 47 50 57 63 63 62 54 47 40 31 23 19 19 16 19 23 28 33 37 39 44 47 49 48 51 51 51 50 53 50 47 40 34 25 17 10 5 6 11 17 22 28 35
34 32 47 55 63 64 61 54 47 41 32 24 21 20 18 19 22 29 34 38 42 48 46 49 49 50 48 51 54 55 54 52 50 48 40 37 28 21 12 5 9 17 23 29
35 34 50 64 65 63 56 51 49 40 33 27 23 22 20 21 23 27 32 36 40 42 42 42 43 45 43 46 46 47 47 49 51 49 46 43 36 33 28 24 19 18 13 17
36 37 53 63 63 59 53 47 46 40 34 29 27 24 23 23 22 26 31 31 33 35 37 38 40 43 45 44 45 48 45 42 44 44 46 47 48 43 40 38 39 32 28 24
23 36 49 64 62 57 53 47 43 40 36 30 26 24 24 24 26 28 32 33 33 35 39 38 45 42 38 46 41 47 42 47 50 46 46 41 36 39 37 42 40 40 36 33
34 45 58 64 59 55 50 45 40 38 34 28 26 21 21 22 26 30 33 34 37 38 41 40 42 44 47 48 47 48 47 49 46 49 50 51 50 51 51 43 40 39 40 38
33 50 61 61 56 53 48 42 39 37 33 26 21 20 22 23 22 24 27 30 32 33 36 37 40 39 39 43 42 46 47 47 47 50 51 56 55 58 57 58 58 53 52 48
45 57 60 57 55 51 46 40 36 34 30 25 22 19 17 16 15 17 20 23 24 27 30 31 34 36 39 41 40 41 46 45 47 51 52 54 56 59 62 64 66 68 64 71
56 59 58 57 53 49 45 35 31 31 30 27 20 17 13 11 11 13 15 19 22 25 28 30 33 36 40 41 42 43 46 49 50 52 53 57 58 63 68 69 69 69 76 78
56 56 55 56 53 46 40 32 27 28 27 22 17 15 12 9 8 9 13 16 19 23 26 30 34 36 38 41 43 44 48 50 51 53 56 57 63 66 69 72 72 76 80 88
57 55 53 52 51 46 38 32 26 24 25 20 16 12 10 7 4 6 11 14 16 20 24 27 30 33 36 40 42 45 48 52 54 57 60 64 66 69 71 73 78 77 85 85
53 53 48 50 49 44 38 32 27 23 24 20 14 10 7 5 1 4 8 13 15 18 22 26 29 33 36 39 44 47 49 52 57 60 65 66 68 70 74 77 80 84 85 89
51 49 47 51 51 45 40 33 27 21 20 17 16 12 7 5 2 5 9 13 15 17 21 25 30 32 37 41 44 47 51 53 59 63 64 67 68 70 77 81 84 83 87 94
52 50 51 50 49 44 37 31 25 21 19 18 14 12 9 7 7 7 11 14 16 18 22 26 29 34 37 42 46 49 53 58 60 64 66 70 72 76 81 83 88 90 95 95
54 50 53 51 48 46 38 34 27 24 20 21 20 16 12 8 10 10 14 17 18 22 24 29 31 35 40 44 48 51 56 59 61 66 69 76 76 82 83 88 91 95 100 102
54 51 56 52 48 42 44 37 29 27 22 20 22 21 16 13 12 13 17 21 23 26 29 34 36 40 44 48 50 54 57 61 65 70 75 78 80 85 88 91 95 101 102 109
54 54 55 54 52 44 47 40 34 30 26 23 24 23 24 21 15 16 20 23 26 32 33 36 39 42 45 47 51 55 60 64 68 73 76 81 84 88 92 96 100 108 105 110
59 57 53 50 48 44 50 43 41 32 30 25 29 31 28 25 22 21 23 27 29 33 34 36 41 45 48 51 53 58 62 66 72 77 80 84 87 93 96 99 104 111 112 112
62 56 52 48 45 47 42 43 47 39 39 33 31 33 31 29 29 25 26 29 32 34 36 40 43 47 50 53 56 60 64 69 74 79 81 86 91 96 101 102 106 112 114 114
62 59 55 49 43 42 44 46 50 45 46 42 38 36 36 35 32 31 31 34 36 39 39 41 43 47 51 55 59 63 67 72 76 83 85 87 95 101 104 108 112 113 114 117
66 63 56 50 47 47 47 46 49 48 45 44 46 43 40 38 36 35 36 40 42 41 39 42 46 49 54 59 63 67 72 77 80 86 88 93 99 102 108 111 119 116 117 120
67 62 56 53 54 52 50 49 48 47 48 47 45 42 42 40 36 37 37 39 41 41 41 44 47 52 57 63 67 71 75 81 83 90 91 96 102 106 111 117 119 120 119 120
65 62 59 56 57 55 50 47 46 44 43 45 45 44 42 41 39 40 42 44 44 45 45 47 52 57 63 67 72 75 78 84 87 92 95 103 106 108 112 119 116 116 119 114

GFSNW_250_spd_075.txt.gz
Wind_Speed
9 8 15 28 35 44 52 47 41 41 40 38 32 27 22 20 19 15 15 17 15 17 18 18 17 23 23 24 22 17 19 19 13 12 7 8 9 13 16 23 26 29 31 37
11 14 27 36 41 51 47 48 48 45 43 36 31 33 29 25 24 22 23 20 21 23 26 28 29 31 33 33 30 29 26 23 19 16 15 12 10 11 10 11 15 20 21 30
10 12 36 44 45 45 53 55 49 46 42 38 39 37 32 28 29 31 22 24 28 30 33 39 41 42 41 40 38 37 33 30 28 25 19 15 12 10 9 7 11 17 19 20
8 6 43 46 45 48 53 54 53 48 41 38 40 40 36 33 34 32 28 32 35 40 45 51 51 47 50 53 55 51 45 41 39 36 30 25 21 15 10 4 8 10 12 17
12 20 39 43 48 53 53 50 49 47 44 41 39 36 37 36 38 37 38 38 42 45 50 51 53 56 58 60 57 52 51 53 50 46 41 39 35 29 21 15 10 9 11 16
7 25 33 44 55 49 52 47 46 47 46 41 37 35 34 39 41 42 43 45 49 52 54 56 55 57 59 57 56 54 54 53 51 48 46 43 41 39 34 31 26 20 12 12
20 27 39 53 53 52 49 48 44 48 46 42 36 34 35 38 42 43 45 48 51 52 53 51 52 50 51 51 49 52 50 51 50 49 46 45 40 40 38 37 34 27 23 18
17 19 38 54 52 50 47 46 44 47 46 41 35 33 33 34 38 42 43 44 46 48 49 47 50 50 50 51 46 43 42 41 43 47 49 48 49 47 44 40 39 41 39 34
24 43 55 52 48 47 46 47 43 45 43 40 38 36 35 35 36 38 39 40 41 41 40 39 40 41 44 45 43 43 40 42 42 44 43 42 41 41 42 42 39 37 37 41
35 52 54 50 47 45 43 44 41 41 39 38 35 35 36 36 38 38 38 40 39 36 38 38 37 39 41 38 39 42 42 46 44 48 42 42 42 44 44 45 47 45 44 43
49 53 52 48 46 44 41 41 40 38 35 35 34 35 35 35 34 33 32 33 34 35 36 37 38 39 40 40 40 43 42 42 47 46 49 47 48 50 50 50 53 56 55 53
45 49 49 48 45 43 41 38 35 33 33 33 32 29 27 27 27 27 29 29 31 32 33 34 35 37 39 39 41 43 43 46 47 47 49 50 52 51 55 54 56 60 61 63
47 48 46 46 44 40 38 36 31 31 31 29 25 22 20 19 21 21 22 22 24 26 28 30 31 33 35 37 38 39 42 44 47 46 49 52 53 53 55 57 60 63 65 67
46 47 45 44 42 38 35 32 30 27 26 24 20 18 15 14 15 16 17 17 20 23 24 25 27 30 32 35 37 38 40 43 45 47 51 52 55 57 57 59 61 65 70 70
43 44 43 42 41 36 31 30 29 28 24 23 20 15 12 10 11 12 13 13 15 18 20 23 25 28 30 33 35 37 41 43 46 50 52 53 56 59 63 63 64 68 74 74
40 41 40 41 40 36 31 29 29 25 20 17 15 13 9 6 5 6 8 11 12 14 17 21 23 26 30 33 37 39 41 45 48 50 54 56 59 62 65 68 69 71 78 78
40 40 39 39 38 34 30 23 20 18 17 14 11 8 6 3 1 3 5 8 11 13 17 22 25 29 31 33 36 38 42 45 49 52 56 58 61 64 66 72 75 78 82 82
41 42 40 38 36 32 30 24 19 17 15 12 10 7 6 4 4 6 8 10 13 15 20 24 28 31 33 34 37 40 43 47 49 52 57 61 65 69 69 75 78 82 86 86
46 42 43 40 37 34 30 26 20 16 14 14 13 11 9 8 8 8 11 13 16 19 22 24 28 31 35 37 38 41 43 46 50 56 61 66 68 72 73 79 84 85 90 96
49 43 47 45 43 38 35 31 25 18 17 16 17 16 15 16 15 15 14 17 18 20 25 28 31 34 37 40 40 42 46 50 54 59 63 68 72 75 78 82 88 93 92 104
51 48 46 48 45 43 43 35 30 26 23 21 20 20 20 19 20 22 23 24 24 26 28 32 35 37 41 41 42 43 47 52 57 63 67 69 75 79 84 86 94 96 98 106
57 54 49 50 50 49 45 40 33 32 27 27 29 27 25 25 26 27 28 28 31 34 35 36 38 40 43 42 43 46 51 55 61 66 71 72 76 81 88 91 97 100 105 109
50 60 55 51 55 49 47 43 42 42 39 39 36 33 29 31 31 31 32 32 34 37 40 41 41 44 45 46 46 50 55 58 64 69 74 76 80 84 89 95 99 103 107 111
60 59 62 58 51 50 53 49 47 45 44 44 43 40 39 35 35 39 39 38 40 41 43 45 45 47 49 51 51 52 58 62 67 72 76 79 84 89 94 100 102 107 110 115
55 62 64 56 52 57 58 56 52 50 51 48 43 42 42 41 44 45 43 45 45 44 46 47 48 51 51 54 55 57 61 66 70 74 77 82 87 92 101 103 104 110 114 118
51 61 63 64 58 58 59 59 56 50 51 50 49 51 50 48 46 46 47 45 45 44 47 49 52 53 53 56 58 60 63 68 72 76 81 85 90 96 101 104 108 113 116 121
53 61 70 70 64 61 58 57 58 52 51 47 49 49 49 47 47 49 47 47 47 45 44 46 52 51 53 58 60 63 67 71 73 78 85 87 95 99 104 105 112 116 120 125

GFSNW_250_spd_078.txt.gz
Wind_Speed
27 21 16 28 35 46 46 50 51 48 52 48 43 38 35 31 25 23 17 14 15 16 17 16 17 20 22 21 23 23 21 23 21 22 19 16 11 9 12 11 14 21 25 30
22 23 33 39 45 43 44 50 55 53 52 50 45 40 37 34 29 24 23 22 21 22 25 26 27 27 29 28 29 30 29 28 24 22 21 22 23 15 7 6 7 9 7 11
24 31 36 41 41 45 57 58 57 54 54 52 48 43 39 38 34 33 28 28 30 33 37 41 43 41 40 40 40 37 36 34 32 27 20 19 19 18 15 12 12 10 10 9
29 35 38 38 46 54 55 57 59 58 58 53 49 45 41 41 43 37 35 36 39 43 48 50 53 55 53 51 51 49 48 45 42 35 32 28 24 21 17 14 10 6 3 4
30 30 38 50 56 56 60 60 61 62 57 52 50 48 46 44 45 42 47 47 49 53 53 50 52 53 55 56 53 50 46 47 47 46 45 45 40 33 26 22 20 16 12 7
24 26 37 51 51 57 63 62 57 62 56 54 50 50 49 46 44 47 50 52 54 57 58 58 57 58 59 57 56 52 51 49 47 46 45 43 39 38 36 34 29 26 23 19
18 31 41 46 50 55 59 58 58 60 56 54 50 51 50 51 51 54 56 58 59 57 58 55 52 52 52 52 51 49 49 49 48 46 45 45 41 40 36 34 34 31 26 23
27 34 40 43 48 51 54 55 54 55 54 50 48 48 49 52 53 54 53 55 55 55 54 53 51 50 49 46 45 44 42 44 45 44 43 42 41 41 39 41 38 34 32 27
24 35 40 43 46 48 50 48 49 49 49 45 45 45 45 47 49 48 49 50 49 49 49 48 48 46 46 42 42 45 45 42 41 43 41 40 38 37 37 36 36 39 38 36
27 34 37 41 43 45 45 46 45 45 47 44 42 41 42 43 43 44 45 46 46 46 45 44 44 44 41 41 42 39 42 41 39 39 41 40 38 38 38 39 39 40 39 41
26 30 32 37 39 41 43 42 42 42 43 43 41 39 38 39 39 38 40 41 41 40 39 39 37 38 37 39 39 38 38 39 38 38 40 39 37 38 40 41 42 44 46 44
24 23 28 33 35 36 38 39 40 40 40 38 34 33 33 32 33 33 34 34 35 33 33 33 34 34 34 34 35 35 37 37 36 37 39 39 39 40 42 44 46 48 51 52
21 19 22 27 31 30 30 34 35 34 31 30 28 26 25 26 25 26 26 28 28 29 29 29 28 29 31 31 33 34 35 36 36 37 39 41 43 45 46 48 49 52 56 57
19 17 17 21 24 25 25 27 28 27 25 22 20 19 18 19 20 20 20 21 22 23 24 25 26 28 29 29 29 31 32 33 35 39 40 43 45 47 50 50 53 55 59 62
20 19 16 16 21 21 22 21 20 20 18 16 14 11 12 13 14 14 14 14 15 18 20 21 23 24 26 27 27 28 29 31 33 36 40 43 46 47 51 54 55 60 61 66
25 22 21 18 17 17 16 16 15 13 13 11 10 8 7 6 7 8 10 10 12 14 16 17 19 23 24 26 29 28 28 31 32 37 41 45 48 51 54 57 59 63 68 72
29 28 25 23 19 15 14 15 14 11 9 7 5 3 2 1 3 6 7 10 12 15 15 17 19 21 25 26 30 31 30 32 36 38 42 47 52 56 58 59 63 68 70 78
34 34 32 30 27 21 18 17 15 13 11 8 7 7 7 6 6 8 10 11 13 15 17 20 24 26 29 30 34 36 37 36 39 42 45 50 55 59 60 63 68 73 76 82
39 42 40 36 35 29 25 22 19 16 13 13 14 14 14 14 12 14 15 15 17 22 24 27 30 33 35 35 37 41 40 42 44 46 50 54 58 61 63 68 73 79 82 86
38 45 46 45 42 41 36 31 26 21 19 17 18 19 20 20 20 20 22 22 23 25 29 30 33 36 38 40 41 40 42 43 46 49 53 57 61 65 67 71 76 82 85 92
35 44 53 50 48 45 43 39 34 30 29 24 22 24 24 23 23 26 25 26 25 27 30 33 36 39 41 42 43 44 46 47 49 53 56 60 65 68 71 75 82 88 91 95
34 39 49 53 51 51 45 43 42 40 38 36 33 30 30 29 32 30 29 29 29 32 32 35 41 41 44 46 49 51 51 51 52 55 59 64 68 71 75 79 85 93 96 101
22 38 45 56 55 50 52 52 51 49 48 41 39 36 33 34 37 38 39 39 39 38 38 38 42 42 45 48 49 51 54 53 57 59 62 67 71 72 78 83 89 93 102 104
50 36 41 54 59 56 58 60 56 55 52 49 47 42 42 42 41 42 45 44 44 43 44 45 47 47 49 45 49 52 54 55 59 62 65 69 74 76 80 87 93 97 103 108
51 45 39 49 59 64 65 65 63 61 57 52 49 46 46 45 43 46 47 43 45 48 49 50 51 48 47 46 49 50 54 57 59 63 67 72 75 80 86 91 97 100 107 110
50 46 36 47 59 69 72 69 66 67 64 61 57 52 48 48 46 46 48 48 50 47 47 47 47 44 44 46 49 52 55 57 61 65 70 73 76 81 88 95 99 105 107 110
59 56 33 45 61 69 77 76 69 68 69 66 61 57 54 50 49 53 55 53 49 49 49 49 44 47 46 51 51 53 56 59 62 67 71 73 77 85 90 95 102 106 110 114

GFSNW_250_spd_081.txt.gz
Wind_Speed
48 48 48 48 49 52 49 47 44 45 48 46 42 40 40 37 34 29 26 22 20 18 15 14 12 13 15 14 13 13 13 17 21 23 24 18 17 15 12 13 13 14 16 19
49 47 49 44 46 45 47 47 46 42 44 45 44 42 42 39 36 31 28 28 23 20 20 22 21 20 21 21 20 21 19 17 21 20 23 24 21 21 17 16 11 10 9 12
42 43 42 45 45 46 47 47 48 45 45 45 44 45 43 41 39 35 33 30 27 29 30 32 31 30 31 30 29 28 28 27 25 22 19 18 21 19 20 18 18 15 12 9
38 40 45 48 48 49 50 50 50 50 48 48 49 47 45 47 44 40 40 38 38 38 42 45 45 44 43 42 41 41 39 37 34 31 28 24 24 22 16 13 17 15 15 15
38 42 43 44 48 48 51 55 54 55 54 55 52 54 53 48 47 44 45 48 51 53 54 52 51 50 52 52 52 51 49 45 46 45 43 41 39 33 28 24 20 19 14 11
32 40 39 43 49 51 53 54 58 58 57 58 58 58 57 53 52 53 56 58 59 61 61 59 57 57 56 53 52 53 51 49 47 44 44 42 42 39 35 33 32 31 29 24
28 32 40 46 49 51 53 55 56 58 59 60 60 58 56 54 52 54 56 59 57 57 59 56 55 55 54 53 51 51 51 49 49 48 46 44 39 41 41 37 31 32 29 26
23 28 38 45 50 51 52 52 56 57 59 59 59 58 56 56 55 54 56 57 56 58 56 53 51 49 47 47 46 46 46 45 44 44 43 41 42 42 41 39 35 33 28 28
22 27 34 40 45 46 49 49 49 52 53 53 53 53 52 52 52 53 54 53 53 54 51 50 49 48 46 45 44 43 42 41 40 39 38 37 36 36 36 34 32 34 32 34
21 24 30 34 38 39 42 43 43 45 45 46 44 46 46 46 47 48 48 49 49 47 47 45 43 42 41 40 39 38 38 39 37 35 33 32 34 33 32 32 34 34 35 37
17 18 22 25 31 34 35 35 36 38 37 37 38 38 38 40 40 40 41 40 42 41 40 39 39 38 37 37 36 34 33 32 32 32 30 30 33 32 33 32 35 37 37 41
12 13 13 15 21 27 29 31 29 29 28 30 31 31 32 32 32 33 34 34 35 35 34 33 33 31 30 30 30 30 29 29 29 29 29 30 30 32 33 34 34 38 41 43
7 6 7 9 11 17 19 21 21 22 23 21 21 22 22 23 25 26 27 28 28 29 28 28 27 26 25 25 25 24 24 25 26 27 29 30 31 34 35 35 36 42 48 50
1 1 1 3 4 7 11 11 12 12 12 15 15 14 15 15 15 17 20 19 19 19 20 21 22 22 24 24 22 20 21 23 23 25 28 31 34 36 38 39 39 43 49 52
9 6 6 7 5 4 7 7 5 3 2 5 6 9 9 9 10 10 11 10 11 14 15 18 21 24 24 25 27 27 25 23 24 26 29 31 35 38 41 43 44 50 53 57
20 17 12 11 12 10 10 10 8 6 4 2 3 3 3 3 4 7 7 10 12 14 16 19 22 24 25 26 27 28 29 29 29 31 32 35 37 39 43 46 50 53 57 60
25 27 23 20 18 19 16 16 14 12 8 8 8 8 9 9 10 11 11 13 16 18 20 20 22 24 27 29 29 29 32 33 35 38 38 40 42 43 47 50 53 57 60 66
25 29 34 29 25 24 24 22 20 20 15 12 14 15 15 16 17 17 16 16 18 18 19 22 24 25 29 31 32 32 35 38 40 41 41 42 45 48 50 55 58 62 65 70
35 29 33 40 38 33 29 28 27 26 24 21 18 19 21 22 21 22 24 24 22 21 21 22 24 27 31 33 36 37 39 41 42 44 45 46 48 51 53 60 63 67 70 77
46 37 34 40 47 42 40 35 32 31 31 32 28 25 24 24 25 24 25 27 24 23 23 24 28 30 31 34 37 40 43 44 47 47 48 50 52 55 58 63 67 71 74 82
59 45 27 32 41 48 47 46 44 41 40 37 35 35 32 30 30 30 32 32 31 29 28 30 31 36 36 39 42 44 42 44 49 50 54 55 56 58 63 66 70 73 78 84
54 37 40 28 25 42 51 54 53 54 51 48 44 42 41 38 36 34 36 37 36 38 36 37 38 39 42 44 45 47 44 46 49 52 56 58 59 61 65 70 72 76 82 89
48 37 52 39 37 27 40 57 63 61 58 57 57 53 50 46 45 43 42 41 41 42 43 41 39 41 45 45 44 45 45 47 53 56 58 58 62 65 69 72 75 79 86 92
58 44 51 45 35 39 37 48 61 68 66 64 60 59 59 55 53 50 50 47 46 47 49 44 39 44 45 47 49 48 49 54 56 57 59 62 63 66 72 74 78 82 88 94
62 52 48 36 46 42 43 44 46 63 70 69 69 66 62 61 60 58 56 53 49 50 54 50 43 45 51 52 52 52 50 54 58 57 60 63 64 69 74 77 80 85 91 95
66 64 32 42 30 48 40 49 45 45 61 70 72 72 71 66 62 61 60 57 53 55 55 52 49 51 54 54 54 52 51 55 58 59 64 66 67 72 77 81 84 89 94 99
69 77 54 43 47 54 43 52 48 47 43 59 70 75 75 70 65 64 64 64 60 58 56 56 54 52 54 57 54 52 53 58 64 65 64 68 69 75 78 83 86 91 97 102

GFSNW_250_spd_084.txt.gz
Wind_Speed
52 50 49 49 49 47 45 46 44 36 36 38 40 40 38 37 35 32 29 25 25 21 19 18 16 15 12 12 11 10 11 14 15 16 18 19 19 19 17 15 15 15 16 25
46 43 42 41 43 41 41 39 43 35 35 36 37 36 36 38 36 34 33 30 28 26 25 25 23 22 22 20 19 18 19 14 15 16 16 22 21 21 21 19 18 16 10 10
49 46 43 40 38 38 38 37 37 37 36 39 40 40 41 42 41 40 39 37 35 35 34 34 35 33 33 33 33 29 26 25 25 21 16 16 15 15 16 20 18 17 17 11
44 45 46 46 45 44 44 44 46 47 46 44 45 46 46 50 47 45 44 44 46 46 45 47 47 47 45 42 41 38 37 35 33 29 27 26 25 20 19 14 11 8 12 14
43 44 47 48 48 51 52 51 56 55 54 55 54 53 53 54 53 53 52 52 53 52 52 52 54 53 51 50 49 50 47 47 44 43 41 39 36 32 28 24 21 19 15 9
40 43 46 50 49 52 51 58 60 63 59 60 55 55 53 52 53 55 57 57 59 59 59 58 59 57 56 55 54 53 52 49 49 49 48 45 42 42 42 39 34 33 29 26
37 42 44 47 52 53 55 56 60 60 60 58 61 60 60 59 60 61 61 61 59 61 60 60 58 58 57 55 54 52 51 51 49 49 48 46 44 44 37 37 36 30 33 31
36 35 42 44 48 50 50 51 56 56 58 58 61 59 60 61 58 59 59 58 56 58 56 55 54 53 52 50 50 49 48 46 45 43 42 41 40 40 39 36 36 37 32 29
38 35 36 40 43 46 47 48 47 51 52 54 54 55 55 54 52 52 53 53 52 52 52 51 50 49 48 46 44 43 42 42 40 39 38 37 36 35 35 36 34 35 34 34
35 35 32 33 37 39 41 43 43 44 46 46 46 47 48 47 46 47 46 48 48 47 46 44 43 42 41 39 39 38 36 34 32 32 32 31 30 27 26 29 31 30 32 32
29 31 32 29 27 31 33 34 35 35 35 37 38 39 40 40 39 38 39 39 39 38 37 37 36 35 34 34 32 30 30 30 29 30 29 27 26 27 27 27 29 29 30 31
20 22 25 24 20 22 25 25 27 29 27 27 29 30 31 31 31 32 32 31 31 30 30 30 30 29 28 27 26 25 25 25 24 24 24 24 25 27 27 28 30 30 32 35
13 14 16 19 20 17 17 18 19 21 20 20 20 21 22 22 22 21 22 24 25 26 27 27 27 27 26 25 24 22 21 21 22 23 23 23 23 25 27 28 29 33 36 37
12 10 10 12 13 16 14 15 16 16 15 15 14 14 14 14 14 14 14 18 21 22 23 23 25 26 24 24 24 23 22 23 24 24 25 26 27 27 29 30 34 36 39 42
28 18 14 11 12 11 13 13 13 15 14 12 11 11 10 9 10 11 13 15 18 18 17 18 20 21 23 24 25 26 28 28 28 28 29 28 29 31 33 34 36 40 43 47
50 48 26 22 17 17 13 14 15 14 13 14 13 10 11 12 13 15 16 17 16 16 16 16 17 19 22 23 24 25 28 31 30 29 30 31 34 38 39 41 41 45 47 50
48 56 43 27 27 23 22 20 18 18 18 17 17 17 15 14 15 16 18 19 22 21 19 19 17 19 20 24 26 28 29 32 33 35 36 36 37 40 44 47 49 51 53 55
47 45 41 41 27 32 30 30 28 24 21 22 23 23 22 20 18 17 18 19 21 22 22 21 19 21 22 24 28 29 31 33 33 35 40 43 47 47 49 49 53 57 59 62
44 39 34 50 41 28 37 37 34 33 31 29 28 27 28 28 26 25 22 21 24 24 23 24 24 24 27 28 31 33 33 33 37 38 39 45 48 53 55 55 59 62 65 67
40 44 28 51 44 38 30 38 43 42 39 38 37 33 33 34 34 33 33 30 27 30 30 32 32 31 34 33 32 34 36 34 37 42 45 48 50 55 57 59 60 65 68 72
59 41 40 34 29 39 31 21 34 40 46 48 49 45 44 42 39 37 37 37 35 34 38 38 39 32 38 37 39 37 38 40 41 45 48 49 51 54 59 64 65 71 71 76
63 52 49 33 29 38 26 37 27 25 32 45 54 57 58 58 56 51 46 44 41 38 38 41 48 39 42 41 40 41 41 44 47 48 48 50 54 55 62 68 69 73 75 80
67 63 47 40 29 35 37 25 37 28 30 33 31 41 58 65 64 62 60 57 51 49 46 48 56 52 52 51 48 46 45 46 49 52 51 51 57 60 63 71 72 77 80 83
69 66 64 48 36 34 26 33 35 43 35 42 42 37 38 48 62 66 66 63 63 60 57 60 60 61 59 58 57 56 52 50 51 54 57 59 61 63 64 72 74 78 82 87
70 70 69 65 54 43 35 31 42 44 51 40 44 39 40 44 50 57 67 69 66 65 70 70 67 62 60 63 63 61 57 56 56 58 61 63 66 66 66 72 76 81 86 89
72 70 71 73 67 45 40 43 42 48 53 42 48 42 43 46 49 52 55 68 75 73 72 71 70 70 65 65 65 62 63 63 62 64 65 66 69 69 67 73 79 83 88 91
72 73 73 72 67 54 49 48 54 51 53 45 50 48 42 44 48 49 54 57 68 74 74 73 74 74 75 74 70 67 64 67 67 68 70 73 74 72 69 74 81 85 90 93

GFSNW_250_spd_087.txt.gz
Wind_Speed
61 57 55 52 49 47 44 43 48 42 40 38 37 34 33 34 32 31 29 28 28 27 23 22 22 20 18 17 16 13 15 14 13 10 10 9 10 13 11 11 10 10 9 12
62 57 53 50 48 46 42 39 41 38 35 34 33 30 34 38 41 41 40 37 36 33 31 30 28 26 23 24 23 22 21 17 15 13 11 12 12 14 17 14 12 11 10 13
65 60 53 51 50 48 45 45 46 45 43 43 42 41 43 46 46 47 45 45 43 41 39 40 41 38 37 36 33 31 28 26 24 24 21 19 18 14 17 12 12 14 13 12
61 63 61 54 51 54 54 57 62 57 52 52 50 51 53 55 53 53 54 53 52 50 49 49 48 45 44 43 42 39 38 35 33 32 31 31 29 28 27 24 20 17 18 12
64 61 61 62 63 59 57 69 67 63 62 62 63 63 63 62 61 61 62 61 59 59 59 56 54 53 51 50 49 50 48 48 46 43 44 43 40 41 39 35 32 25 21 18
64 63 60 62 64 63 67 67 64 64 64 65 66 65 66 66 65 63 64 64 63 61 61 60 59 56 57 56 57 57 55 54 51 50 51 48 45 46 46 41 38 34 35 33
57 59 58 59 61 62 61 62 61 61 62 63 66 66 67 67 66 64 62 62 62 61 60 59 59 56 57 56 55 53 51 49 48 47 46 46 45 41 38 38 40 33 29 33
47 51 55 55 55 56 57 57 57 57 58 58 60 62 62 62 61 60 61 59 58 58 57 55 55 54 52 51 51 49 46 46 45 44 44 43 40 37 37 37 35 31 32 30
39 42 44 46 48 47 48 50 50 50 51 54 55 55 55 55 55 53 53 52 52 52 50 49 48 47 46 44 43 42 41 41 39 38 38 35 34 33 32 31 29 28 24 25
32 32 34 36 39 40 41 42 43 42 42 45 45 45 46 46 46 45 44 44 44 43 42 41 40 39 38 37 36 34 33 32 31 30 28 27 25 25 24 23 21 23 23 25
37 27 25 26 28 31 34 35 34 34 33 33 35 35 37 37 36 36 36 36 35 34 33 32 31 30 29 28 27 26 25 23 22 21 20 19 19 20 21 20 22 21 22 25
51 34 27 19 18 20 22 25 29 27 25 25 25 26 27 28 30 31 30 29 29 28 28 28 28 28 25 23 22 21 21 21 20 19 19 20 19 19 20 21 21 23 24 25
51 55 35 27 23 13 13 16 18 22 22 22 19 18 19 19 21 24 24 23 22 23 22 22 23 23 21 20 19 20 19 19 20 20 20 20 20 21 21 22 25 27 29 31
53 59 48 35 26 25 20 11 11 14 16 18 19 19 16 17 17 19 20 19 18 19 19 17 18 18 18 18 18 19 20 19 19 19 21 24 23 23 25 28 29 30 32 36
47 54 52 47 39 28 25 21 15 12 11 13 15 16 16 17 18 17 16 15 17 18 18 16 15 16 17 19 19 19 19 21 22 22 23 26 29 32 32 34 36 36 39 42
50 50 51 44 50 39 30 26 25 21 18 14 12 12 14 17 21 22 21 19 17 17 18 18 15 15 15 16 18 20 21 20 21 22 23 26 27 32 37 40 41 43 45 48
52 50 50 46 50 39 41 33 28 28 27 23 20 19 18 17 16 16 18 20 22 23 22 20 18 16 14 15 18 23 22 22 21 22 25 29 33 35 37 39 41 45 49 54
53 51 52 48 53 46 36 38 33 29 32 34 31 27 24 24 24 23 20 20 18 22 25 26 27 26 26 24 27 25 24 25 25 25 29 31 33 36 38 42 46 50 53 58
49 55 50 51 49 54 47 38 37 33 29 34 35 34 34 34 33 31 30 31 30 31 29 29 33 36 34 35 29 28 25 27 31 32 34 36 38 40 41 44 49 54 59 61
51 55 55 56 53 57 49 47 36 31 24 22 19 20 32 36 41 43 42 41 39 36 40 41 42 47 35 39 38 38 36 36 36 39 44 45 43 45 47 49 53 58 61 65
52 56 57 56 62 59 55 50 37 33 30 23 20 21 21 24 30 36 42 45 47 48 48 48 50 59 51 52 51 48 47 47 47 47 48 51 53 51 53 55 57 62 65 70
56 54 55 63 63 62 59 60 52 51 37 28 26 25 23 26 27 29 32 38 42 46 53 58 63 66 62 59 60 60 59 60 61 58 58 57 58 58 58 60 64 66 69 73
57 61 56 58 60 62 61 61 60 63 57 38 31 33 30 33 34 37 40 40 43 45 48 57 67 69 68 66 65 65 63 62 63 66 67 65 64 62 63 64 67 70 73 76
61 62 65 61 59 62 62 61 61 61 62 48 48 43 41 39 38 40 45 45 48 49 50 55 58 66 69 70 68 67 67 67 66 67 68 70 71 71 72 72 73 77 78 82
66 67 67 63 63 61 66 61 61 62 63 67 61 51 47 45 41 38 41 44 46 50 54 56 56 53 63 67 69 70 70 70 70 70 71 74 75 77 75 74 75 77 80 85
72 71 68 68 67 67 66 63 61 62 65 66 63 57 53 56 49 44 44 48 52 55 58 57 56 52 50 58 64 69 71 72 73 72 72 73 73 76 77 78 78 81 82 83
73 70 73 72 68 69 72 71 63 62 66 65 66 66 64 64 54 49 47 48 50 58 59 53 55 53 50 48 51 57 63 68 73 75 75 74 76 78 80 80 81 79 82 83

GFSNW_250_spd_090.txt.gz
Wind_Speed
83 76 66 60 55 54 47 50 52 48 46 44 43 40 38 37 35 35 30 28 28 29 28 29 26 25 24 23 22 19 19 15 12 11 13 11 10 8 8 7 8 9 4 7
85 80 74 65 60 55 51 54 52 50 47 43 40 38 38 40 41 42 43 41 38 37 36 36 34 31 29 27 26 22 21 19 18 19 18 17 13 15 16 16 17 16 13 10
82 82 78 72 69 61 60 63 60 56 55 49 46 44 46 47 47 48 48 49 48 46 43 44 42 39 36 35 33 30 29 28 28 29 27 25 24 25 25 22 21 20 16 12
73 78 76 76 70 71 70 68 64 63 63 62 59 55 52 57 58 56 56 55 55 56 53 50 47 45 44 42 39 40 37 37 36 35 32 30 29 28 28 27 27 25 25 22
62 69 73 75 75 76 73 73 71 68 69 68 67 64 64 65 66 65 65 64 63 61 62 59 58 55 53 52 50 49 47 46 45 43 41 38 37 37 37 38 38 35 38 39
58 56 62 67 69 69 70 70 69 69 69 68 68 67 67 69 69 69 70 69 66 64 64 62 61 59 58 56 54 52 51 50 48 48 46 48 47 43 41 39 38 37 38 41
57 52 50 55 60 62 61 63 64 64 66 64 65 65 64 65 66 65 65 64 61 59 58 56 56 55 54 53 51 50 49 47 47 47 44 42 41 39 37 33 32 34 30 27
70 53 47 45 49 52 53 54 54 54 56 56 57 57 57 58 60 58 57 56 54 53 53 52 50 49 48 47 45 43 41 39 38 36 36 37 35 34 33 31 28 24 21 21
68 59 46 41 39 42 43 44 45 47 47 48 49 49 49 49 49 49 48 48 46 45 44 43 42 40 39 37 35 34 33 33 32 31 31 29 29 27 25 24 22 19 18 16
68 62 63 44 37 33 33 35 36 36 37 39 40 41 41 41 40 39 39 38 37 36 35 33 31 30 29 28 27 27 27 26 25 25 24 22 21 20 18 16 16 14 15 15
64 60 61 60 47 33 29 26 27 29 30 29 30 32 34 34 33 32 33 31 29 28 27 25 24 23 22 22 21 20 19 18 17 16 14 13 13 12 12 12 11 11 11 13
59 57 53 58 54 48 31 25 23 20 21 23 24 24 25 27 28 28 27 27 26 25 23 21 19 18 17 16 14 14 13 12 11 11 11 10 10 10 10 10 13 15 16 18
57 57 52 56 55 55 48 28 22 21 22 17 17 19 18 19 21 21 21 23 24 24 22 20 19 18 17 15 14 13 13 12 12 13 13 14 14 13 14 18 20 20 21 23
52 51 50 52 52 57 51 52 31 20 19 19 18 12 12 15 16 15 16 17 18 18 17 17 16 16 16 17 17 18 18 18 17 18 19 20 20 22 24 26 27 29 30 32
50 50 52 50 51 50 56 55 49 41 20 20 19 20 18 15 15 15 15 15 15 16 16 16 14 13 15 15 16 19 22 23 21 20 19 21 23 26 27 29 32 33 35 38
54 52 51 54 48 56 52 59 54 45 46 29 18 20 21 20 18 19 20 21 23 23 19 18 18 15 15 17 19 22 25 23 23 24 23 24 26 30 32 34 37 39 41 43
47 53 53 52 54 52 52 55 54 51 45 47 40 21 20 23 25 25 25 27 26 26 28 29 32 33 31 29 29 28 27 23 23 26 26 26 29 34 38 39 43 45 47 50
47 48 52 53 53 53 50 52 53 50 48 52 42 33 27 23 22 24 25 26 29 34 36 36 37 40 38 39 41 38 39 34 32 27 29 33 35 38 42 46 48 50 53 55
49 47 45 49 53 53 52 51 54 54 49 51 51 39 33 37 19 22 22 24 27 28 33 36 41 48 46 41 46 49 49 50 50 50 48 49 51 53 54 54 54 57 58 59
52 52 51 49 51 54 53 49 52 56 56 52 54 48 34 33 29 28 26 27 29 29 32 35 42 48 50 52 49 52 56 59 59 58 57 57 56 58 60 61 61 63 64 64
57 56 56 55 51 54 57 54 51 54 56 56 56 50 42 46 42 36 28 26 27 30 36 41 44 48 49 50 50 50 51 57 61 62 61 59 59 60 62 64 65 65 68 70
62 61 59 54 48 51 53 57 53 54 56 54 55 53 51 50 50 41 36 37 38 34 33 37 40 46 48 51 57 57 60 61 58 60 64 66 64 63 65 67 70 71 74 75
70 70 67 61 56 56 58 55 56 56 55 55 54 55 56 57 56 53 51 45 41 46 43 40 42 45 53 57 52 54 56 55 52 52 56 63 67 69 71 72 73 75 78 77
80 71 73 69 61 59 59 57 57 56 57 55 58 55 57 58 59 58 56 50 46 45 53 55 48 51 51 51 55 54 56 56 53 50 47 51 57 65 69 71 74 77 77 76
83 79 72 71 68 66 64 63 62 59 58 57 59 59 59 61 64 64 59 58 55 55 53 56 58 59 54 57 64 61 55 55 56 53 51 51 52 55 60 63 68 73 76 78
86 83 78 77 72 71 71 67 66 65 59 67 61 60 60 65 67 64 64 60 62 61 60 60 61 64 64 63 63 63 62 61 59 59 58 56 56 57 59 61 65 70 73 74
88 83 88 92 85 78 78 76 72 72 69 68 68 61 69 70 74 66 65 66 64 68 65 66 69 70 64 65 65 63 65 65 67 65 63 60 60 61 63 66 70 69 69 70

GFSNW_250_spd_093.txt.gz
Wind_Speed
90 92 89 86 77 67 65 63 59 56 56 51 49 46 44 43 42 40 37 35 34 32 29 28 28 28 28 27 26 24 22 19 17 16 16 14 11 15 14 12 12 10 10 10
83 88 89 88 82 73 71 71 62 58 55 51 50 48 47 47 45 44 44 42 40 39 40 38 36 35 34 32 30 26 25 24 20 19 21 20 18 18 16 15 15 15 15 14
77 81 83 84 84 79 77 74 67 63 63 59 56 52 53 55 54 54 54 53 52 52 50 48 45 43 41 37 35 32 30 30 28 27 27 26 24 22 20 20 16 16 18 17
70 71 74 77 77 78 80 76 73 70 67 65 64 63 59 58 59 58 58 58 56 52 52 50 49 49 46 43 41 39 37 35 35 33 32 30 30 29 27 26 24 20 21 23
67 65 66 65 68 72 73 76 76 73 72 72 71 70 68 69 69 69 69 68 64 62 62 61 59 57 55 54 52 50 48 49 48 46 43 41 39 38 37 40 38 31 27 20
77 65 57 60 59 61 64 66 68 69 68 66 66 66 66 66 66 66 66 66 66 65 63 62 60 57 56 53 51 50 50 48 46 43 40 41 40 40 39 36 35 35 36 36
69 73 60 50 51 52 53 55 57 60 61 59 59 60 60 59 59 60 60 60 60 57 56 54 52 51 49 47 46 45 43 41 40 40 38 37 35 33 32 30 28 27 27 26
61 68 70 56 45 45 45 47 48 49 50 50 50 51 52 52 52 53 51 49 47 46 45 44 43 41 40 39 38 36 35 33 31 30 29 28 27 25 23 20 17 17 18 17
56 59 67 63 60 43 39 38 39 40 42 42 42 43 44 43 43 44 44 42 40 38 37 35 34 32 32 30 29 28 26 24 23 22 22 21 20 19 18 16 15 13 12 11
61 56 56 61 64 61 49 37 34 34 33 33 35 36 37 37 37 37 37 35 34 33 31 29 28 27 25 23 23 22 20 19 18 16 16 15 14 13 12 12 12 11 12 11
58 57 50 51 56 61 59 55 42 34 31 28 26 27 29 30 29 29 31 30 29 28 26 25 23 21 21 20 19 20 18 18 17 16 15 14 14 14 12 12 11 10 10 10
51 54 55 52 50 58 55 53 51 50 33 26 22 20 23 24 25 25 24 24 24 24 23 22 20 17 17 16 16 18 16 17 17 17 17 15 16 14 14 14 14 14 16 17
46 50 54 53 44 50 51 54 46 50 50 35 25 22 19 18 19 23 27 28 28 26 23 20 19 18 19 19 21 23 23 24 22 20 20 21 19 18 19 19 20 22 23 25
44 46 50 52 48 47 41 47 51 49 50 51 37 24 22 20 19 19 20 22 25 27 27 25 25 25 23 22 24 25 26 26 27 26 26 25 24 23 24 24 27 28 31 33
41 42 45 49 52 45 46 44 42 47 51 51 48 39 29 25 24 22 21 21 23 24 25 25 25 25 25 26 28 30 30 32 32 30 28 30 29 28 28 30 32 33 35 38
40 41 42 45 48 49 47 43 46 49 48 45 54 42 35 39 30 26 24 23 23 24 27 28 30 31 33 33 31 35 37 36 37 38 36 34 35 33 31 37 39 41 45 46
44 41 42 44 44 47 49 47 49 48 51 44 50 45 45 34 33 24 27 27 27 24 26 30 30 32 35 38 37 39 44 46 47 49 50 49 47 50 52 50 53 52 53 55
52 48 44 46 46 47 48 48 48 48 47 50 49 49 43 42 36 38 28 27 26 28 30 30 29 28 29 31 35 35 36 38 42 45 50 54 57 59 60 61 61 62 61 61
55 54 49 44 47 50 49 47 48 49 49 48 49 48 48 40 40 43 43 36 35 31 29 29 31 34 34 35 36 40 43 47 51 55 56 56 55 54 57 61 63 64 66 66
55 53 51 50 46 46 49 49 45 43 47 47 51 48 48 50 45 41 41 44 44 41 41 37 35 36 36 38 41 41 42 49 48 52 53 53 54 52 53 55 55 58 63 65
65 62 61 57 57 53 49 53 52 49 45 46 47 47 48 51 50 51 47 44 48 46 47 42 47 46 42 37 42 45 45 51 52 52 51 48 49 47 44 42 46 50 55 61
71 71 67 62 59 60 55 54 57 57 50 48 43 45 48 49 52 54 51 55 52 53 51 51 51 55 56 55 52 48 49 51 57 58 62 57 52 46 47 47 45 45 48 52
75 75 71 66 65 59 57 57 56 59 59 59 55 48 48 50 52 57 56 52 56 58 54 54 54 60 61 61 62 63 63 60 58 58 63 63 65 62 57 57 54 54 57 59
81 79 78 71 68 66 64 64 59 57 60 63 62 54 49 50 53 60 60 61 55 54 60 60 59 61 57 59 62 65 67 71 68 62 62 63 67 65 65 65 65 65 65 65
96 85 76 76 75 74 72 70 68 64 63 62 61 67 64 61 56 59 61 62 59 59 60 63 65 60 63 61 61 66 69 72 66 66 66 67 68 69 70 70 71 73 72 72
106 95 86 80 82 85 82 77 73 69 67 69 66 66 69 68 65 60 63 62 59 59 66 67 66 69 69 69 62 65 69 70 67 63 65 68 66 67 69 71 72 74 76 76
112 99 93 88 92 93 91 87 84 78 72 70 70 71 71 71 67 67 65 63 61 65 68 68 72 70 66 77 68 71 69 69 75 75 76 74 69 69 71 71 74 75 76 78

GFSNW_250_spd_096.txt.gz
Wind_Speed
83 86 85 91 97 94 88 78 69 64 58 54 52 50 48 47 46 45 43 39 37 35 32 29 26 26 29 28 28 27 25 22 22 17 14 16 18 18 17 16 15 15 14 17
79 78 81 83 88 89 89 85 75 68 67 59 55 53 53 53 51 50 48 46 43 42 42 41 42 41 38 34 31 29 27 25 23 19 19 20 20 20 21 20 20 19 18 18
94 74 73 74 77 83 85 87 83 81 75 70 67 63 57 57 55 56 56 53 50 49 50 48 47 46 43 43 42 39 36 33 29 28 28 27 25 23 20 21 20 19 23 22
87 85 68 68 70 70 73 77 79 80 78 76 73 71 66 65 64 63 63 61 58 57 57 55 52 49 48 46 45 43 41 39 36 35 35 34 32 31 29 25 23 21 21 22
80 79 77 63 61 64 65 67 68 71 73 74 73 74 71 69 68 67 67 66 65 65 63 60 60 58 56 54 52 49 47 46 44 45 45 42 41 41 40 38 29 19 22 20
75 75 75 73 61 55 55 60 61 62 63 64 65 64 64 63 63 62 61 61 60 59 57 54 53 53 50 48 45 45 44 43 41 38 34 32 32 31 30 31 30 28 26 25
68 70 69 68 67 64 54 50 53 53 54 54 54 54 55 55 54 52 50 50 51 50 50 49 47 45 43 41 40 38 36 34 32 30 27 26 25 25 24 23 23 22 21 21
63 68 68 60 65 65 66 56 47 47 47 47 46 47 47 47 46 46 44 44 43 42 41 40 38 36 35 33 31 30 29 27 26 24 22 22 19 18 18 18 17 17 16 14
56 58 59 58 62 60 61 63 58 44 40 40 41 41 42 43 42 41 39 37 36 36 35 34 32 30 29 29 27 26 25 24 22 20 18 16 14 13 13 12 12 12 12 11
50 52 53 57 58 55 56 60 61 62 45 36 35 36 38 39 39 39 39 38 36 34 31 28 28 27 28 28 27 27 27 26 24 24 22 20 18 16 15 15 15 14 14 14
44 45 48 50 52 54 53 56 58 61 57 50 34 31 33 34 35 35 35 36 35 34 34 34 32 31 30 31 30 28 27 26 25 23 23 23 22 20 19 18 16 16 16 16
42 44 43 42 45 47 54 49 51 57 58 52 50 39 30 28 29 31 29 29 29 29 27 26 27 27 26 27 28 27 27 26 28 28 25 24 22 20 19 19 17 17 19 21
39 43 45 43 41 41 45 50 50 52 54 51 49 45 42 34 29 26 25 25 25 24 23 22 22 22 22 23 24 26 27 27 29 27 25 25 27 27 28 26 24 24 27 29
37 42 44 46 46 42 39 43 46 48 48 47 50 49 46 38 35 35 32 31 30 29 27 27 26 25 25 24 24 27 29 30 32 32 34 36 35 37 36 34 35 36 37 37
38 39 44 45 47 42 42 42 40 46 49 45 47 50 49 43 38 38 33 31 28 30 33 32 32 30 28 28 28 27 31 31 32 34 36 37 40 41 44 46 47 49 50 51
41 36 39 42 43 45 42 44 43 39 44 46 46 46 44 43 41 36 38 32 31 30 28 26 27 28 28 30 27 25 25 30 32 36 39 45 48 49 47 45 48 52 53 56
42 40 38 39 42 44 45 49 47 42 38 42 42 43 42 43 37 39 40 36 37 40 31 31 29 28 26 25 29 31 30 34 36 36 40 44 44 47 47 49 49 51 49 49
44 46 47 45 47 45 46 48 47 47 42 39 37 39 41 42 40 38 38 42 43 40 47 42 37 32 30 31 32 33 37 39 43 43 43 46 46 52 48 48 47 46 44 42
51 44 49 46 47 46 43 41 42 44 46 39 43 40 38 39 41 41 40 39 41 44 47 49 48 45 41 40 39 41 41 43 44 48 50 52 53 52 54 55 49 42 46 43
59 61 56 51 52 44 40 47 45 48 47 42 39 41 40 41 40 43 45 46 39 38 43 48 48 47 44 47 49 49 51 54 52 54 54 52 59 57 56 60 59 55 55 55
73 65 69 54 57 62 60 57 53 52 53 52 51 46 43 43 36 39 40 40 45 41 45 45 47 50 49 50 53 51 56 56 62 59 58 59 62 59 59 58 59 63 63 61
83 76 74 71 69 64 59 55 57 58 59 57 55 50 43 40 41 42 38 40 42 45 47 47 47 49 52 54 56 56 56 60 59 64 65 63 63 63 64 61 59 59 59 61
90 89 87 86 76 72 61 55 61 63 61 57 54 53 52 51 48 47 47 46 48 47 47 51 50 52 51 53 57 60 60 60 63 65 68 62 64 64 68 65 65 66 66 66
100 96 93 94 85 75 67 66 64 64 65 59 55 55 56 59 60 58 58 50 50 48 46 50 50 53 51 53 57 62 63 65 66 68 67 68 67 67 66 67 71 73 75 71
103 99 97 89 91 83 81 77 74 74 71 69 66 66 65 61 65 63 60 59 56 51 51 49 54 55 55 55 57 62 65 68 69 65 70 65 68 68 66 69 70 76 78 77
111 101 92 90 91 92 92 85 83 77 78 76 74 74 72 70 68 68 68 69 70 64 57 57 57 56 62 61 59 63 65 68 70 68 71 66 67 68 71 71 72 76 81 82
121 98 95 90 95 98 101 94 88 86 79 78 79 77 77 73 72 70 73 75 75 70 68 64 60 62 66 67 66 66 67 66 71 74 73 73 69 71 74 77 77 76 81 86

GFSNW_250_spd_099.txt.gz
Wind_Speed
100 102 84 82 86 90 95 98 88 79 75 72 63 56 54 50 48 47 45 41 39 37 33 30 29 29 28 27 27 28 27 26 23 19 18 18 21 19 20 20 21 19 19 21
96 100 94 80 76 81 84 86 85 90 92 79 74 67 61 57 54 53 51 49 47 45 45 43 42 41 39 40 37 36 33 31 29 28 28 24 24 25 26 30 26 21 23 22
89 92 92 91 80 71 72 76 78 81 83 82 82 80 74 68 62 59 59 56 55 54 53 53 52 50 48 46 42 40 39 39 37 35 34 30 24 23 24 24 24 23 24 21
80 87 89 90 92 80 66 67 69 70 71 72 73 75 74 73 72 70 67 65 64 63 63 62 61 59 56 54 53 51 49 49 50 49 46 41 37 32 29 27 23 20 18 15
73 77 81 85 89 88 83 63 59 61 64 64 64 66 66 66 65 65 64 63 61 60 59 57 56 55 53 51 49 47 45 42 42 41 39 38 37 36 35 31 29 28 26 23
62 64 73 77 83 84 85 85 65 57 58 59 60 59 57 56 56 55 55 54 54 53 52 51 49 47 45 42 40 39 36 35 33 32 31 30 29 27 25 24 23 22 21 21
57 59 61 64 73 74 79 82 82 72 56 55 56 56 55 53 50 49 48 47 46 45 44 42 41 39 38 36 35 33 31 30 29 28 26 26 24 22 21 20 19 18 16 15
49 52 56 59 62 67 71 74 76 80 77 62 52 51 50 49 47 45 43 42 42 42 41 40 41 39 38 37 36 35 34 34 33 30 29 27 24 22 21 19 18 17 16 15
42 45 47 53 56 58 63 69 70 72 74 74 65 51 43 42 42 44 43 40 38 38 38 39 40 39 37 37 36 35 34 33 31 30 29 29 28 26 25 25 24 22 21 19
35 40 43 46 48 54 56 59 60 67 65 64 69 63 57 50 42 39 39 38 36 34 33 32 31 30 30 30 28 27 27 27 27 25 24 24 23 22 21 20 18 16 16 17
35 38 38 41 45 46 48 54 52 56 62 64 64 60 63 60 48 43 40 36 34 32 31 30 29 28 28 27 26 24 23 21 22 22 20 20 21 21 21 22 22 22 22 22
33 35 35 35 38 42 40 44 45 47 55 54 57 60 58 57 52 46 41 36 35 34 31 30 29 28 28 27 27 29 27 26 26 25 26 25 26 27 27 27 28 30 31 34
32 34 33 37 37 37 39 36 39 42 46 51 47 55 49 51 52 45 40 40 33 34 30 30 30 29 28 27 29 29 26 27 27 28 26 26 29 29 34 34 33 34 36 38
39 33 31 32 31 33 32 31 33 34 40 45 47 48 49 41 43 43 42 37 35 34 31 31 32 30 30 28 26 25 26 28 25 27 29 33 37 35 39 37 41 40 40 41
39 36 36 33 30 32 28 30 31 33 35 34 38 41 47 44 40 37 38 36 32 36 37 38 36 32 31 29 28 25 26 27 31 34 35 37 39 39 43 44 44 46 44 44
41 40 39 36 31 33 34 35 33 33 35 34 33 31 41 41 37 36 35 35 38 35 30 31 34 31 30 32 31 31 31 31 34 37 40 39 40 43 44 47 47 45 45 45
54 50 49 46 42 40 38 34 39 33 29 30 37 37 35 36 34 32 36 36 35 33 33 32 31 32 32 32 37 36 37 39 42 44 42 47 50 48 47 51 49 50 51 49
65 65 64 61 51 44 45 42 36 40 37 32 34 41 39 35 36 37 36 40 32 29 29 32 35 34 32 35 37 39 40 41 42 45 45 49 51 52 53 49 50 52 48 47
71 72 72 67 64 55 46 44 39 37 43 39 32 38 45 44 43 41 39 40 36 30 31 32 31 35 36 34 35 36 39 41 43 48 48 54 53 55 55 55 58 54 54 57
85 81 80 72 70 62 55 46 45 40 40 44 46 53 51 48 46 40 38 36 36 30 34 35 31 37 37 37 39 39 40 42 45 46 48 53 56 56 57 55 56 60 61 60
93 94 88 85 75 74 63 54 47 43 41 49 58 56 46 46 49 43 39 36 34 37 39 43 37 46 43 41 41 41 41 43 47 51 53 55 59 60 62 60 63 60 63 65
106 101 100 95 87 76 73 60 55 55 56 63 62 55 52 48 52 48 41 40 37 40 41 43 46 49 49 50 55 46 42 45 47 52 56 58 60 60 64 66 68 69 70 71
114 113 105 101 95 85 74 69 64 73 69 67 70 65 60 59 52 55 49 45 43 46 50 54 51 51 53 56 58 56 54 50 48 51 54 57 59 63 64 71 77 79 79 83
125 125 121 107 98 89 81 76 77 77 78 79 74 72 66 62 61 57 59 56 54 52 56 57 57 55 53 54 56 56 56 54 51 58 63 58 64 69 74 75 78 78 80 84
121 116 116 109 102 94 90 85 87 88 86 85 80 80 77 70 64 66 61 61 62 64 62 60 59 59 60 61 61 61 61 59 54 52 59 64 68 69 70 73 71 77 81 85
119 115 106 99 98 99 100 96 96 93 91 89 90 84 85 89 76 68 68 68 69 70 65 62 64 64 65 67 62 61 62 62 61 61 60 62 60 62 67 70 73 75 78 83
118 104 103 91 99 98 101 101 101 100 96 94 94 89 86 89 90 78 72 75 77 70 67 65 64 64 64 68 63 61 63 61 61 62 65 68 66 67 62 63 67 74 77 80

GFSNW_250_spd_102.txt.gz
Wind_Speed
91 97 103 106 87 87 85 87 84 88 92 92 78 68 61 53 49 48 45 42 40 38 36 32 30 27 24 24 24 22 19 17 17 20 21 18 17 19 19 18 19 17 17 21
89 93 95 98 102 98 86 81 75 80 91 84 84 79 74 66 62 57 53 51 49 47 46 45 42 39 38 37 35 33 31 32 30 27 26 26 26 25 23 22 20 19 20 21
80 87 88 90 90 95 100 93 78 75 74 72 72 74 74 73 72 69 66 63 60 58 57 57 57 56 53 51 49 48 45 42 37 32 29 28 25 23 22 19 17 15 13 11
68 77 81 83 82 85 92 95 93 75 70 65 64 65 65 66 68 67 67 65 64 63 62 60 58 56 55 54 52 50 49 48 46 42 38 36 35 31 29 26 22 18 16 12
60 66 69 77 80 75 82 86 87 90 85 66 63 58 55 55 56 57 57 56 56 54 53 53 51 50 48 46 44 42 42 40 38 36 34 33 31 30 29 28 27 24 23 21
54 60 66 68 72 77 77 74 80 80 84 83 70 58 58 53 50 49 49 48 48 48 46 46 45 45 44 42 41 39 39 37 34 31 30 28 26 24 23 22 20 18 17 17
45 50 57 59 63 65 75 65 68 73 75 78 73 64 55 50 51 48 47 47 46 45 45 43 42 40 40 39 38 35 34 33 31 29 27 27 24 23 23 22 20 19 17 15
38 43 48 47 57 56 64 62 60 62 70 71 72 67 61 52 45 41 41 41 41 41 40 40 38 36 34 34 33 31 30 28 26 25 23 21 21 21 21 20 18 17 17 17
32 38 40 40 46 47 53 58 56 55 56 65 66 65 61 62 49 44 39 35 33 33 32 31 31 30 28 27 26 25 25 23 22 21 20 20 20 20 19 19 19 19 19 19
35 31 35 42 39 41 41 46 47 50 51 52 59 59 59 59 53 45 43 36 32 32 30 29 28 28 29 28 25 24 23 24 23 20 21 22 22 23 22 21 22 22 23 25
35 36 35 30 35 34 35 30 38 43 47 44 53 51 56 54 53 48 47 43 36 34 31 30 30 29 28 27 27 26 25 25 24 23 23 25 25 22 28 26 30 30 27 28
34 31 32 22 31 25 29 28 27 31 34 37 42 42 45 48 45 49 47 46 41 37 33 30 30 28 28 29 26 27 27 25 26 26 29 29 30 30 31 32 31 30 30 33
34 29 26 28 22 23 26 27 29 26 30 29 30 36 33 40 39 40 45 43 41 35 32 32 32 32 30 28 27 25 25 25 25 25 27 29 30 31 31 32 34 35 34 37
35 27 31 35 29 24 20 25 28 27 30 33 25 25 31 32 37 36 36 40 36 35 31 30 31 29 30 29 27 27 26 27 29 28 28 32 33 34 39 38 37 39 38 38
46 43 49 40 37 35 29 24 26 26 32 34 32 31 27 27 28 34 33 32 35 32 29 26 26 24 24 25 25 25 25 27 29 33 31 35 37 41 40 42 42 43 44 43
53 54 53 53 53 49 38 39 38 38 36 33 34 31 30 30 27 26 27 34 28 31 29 25 26 27 26 27 29 29 31 29 30 32 30 34 38 41 46 46 46 47 49 50
56 57 61 63 58 61 59 54 42 39 38 36 35 41 35 34 38 32 29 33 28 26 29 27 24 29 30 32 35 33 31 35 36 36 37 36 39 43 46 51 52 48 50 57
62 59 62 64 66 64 65 62 61 56 48 43 36 35 43 43 40 33 33 35 28 27 29 28 29 34 29 30 34 33 34 39 36 36 38 39 39 45 44 47 52 55 62 65
74 71 68 67 69 71 69 70 62 59 60 54 51 54 42 43 47 44 40 40 31 26 30 34 33 39 35 34 33 35 36 39 42 39 40 42 42 40 44 44 52 58 62 66
84 84 84 81 78 75 74 73 72 65 62 64 68 61 51 48 43 45 47 47 42 31 32 36 36 40 31 32 35 39 38 40 43 44 45 47 50 48 48 51 52 57 57 61
101 98 99 92 87 83 77 75 74 74 75 75 77 78 73 65 59 49 45 52 44 41 37 37 36 42 40 37 35 36 40 40 44 46 48 51 49 51 49 52 54 58 60 58
102 99 100 99 96 92 89 81 84 84 84 86 88 86 83 74 68 61 56 56 50 48 46 42 45 46 46 49 47 44 42 44 46 50 53 53 52 53 51 51 55 61 65 65
109 107 109 106 106 104 95 92 91 95 95 96 98 93 88 87 80 73 69 65 60 56 52 53 56 53 52 52 56 54 56 58 58 55 55 53 53 55 57 63 61 68 73 76
116 116 117 113 111 107 110 105 103 108 106 105 104 102 97 92 92 86 80 73 69 66 60 68 63 61 57 58 62 58 63 65 64 61 59 55 56 56 56 59 65 67 69 72
132 135 135 118 113 110 110 114 112 111 112 112 107 106 99 97 90 89 87 82 74 68 69 71 70 69 65 65 65 67 66 65 66 65 61 57 58 59 59 63 69 69 70 74
132 131 123 104 110 115 109 114 114 114 109 108 112 108 106 102 95 89 87 85 86 80 77 73 82 79 75 72 71 71 73 72 72 71 67 61 61 62 64 66 68 72 77 78
126 118 121 110 103 103 102 106 111 109 108 108 108 107 108 106 102 93 88 88 96 94 86 79 86 75 83 84 79 79 78 76 76 76 71 70 71 71 72 72 73 75 76 80

GFSNW_250_spd_105.txt.gz
Wind_Speed
79 86 92 96 102 101 98 91 81 78 85 92 80 70 63 57 52 49 47 44 41 39 36 32 29 26 23 19 18 16 14 12 9 9 8 10 11 13 16 14 15 11 11 10
78 75 81 86 94 97 96 89 87 81 83 78 76 77 77 71 65 61 59 54 51 49 47 44 40 37 34 30 28 25 24 22 20 18 17 15 15 15 14 12 11 11 11 9
71 72 73 76 82 90 91 87 87 82 76 68 65 66 67 68 69 69 69 68 66 64 62 61 59 57 53 49 44 40 38 36 33 31 28 24 22 20 17 15 12 12 12 9
62 64 66 71 73 75 81 84 85 86 73 67 64 60 57 57 58 58 58 57 57 57 56 55 54 53 51 50 48 46 44 42 40 37 35 33 31 27 26 24 23 21 20 18
51 58 61 63 62 69 68 77 79 79 80 72 64 57 56 53 52 51 50 50 49 49 49 48 48 46 45 43 41 39 37 35 33 32 30 28 27 25 23 21 18 16 16 16
47 50 54 55 59 61 65 64 67 69 80 75 71 64 59 48 45 46 46 45 44 44 43 42 41 39 37 35 33 32 30 28 26 24 23 22 20 19 16 14 13 12 13 13
41 44 49 46 53 56 56 54 60 64 65 74 69 66 66 60 53 48 41 38 37 37 36 35 35 34 33 31 29 28 26 25 23 22 21 21 21 20 19 19 19 19 18 19
34 39 41 38 47 47 47 50 50 53 57 61 63 66 63 63 59 51 46 43 42 38 34 30 27 26 25 24 24 22 21 21 21 21 21 22 22 20 20 21 21 21 21 23
32 29 33 31 40 34 42 43 42 47 47 51 54 57 55 61 56 57 51 45 37 34 32 31 29 26 26 26 25 23 22 22 23 22 21 19 21 22 20 20 21 22 20 21
29 31 25 24 33 27 32 35 39 35 40 41 43 49 48 50 58 52 50 48 44 39 37 32 32 28 27 28 29 27 27 25 21 22 20 20 21 21 22 23 24 24 24 24
32 27 25 18 27 27 26 31 33 35 30 35 31 37 46 42 45 47 48 44 45 43 40 37 35 34 31 29 28 27 26 28 26 26 26 28 28 27 27 27 30 32 34 36
28 30 22 21 27 31 28 25 28 31 32 31 33 28 31 32 35 38 35 40 39 42 36 37 37 37 33 31 29 28 29 30 29 26 28 29 31 32 37 37 35 35 35 38
36 36 33 27 32 32 30 36 29 23 29 33 34 33 30 26 25 33 34 30 30 31 36 32 32 32 30 29 29 28 28 28 30 28 29 31 34 38 39 41 42 40 38 41
45 42 38 33 35 42 40 36 37 37 37 35 34 34 27 25 23 24 28 27 27 25 26 31 29 30 30 29 25 25 26 28 27 27 28 30 30 32 35 39 38 43 45 48
45 46 43 37 37 40 39 38 37 38 42 43 43 42 34 32 22 19 23 25 26 28 24 25 24 30 31 27 26 27 23 25 27 29 29 31 32 33 37 38 37 39 44 47
50 47 42 44 41 36 35 40 41 42 47 48 49 46 46 42 33 29 29 28 28 28 31 28 25 24 27 30 27 28 27 23 24 25 27 28 31 35 35 35 38 41 41 48
57 54 50 46 44 43 44 37 42 50 49 49 51 56 50 50 48 39 36 34 37 36 32 39 32 32 25 30 27 32 30 32 35 37 36 35 35 37 39 43 45 46 49 45
63 65 59 55 56 52 53 48 47 50 49 51 52 53 53 58 56 50 51 47 37 40 43 41 42 42 40 31 31 33 33 35 37 38 38 39 40 39 43 45 46 47 50 50
76 73 69 67 66 65 62 61 56 62 60 58 62 63 59 58 56 57 57 56 58 52 47 45 46 48 47 41 39 35 37 40 40 42 46 49 45 43 44 46 48 51 54 55
82 80 79 80 78 74 69 68 71 71 69 74 67 68 66 64 62 61 60 61 63 54 59 55 53 56 56 51 46 44 44 44 46 48 48 49 54 56 59 57 51 52 53 56
95 95 95 88 85 82 80 74 71 71 75 80 80 78 75 72 71 72 71 70 69 68 64 67 61 69 64 60 57 53 53 52 51 54 54 56 59 63 65 65 67 60 56 59
100 97 96 94 92 89 91 81 81 87 87 82 84 88 86 80 82 83 81 82 79 76 69 69 71 76 69 71 70 66 62 62 60 59 55 60 67 66 64 67 67 70 71 63
102 102 100 97 94 91 91 91 94 96 95 94 95 94 92 89 89 91 90 88 88 87 85 74 84 83 81 79 74 75 73 69 64 68 69 67 67 69 68 68 70 72 70 72
116 116 110 104 99 95 97 98 101 102 106 107 104 106 105 101 100 99 98 102 102 99 90 92 90 88 86 81 80 79 78 78 75 67 69 73 75 78 78 76 73 75 76 77
129 127 122 107 105 105 105 108 109 111 113 114 111 109 108 113 114 112 109 109 102 99 102 100 96 93 90 89 86 81 81 79 79 74 76 79 83 83 85 85 85 86 81 81
137 138 125 118 122 121 122 124 125 127 129 125 126 127 124 124 124 123 117 118 109 105 107 105 102 98 95 91 89 86 83 82 83 82 82 78 83 85 82 86 88 88 91 93
134 121 129 129 130 131 127 132 135 135 134 129 129 130 131 129 127 123 123 116 113 111 111 107 99 98 96 91 87 87 89 88 86 85 84 84 86 89 82 84 88 90 94 98

GFSNW_250_spd_108.txt.gz
Wind_Speed
74 80 86 85 91 96 93 90 83 77 78 84 81 76 70 64 60 55 49 40 31 25 20 15 14 12 13 15 17 18 18 18 17 15 12 9 7 9 8 3 1 0 4 2
65 70 75 77 81 87 94 89 85 81 79 76 71 69 70 69 70 70 65 57 51 46 42 37 32 29 28 25 23 21 20 18 17 16 16 14 12 12 10 7 9 11 10 9
58 63 67 72 71 80 81 87 89 86 84 76 70 67 65 62 61 61 61 61 61 61 58 54 52 49 46 44 42 40 37 36 34 30 29 28 25 22 19 18 19 20 18 16
50 54 57 60 67 67 71 74 80 88 81 77 73 68 62 60 59 57 55 54 53 53 52 51 49 47 45 44 42 41 39 37 35 33 30 29 26 24 21 19 17 15 14 12
43 43 48 49 56 59 67 70 67 70 77 78 73 69 64 61 57 54 51 49 49 48 47 44 42 39 37 36 35 33 32 31 29 27 26 25 23 21 20 18 18 16 17 17
37 38 38 44 45 48 57 59 63 68 67 69 74 70 66 63 57 54 51 50 46 41 39 38 37 35 34 33 32 30 29 29 27 25 24 22 21 20 18 16 16 15 14 15
35 32 31 37 36 45 46 53 53 59 59 65 63 66 66 63 62 58 54 47 46 42 43 42 39 36 34 32 30 28 27 27 26 26 25 24 23 20 19 19 21 22 23 23
30 29 26 28 33 34 39 41 44 49 48 55 58 54 58 58 56 61 53 51 46 44 39 38 37 37 35 34 32 29 28 27 26 25 25 24 24 24 25 27 27 28 27 26
19 24 26 32 35 33 34 36 38 39 40 43 49 52 50 51 52 51 51 54 49 47 44 41 39 37 35 34 32 30 28 29 30 30 31 35 36 34 33 31 31 33 33 33
17 18 23 23 29 33 32 41 34 35 36 41 43 44 42 41 46 47 45 44 52 46 43 41 41 40 38 35 35 36 34 31 32 32 31 31 33 34 35 34 32 31 33 34
27 23 22 23 24 35 35 34 27 31 35 39 41 43 41 32 35 38 39 38 37 40 43 39 39 38 36 34 33 32 31 30 29 30 31 31 28 30 32 30 31 35 37 37
29 31 31 28 28 27 29 32 31 31 29 30 32 37 41 33 31 30 29 34 35 31 31 38 36 37 34 32 30 27 28 30 30 30 31 32 31 31 31 31 30 30 32 34
32 31 31 33 35 31 25 23 30 31 33 27 23 39 34 33 32 29 26 29 31 31 33 31 34 34 34 28 28 27 26 24 23 24 24 26 29 31 33 33 34 35 37 38
40 36 33 34 34 36 35 27 24 22 30 34 34 37 41 35 33 31 35 35 31 29 32 31 29 34 35 29 29 28 29 29 25 27 26 28 30 32 35 36 38 40 42 45
48 46 43 39 41 38 37 35 31 28 29 28 30 38 42 42 39 41 39 40 40 40 38 37 36 32 29 33 35 34 29 35 31 30 31 32 32 34 35 38 41 42 43 46
54 55 53 48 49 46 43 41 39 38 34 34 34 34 35 40 45 44 45 46 44 43 44 43 41 32 40 38 38 40 44 44 37 34 34 36 35 37 35 38 40 44 50 57
60 60 58 57 57 55 51 50 46 45 44 41 42 46 43 35 43 51 53 49 51 52 50 45 46 47 47 49 42 41 42 44 50 47 37 39 39 41 40 42 45 44 52 59
71 69 66 65 62 60 59 56 54 51 49 48 52 60 55 47 49 55 58 55 54 49 47 48 50 50 49 51 54 53 49 48 51 53 52 51 47 45 48 52 51 53 58 60
80 79 74 74 71 69 68 63 58 58 58 56 57 67 65 67 69 65 64 62 59 58 54 49 48 53 57 54 53 59 60 60 59 57 56 56 59 58 57 56 56 53 55 59
88 86 84 80 80 78 75 74 74 70 68 68 69 67 66 70 69 69 69 70 66 67 62 61 56 58 69 64 62 59 62 64 66 66 65 63 62 64 65 68 65 66 67 69
98 96 91 86 85 87 86 80 80 80 78 78 80 81 81 79 80 80 78 76 78 75 71 71 68 68 71 73 73 74 70 68 69 73 75 74 72 68 68 68 72 72 66 67
101 101 98 96 93 89 90 86 85 87 88 90 90 89 88 88 86 86 87 88 86 86 80 78 75 77 78 82 82 83 85 86 84 84 78 77 78 77 75 74 71 71 75 73
112 108 103 102 100 98 89 89 90 93 92 93 94 92 91 92 92 90 90 90 91 91 90 88 89 88 88 91 93 90 90 93 96 94 91 89 88 82 81 77 76 74 74 77
117 115 111 109 106 100 101 97 99 100 101 101 101 101 100 101 102 102 102 101 100 99 99 101 99 99 100 98 97 99 102 104 100 105 100 102 98 90 87 82 78 77 76 78
121 119 115 109 110 110 110 109 112 110 110 112 113 110 111 114 113 112 111 111 108 106 104 106 106 106 109 111 113 115 115 117 114 111 102 105 96 96 93 88 80 78 76 77
125 115 114 114 122 122 120 121 119 121 123 120 118 117 117 116 119 120 118 117 118 117 116 116 117 118 120 123 125 124 116 109 110 112 105 101 94 93 90 86 83 79 78 78
128 122 120 118 114 119 127 131 127 131 134 134 132 131 129 129 129 124 122 125 122 129 132 133 127 124 119 116 117 112 107 105 102 101 100 96 87 87 85 80 81 81 78 77

GFSNW_250_spd_111.txt.gz
Wind_Speed
61 66 74 76 81 86 89 87 80 84 86 86 79 77 77 69 59 52 43 35 30 27 23 22 18 17 16 15 16 17 17 20 22 23 24 27 28 25 13 2 2 4 5 7
55 58 63 69 74 77 83 85 84 84 84 80 77 74 72 71 71 69 63 54 46 40 31 26 19 15 12 10 10 10 11 13 11 8 11 16 17 17 17 14 13 13 13 12
48 52 54 59 66 70 73 79 79 79 84 80 74 70 69 66 66 65 64 61 59 57 52 47 43 38 34 31 29 27 27 27 27 27 25 26 26 25 22 20 18 16 14 12
41 43 44 51 57 63 64 68 73 73 75 75 76 74 68 65 63 59 58 57 55 53 51 48 47 45 44 42 41 39 37 34 32 30 28 26 23 21 20 18 17 16 16 16
36 38 41 40 48 52 58 61 63 68 69 73 70 75 71 68 61 58 57 55 52 49 46 45 43 42 40 39 37 36 34 32 30 28 26 24 23 23 24 23 22 21 18 17
31 36 36 39 41 47 48 54 57 60 62 62 66 67 68 66 65 63 59 54 51 48 48 46 44 42 42 41 38 36 35 33 31 29 27 25 25 24 23 22 21 21 22 23
21 24 29 33 38 39 40 44 48 51 54 56 56 58 60 59 62 61 60 59 57 53 49 46 44 40 37 36 36 35 35 35 36 37 36 35 32 31 31 33 30 29 29 24
14 20 23 27 30 35 36 38 39 42 45 50 50 51 51 54 53 53 54 59 54 51 50 46 45 44 42 40 40 40 38 37 36 36 37 37 36 34 33 32 30 27 26 27
21 18 19 26 23 29 32 33 32 35 36 39 44 45 45 46 46 45 48 47 48 51 47 43 43 43 41 39 38 37 37 37 37 36 32 30 30 29 28 27 27 29 31 34
24 25 25 23 24 25 25 28 33 31 31 27 33 36 40 37 42 39 39 40 40 42 43 45 42 38 37 36 35 34 33 32 31 30 29 29 29 28 27 29 29 33 34 36
26 27 30 29 23 23 26 26 26 24 23 28 25 28 35 37 35 35 35 36 38 39 39 41 41 38 34 32 33 30 30 28 29 29 29 29 28 28 29 29 30 30 31 34
35 31 32 33 35 28 24 24 23 23 16 19 25 25 26 28 33 34 37 34 34 33 34 34 36 38 34 33 30 33 34 35 29 27 27 29 29 29 29 31 32 33 35 35
38 37 39 38 37 34 32 26 26 24 23 21 26 28 19 19 24 24 29 34 32 38 38 34 36 33 29 29 33 30 27 25 33 33 35 30 28 31 34 34 35 35 35 35
44 44 43 42 41 40 34 36 36 34 28 25 27 28 28 28 27 27 26 30 31 36 36 37 38 38 29 30 32 30 26 28 25 28 30 34 41 37 35 34 35 38 41 47
52 50 48 44 46 46 47 44 39 38 38 36 33 30 28 32 37 35 35 34 30 30 36 38 41 39 38 41 45 40 35 34 33 32 33 34 38 41 43 44 44 46 45 47
52 53 55 52 50 51 47 49 46 46 46 45 44 42 37 38 39 38 43 43 38 33 36 43 45 42 44 46 48 41 46 49 52 46 42 44 44 43 43 46 49 51 53 53
65 63 61 58 56 58 55 56 54 50 49 50 51 52 50 48 45 44 41 44 49 45 45 44 47 47 47 48 46 43 50 50 54 55 51 51 53 53 51 47 51 56 59 59
71 66 67 66 65 63 61 61 61 57 56 58 55 60 62 59 58 57 54 53 46 44 50 53 52 50 49 55 55 57 56 54 54 55 56 56 58 62 59 60 63 61 64 63
80 76 73 72 71 72 71 67 65 66 66 64 64 66 65 66 65 63 60 61 61 60 58 55 53 58 62 65 64 64 64 63 60 63 65 65 69 69 71 73 73 72 74 69
83 80 76 77 79 77 75 75 73 72 70 71 72 72 72 71 71 72 74 69 70 70 66 66 71 72 68 68 72 73 71 74 72 73 76 75 76 79 79 82 81 80 82 83
90 88 89 85 83 83 81 79 79 78 80 81 84 85 83 79 80 81 80 81 81 78 77 79 76 71 73 75 77 77 77 79 81 83 85 87 88 89 89 89 92 90 90 91
88 93 93 94 91 89 89 87 88 90 91 92 92 93 91 90 88 87 87 87 85 83 82 81 80 84 83 83 82 85 89 89 89 90 91 93 96 97 99 96 97 95 99 97
94 93 96 99 102 95 91 92 96 99 99 100 99 99 99 99 98 97 94 92 92 91 88 90 92 92 92 91 92 94 95 97 97 97 100 100 101 106 106 103 104 100 101 95
95 98 95 98 102 105 102 101 105 106 107 108 107 107 107 107 105 105 106 105 101 97 99 102 102 101 102 102 104 108 108 107 108 107 107 107 109 108 107 107 106 105 103 97
100 96 95 95 103 110 113 112 116 115 116 116 115 114 114 115 114 113 113 111 108 107 109 111 112 113 113 113 114 114 116 116 116 116 116 116 114 113 108 105 105 102 100 97
104 97 93 96 107 112 116 113 112 117 117 119 122 123 121 121 122 120 120 119 117 119 120 121 120 122 119 112 110 115 119 119 119 118 118 115 108 108 105 106 102 94 92 93
104 102 103 105 110 116 121 119 117 116 118 119 122 126 128 125 121 115 122 122 120 119 122 119 115 111 112 111 110 110 108 113 117 115 108 108 101 98 91 93 94 84 79 80

GFSNW_250_spd_114.txt.gz
Wind_Speed
52 58 65 71 76 79 81 82 84 79 82 81 75 72 74 72 66 56 47 43 41 36 34 29 23 22 21 22 23 25 26 27 26 27 26 24 24 23 25 27 23 10 7 2
46 51 55 61 66 71 74 78 78 78 79 76 74 71 68 67 67 68 64 57 48 40 35 31 27 24 21 18 15 14 13 13 15 14 15 16 17 14 10 5 7 10 12 9
41 46 49 53 57 62 67 68 72 75 73 75 75 71 69 67 63 61 60 60 60 59 55 49 41 35 29 24 20 17 13 10 9 11 15 20 21 21 19 18 15 13 10 8
33 39 43 47 49 55 57 63 64 63 68 70 71 70 70 66 63 62 58 56 55 54 53 51 49 47 45 42 39 37 34 32 30 28 26 24 22 20 18 16 15 16 15 15
24 32 34 39 41 44 50 51 56 58 59 58 65 67 68 63 63 63 59 55 54 53 51 48 47 45 43 41 39 37 34 32 31 28 26 24 23 22 22 23 25 24 27 27
17 22 27 32 37 38 42 44 45 48 51 54 55 57 61 63 62 59 57 55 54 52 51 49 46 43 42 41 41 42 42 41 40 38 39 39 36 33 31 30 30 26 26 28
17 18 19 26 28 30 35 39 40 43 45 46 48 51 54 56 55 56 57 54 52 52 51 49 47 47 45 45 44 42 39 39 39 36 33 32 30 28 29 29 28 29 28 27
16 18 20 22 25 26 27 30 32 33 37 35 40 41 43 47 49 49 50 52 50 49 49 48 47 44 40 39 38 37 36 35 34 34 32 31 30 30 29 29 28 27 28 32
22 20 20 24 25 24 22 24 25 26 26 31 31 30 34 36 38 39 42 46 45 46 48 47 43 41 40 41 38 36 34 33 31 30 29 28 27 27 29 28 30 29 30 33
25 24 24 24 27 25 24 25 21 22 20 20 26 25 25 28 28 29 32 33 36 36 37 40 40 40 39 37 35 32 31 30 29 29 26 27 28 26 26 26 28 28 29 31
26 27 27 29 29 28 27 25 23 21 21 18 18 22 20 20 23 26 25 29 31 30 33 33 32 33 34 36 36 35 32 28 23 23 21 20 20 20 23 23 25 26 27 29
33 30 32 31 36 32 30 31 29 25 22 22 23 20 21 17 17 16 21 22 26 26 25 27 27 30 30 30 30 30 26 28 27 24 21 23 25 25 26 28 29 30 30 33
37 35 32 33 34 35 34 34 35 32 29 29 27 28 27 25 21 17 21 22 23 28 26 26 26 27 32 26 28 31 30 27 29 30 29 29 31 30 32 29 31 32 32 35
34 37 37 36 35 41 40 38 38 40 39 39 36 31 31 32 32 29 27 26 29 31 33 32 33 26 33 36 31 31 29 33 31 32 33 38 39 33 33 33 33 38 38 36
39 37 38 39 41 45 47 42 44 42 41 44 45 41 37 37 35 37 40 36 31 31 34 35 39 37 36 42 44 39 40 38 38 42 39 39 46 44 41 41 44 47 48 46
41 39 44 46 46 50 49 47 49 50 47 47 46 48 48 46 44 42 41 42 39 38 40 44 44 43 45 51 53 48 42 44 47 44 48 48 50 49 49 48 48 54 58 59
55 47 42 50 53 53 49 51 55 53 50 52 54 57 58 55 54 52 47 46 45 46 49 50 54 53 49 49 56 52 50 52 51 50 53 57 58 56 59 58 59 61 65 68
60 61 59 55 58 60 61 59 58 61 58 54 55 59 62 62 59 59 57 56 55 54 54 55 56 56 56 55 58 63 62 60 61 64 64 61 62 65 64 65 70 76 77 76
75 72 69 71 62 58 65 65 67 65 66 65 64 68 66 66 69 68 65 63 61 57 59 59 59 61 62 64 65 68 67 66 68 72 72 72 70 73 75 76 80 81 81 81
88 84 81 76 80 73 65 71 74 73 71 71 75 76 75 75 75 74 74 72 71 70 67 68 67 71 74 73 73 72 72 73 75 76 78 78 78 82 86 87 86 84 85 89
95 96 93 85 83 80 79 71 73 75 77 77 79 79 82 82 83 83 83 81 80 78 75 76 75 78 79 79 79 80 80 80 81 84 86 88 89 89 89 90 92 92 99 100
100 100 100 94 90 87 85 78 79 80 80 80 82 84 86 86 91 90 88 89 88 87 86 85 86 88 87 87 87 86 87 91 93 94 93 93 94 95 97 98 99 102 101 100
104 105 106 99 95 94 91 88 87 81 82 86 88 90 94 94 91 92 95 96 96 95 94 96 99 98 97 96 97 98 99 100 100 102 104 104 104 105 107 106 108 106 106 107
102 106 107 107 98 95 98 94 91 89 90 87 92 95 96 94 96 98 98 97 98 98 100 105 109 106 106 111 111 107 107 105 106 109 111 112 110 111 107 105 98 98 102 100
108 104 104 104 100 98 101 103 104 99 96 96 91 93 96 98 99 98 98 99 98 102 105 112 112 114 117 118 115 116 116 116 116 117 117 114 108 105 99 96 98 99 94 92
110 100 97 99 100 106 112 113 112 104 98 99 98 98 98 100 102 95 100 101 102 109 111 115 118 118 111 111 115 110 109 111 114 115 115 104 107 100 94 92 92 92 90 82
112 108 111 112 114 118 121 124 121 121 117 111 104 102 104 105 105 99 101 105 107 112 115 114 116 118 120 119 115 111 110 112 106 107 107 106 104 93 86 87 86 82 77 73

GFSNW_250_spd_117.txt.gz
Wind_Speed
50 54 58 63 69 74 73 76 76 80 77 77 72 71 74 64 55 53 52 47 44 43 40 34 32 30 30 29 28 25 26 27 30 31 36 38 38 38 38 35 33 32 30 23
41 48 51 55 60 65 72 69 73 74 75 77 72 69 68 69 70 64 53 46 44 42 39 33 29 26 25 26 26 27 28 29 30 29 29 28 28 27 26 22 14 9 8 5
34 38 43 48 52 56 61 64 65 69 73 73 73 69 66 66 65 63 61 60 55 47 39 34 30 27 24 21 17 15 14 15 16 17 17 17 14 10 9 9 9 8 8 8
25 32 35 37 45 48 50 56 59 63 64 69 70 69 67 67 66 60 58 57 54 52 51 48 46 43 39 35 31 28 26 24 22 21 20 18 16 16 15 16 20 24 25 27
16 25 30 31 37 38 42 44 47 53 56 58 59 64 64 64 65 65 63 59 56 52 50 47 45 43 41 39 37 34 32 29 27 26 25 27 30 31 29 28 26 26 26 27
13 20 25 28 31 32 35 34 39 42 45 50 50 54 54 56 59 64 61 58 58 58 56 53 51 48 45 43 41 40 39 38 37 37 36 35 33 32 30 30 31 34 33 31
16 13 20 22 27 28 27 31 29 32 36 36 41 43 49 48 50 51 53 54 55 56 54 50 48 48 46 43 42 41 39 39 37 36 35 33 32 31 29 28 26 25 26 24
15 17 16 19 22 25 25 25 25 24 25 30 29 33 35 38 38 42 42 44 44 46 48 46 44 43 39 38 37 37 36 34 33 32 28 28 28 28 26 25 24 24 25 26
21 17 17 18 20 22 24 24 25 22 20 21 25 25 23 28 26 29 33 36 31 35 37 40 38 38 38 38 36 32 31 32 31 28 27 24 25 23 20 18 19 20 20 22
20 21 19 20 20 21 24 23 24 26 24 22 21 21 23 20 20 22 22 26 29 25 28 28 27 32 32 30 32 33 28 26 24 25 23 24 24 24 23 20 20 19 18 18
21 22 25 26 27 26 23 25 23 23 26 27 25 24 22 24 22 22 20 20 21 25 26 24 24 26 27 32 29 26 24 24 20 19 22 22 25 24 25 25 26 25 25 27
33 31 23 23 28 27 29 23 25 23 22 25 25 29 27 25 23 25 27 24 25 25 23 24 25 26 23 22 22 22 24 28 26 21 21 24 25 25 24 25 27 30 29 28
31 29 31 30 25 29 29 29 28 29 25 26 26 29 32 32 31 27 25 29 30 31 31 26 23 27 28 27 24 22 27 35 38 33 24 30 31 29 34 37 36 36 34 37
38 39 33 33 34 29 28 31 32 32 34 36 32 31 33 32 34 37 33 31 33 33 35 36 33 28 29 34 34 29 29 36 41 41 39 38 38 34 36 39 44 45 45 48
42 39 34 33 31 29 31 32 33 36 39 44 41 38 40 44 40 38 37 37 43 42 39 41 41 40 40 42 44 45 40 37 40 45 45 47 49 48 48 51 52 53 54 56
59 51 44 41 39 40 33 35 37 39 38 41 45 48 47 45 44 45 44 46 48 46 45 44 46 47 45 49 54 57 49 47 44 44 48 52 53 56 54 56 57 59 60 62
62 63 57 51 49 48 46 40 38 40 43 43 45 46 51 51 53 53 52 51 50 51 49 54 56 57 57 56 59 59 58 57 55 49 49 52 57 58 61 61 63 65 68 71
68 66 65 64 60 56 55 54 51 56 47 48 53 57 57 54 52 53 56 53 52 51 51 54 58 61 61 61 63 64 62 63 63 62 60 62 67 69 70 70 71 74 76 76
72 71 69 70 68 66 65 66 66 64 60 63 63 60 58 63 66 63 60 59 60 60 64 65 67 71 72 69 69 70 70 69 71 72 72 73 72 74 75 77 77 78 81 83
82 77 77 75 75 72 69 68 71 73 76 78 73 73 75 72 64 68 70 68 67 69 70 73 75 78 78 78 79 79 78 80 82 81 81 82 83 81 82 83 84 86 88 92
88 86 83 84 83 81 79 77 75 74 76 81 84 87 88 88 83 74 71 75 77 78 78 78 79 81 80 82 83 84 85 86 87 89 90 91 93 92 91 93 95 97 99 100
93 92 91 90 88 87 87 83 84 86 90 87 88 94 95 95 93 88 87 79 77 78 80 84 85 86 86 85 86 91 90 90 92 94 95 98 99 99 99 102 105 106 107 108
99 98 92 95 97 97 95 96 97 97 91 91 94 99 96 98 96 97 94 91 79 74 75 76 83 91 95 97 100 99 97 95 94 96 99 102 104 105 107 106 108 109 110 106
104 96 96 99 96 100 105 102 99 103 108 110 108 102 102 98 97 98 93 89 83 78 81 86 88 83 93 102 102 98 98 99 100 103 106 109 111 111 113 111 106 103 104 102
110 107 104 102 101 107 111 112 110 108 109 109 108 107 108 103 99 97 97 95 89 89 106 95 90 88 92 95 98 101 102 103 104 107 111 113 115 116 113 112 111 105 95 91
112 107 108 111 117 114 113 117 114 113 112 111 110 103 98 95 94 93 94 96 99 106 100 93 91 96 97 98 100 102 104 105 107 110 114 115 117 115 107 101 98 94 83 78
110 114 114 113 112 110 109 108 111 110 107 106 101 96 96 94 89 91 99 106 104 99 95 93 90 92 95 97 99 101 102 103 105 106 108 109 108 101 97 91 92 88 81 75